[[{"header":{"parameterUnit":"m.s-1","parameterCategory":1,"la1":30.6,"la2":29.2853,"lo1":-89.7004,"lo2":-87.6739,"dy":0.0162,"dx":0.0183,"nx":112,"ny":82,"refTime":"2024-07-19T18:00:00:Z","depth":0,"parameterNumber":2,"parameterNumberName":"U-component_of_WINDS"},"data":[0.0,0.0,0.0,0.0,0.0,0.0,0.0,0.0,0.0,0.0,0.0,0.0,0.0,0.0,0.0,0.0,0.0,0.0,0.0,0.0,0.0,0.0,0.0,0.0,0.0,0.0,0.0,0.0,0.0,0.0,0.0,0.0,0.0,0.0,0.0,0.0,0.0,0.0,0.0,0.0,0.0,0.0,0.0,0.0,0.0,0.0,0.0,0.0,0.0,0.0,0.0,0.0,0.0,0.0,0.0,0.0,0.0,0.0,0.0,0.0,0.0,0.0,0.0,0.0,0.0,0.0,0.0,0.0,0.0,0.0,0.0,0.0,0.0,0.0,0.0,0.0,0.0,0.0,0.0,0.0,0.0,0.0,0.0,0.0,0.0,0.0,0.0,0.0,0.0,0.0,0.0,-1.4932,-1.7926,-1.9465,-1.8897,-1.8672,-1.6952,-1.3193,0.0,0.0,0.0,0.0,0.0,0.0,0.0,0.0,0.0,0.0,0.0,0.0,0.0,0.0,0.0,0.0,0.0,0.0,0.0,0.0,0.0,0.0,0.0,0.0,0.0,0.0,0.0,0.0,0.0,0.0,0.0,0.0,0.0,0.0,0.0,0.0,0.0,0.0,0.0,0.0,0.0,0.0,0.0,0.0,0.0,0.0,0.0,0.0,0.0,0.0,0.0,0.0,0.0,0.0,0.0,0.0,0.0,0.0,0.0,0.0,0.0,0.0,0.0,0.0,0.0,0.0,0.0,0.0,0.0,0.0,0.0,0.0,0.0,0.0,0.0,0.0,0.0,0.0,0.0,0.0,0.0,0.0,0.0,0.0,0.0,0.0,0.0,0.0,0.0,0.0,0.0,0.0,0.0,0.0,0.0,0.0,0.0,0.0,0.0,0.0,0.0,0.0,0.0,0.0,-1.308,-1.6861,-1.8717,-1.9663,-1.9573,-1.8508,-1.6652,-1.384,0.0,0.0,0.0,0.0,0.0,0.0,0.0,0.0,0.0,0.0,0.0,0.0,0.0,0.0,0.0,0.0,0.0,0.0,0.0,0.0,0.0,0.0,0.0,0.0,0.0,0.0,0.0,0.0,0.0,0.0,0.0,0.0,0.0,0.0,0.0,0.0,0.0,0.0,0.0,0.0,0.0,0.0,0.0,0.0,0.0,0.0,0.0,0.0,0.0,0.0,0.0,0.0,0.0,0.0,0.0,0.0,0.0,0.0,0.0,0.0,0.0,0.0,0.0,0.0,0.0,0.0,0.0,0.0,0.0,0.0,0.0,0.0,0.0,0.0,0.0,0.0,0.0,0.0,0.0,0.0,0.0,0.0,0.0,0.0,0.0,0.0,0.0,0.0,0.0,0.0,0.0,0.0,0.0,0.0,0.0,0.0,0.0,0.0,0.0,0.0,0.0,0.0,0.0,-1.243,-1.4528,-1.74,-1.8897,-1.9708,-1.9708,-1.8461,-1.6577,-1.3961,-1.2822,0.0,0.0,0.0,0.0,0.0,0.0,0.0,0.0,0.0,0.0,0.0,0.0,0.0,0.0,0.0,0.0,0.0,0.0,0.0,0.0,0.0,0.0,0.0,0.0,0.0,0.0,0.0,0.0,0.0,0.0,0.0,0.0,0.0,0.0,0.0,0.0,0.0,0.0,0.0,0.0,0.0,0.0,0.0,0.0,0.0,0.0,0.0,0.0,0.0,0.0,0.0,0.0,0.0,0.0,0.0,0.0,0.0,0.0,0.0,0.0,0.0,0.0,0.0,0.0,0.0,0.0,0.0,0.0,0.0,0.0,0.0,0.0,0.0,0.0,0.0,0.0,0.0,0.0,0.0,0.0,0.0,0.0,0.0,0.0,0.0,0.0,0.0,0.0,0.0,0.0,0.0,0.0,0.0,0.0,0.0,0.0,0.0,0.0,0.0,0.0,0.0,0.0,-1.4017,-1.571,-1.7519,-1.8897,-1.9648,-1.9483,-1.8104,-1.6189,-1.372,-1.2164,0.0,0.0,0.0,0.0,0.0,0.0,0.0,0.0,0.0,0.0,0.0,0.0,0.0,0.0,0.0,0.0,0.0,0.0,0.0,0.0,0.0,0.0,0.0,0.0,0.0,0.0,0.0,0.0,0.0,0.0,0.0,0.0,0.0,0.0,0.0,0.0,0.0,0.0,0.0,0.0,0.0,0.0,0.0,0.0,0.0,0.0,0.0,0.0,0.0,0.0,0.0,0.0,0.0,0.0,0.0,0.0,0.0,0.0,0.0,0.0,0.0,0.0,0.0,0.0,0.0,0.0,0.0,0.0,0.0,0.0,0.0,0.0,0.0,0.0,0.0,0.0,0.0,0.0,0.0,0.0,0.0,0.0,0.0,0.0,0.0,0.0,0.0,0.0,0.0,0.0,0.0,0.0,0.0,0.0,0.0,0.0,0.0,0.0,0.0,0.0,0.0,0.0,-1.4122,-1.6233,-1.7564,-1.8897,-1.9453,-1.8822,-1.7027,-1.5064,-1.3011,-1.1097,0.0,0.0,0.0,0.0,0.0,0.0,0.0,0.0,0.0,0.0,0.0,0.0,0.0,0.0,0.0,0.0,0.0,0.0,0.0,0.0,0.0,0.0,0.0,0.0,0.0,0.0,0.0,0.0,0.0,0.0,0.0,0.0,0.0,0.0,0.0,0.0,0.0,0.0,0.0,0.0,0.0,0.0,0.0,0.0,0.0,0.0,0.0,0.0,0.0,0.0,0.0,0.0,0.0,0.0,0.0,0.0,0.0,0.0,0.0,0.0,0.0,0.0,0.0,0.0,0.0,0.0,0.0,0.0,0.0,0.0,0.0,0.0,0.0,0.0,0.0,0.0,0.0,0.0,0.0,0.0,0.0,0.0,0.0,0.0,0.0,0.0,0.0,0.0,0.0,0.0,0.0,0.0,0.0,0.0,0.0,0.0,0.0,0.0,0.0,0.0,0.0,0.0,-1.3777,-1.5815,0.0,-1.8897,-1.9438,-1.8762,-1.725,-1.5337,-1.2951,0.0,0.0,0.0,0.0,0.0,0.0,0.0,0.0,0.0,0.0,0.0,0.0,0.0,0.0,0.0,0.0,0.0,0.0,0.0,0.0,0.0,0.0,0.0,0.0,0.0,0.0,0.0,0.0,0.0,0.0,0.0,0.0,0.0,0.0,0.0,0.0,0.0,0.0,0.0,0.0,0.0,0.0,0.0,0.0,0.0,0.0,0.0,0.0,0.0,0.0,0.0,0.0,0.0,0.0,0.0,0.0,0.0,0.0,0.0,0.0,0.0,0.0,0.0,0.0,0.0,0.0,0.0,0.0,0.0,0.0,0.0,0.0,0.0,0.0,0.0,0.0,0.0,0.0,0.0,0.0,0.0,0.0,0.0,0.0,0.0,0.0,0.0,0.0,0.0,0.0,0.0,0.0,0.0,0.0,0.0,0.0,0.0,0.0,0.0,0.0,0.0,0.0,-1.158,-1.3747,-1.577,0.0,-1.8717,-1.9106,-1.8448,-1.6771,-1.4843,-1.2624,0.0,0.0,0.0,0.0,0.0,0.0,0.0,0.0,0.0,0.0,0.0,0.0,0.0,0.0,0.0,0.0,0.0,0.0,0.0,0.0,0.0,0.0,0.0,0.0,0.0,0.0,0.0,0.0,0.0,0.0,0.0,0.0,0.0,0.0,0.0,0.0,0.0,0.0,0.0,0.0,0.0,0.0,0.0,0.0,0.0,0.0,0.0,0.0,0.0,0.0,0.0,0.0,0.0,0.0,0.0,0.0,0.0,0.0,0.0,0.0,0.0,0.0,0.0,0.0,0.0,0.0,0.0,0.0,0.0,0.0,0.0,0.0,0.0,0.0,0.0,0.0,0.0,0.0,0.0,0.0,0.0,0.0,0.0,0.0,0.0,0.0,0.0,0.0,0.0,0.0,0.0,0.0,0.0,0.0,0.0,0.0,0.0,0.0,0.0,0.0,0.0,0.0,-1.164,-1.4137,-1.6278,-1.7549,-1.8281,-1.8433,-1.7758,-1.5307,-1.3241,0.0,0.0,0.0,0.0,0.0,0.0,0.0,0.0,0.0,0.0,0.0,0.0,0.0,0.0,0.0,0.0,0.0,0.0,0.0,0.0,0.0,0.0,0.0,0.0,0.0,0.0,0.0,0.0,0.0,0.0,0.0,0.0,0.0,0.0,0.0,0.0,0.0,0.0,0.0,0.0,0.0,0.0,0.0,0.0,0.0,0.0,0.0,0.0,0.0,0.0,0.0,0.0,0.0,0.0,0.0,0.0,0.0,0.0,0.0,0.0,0.0,0.0,0.0,0.0,0.0,0.0,0.0,0.0,0.0,0.0,0.0,0.0,0.0,0.0,0.0,0.0,0.0,0.0,0.0,0.0,0.0,0.0,0.0,0.0,0.0,0.0,0.0,0.0,0.0,0.0,0.0,0.0,0.0,0.0,0.0,0.0,0.0,0.0,0.0,0.0,0.0,0.0,0.0,-1.1685,-1.4137,-1.6114,-1.6906,-1.7593,-1.7712,-1.7055,-1.5456,-1.3735,-1.191,0.0,0.0,0.0,0.0,0.0,0.0,0.0,0.0,0.0,0.0,0.0,0.0,0.0,0.0,0.0,0.0,0.0,0.0,0.0,0.0,0.0,0.0,0.0,0.0,0.0,0.0,0.0,0.0,0.0,0.0,0.0,0.0,0.0,0.0,0.0,0.0,0.0,0.0,0.0,0.0,0.0,0.0,0.0,0.0,0.0,0.0,0.0,0.0,0.0,0.0,0.0,0.0,0.0,0.0,0.0,0.0,0.0,0.0,0.0,0.0,0.0,0.0,0.0,0.0,0.0,0.0,0.0,0.0,0.0,0.0,0.0,0.0,0.0,0.0,0.0,0.0,0.0,0.0,0.0,0.0,0.0,0.0,0.0,0.0,0.0,0.0,0.0,0.0,0.0,0.0,0.0,0.0,0.0,0.0,0.0,0.0,0.0,0.0,0.0,0.0,0.0,0.0,-1.1715,-1.4348,-1.6398,-1.704,-1.7458,-1.7533,-1.713,-1.5695,-1.4062,-1.231,0.0,0.0,0.0,0.0,0.0,0.0,0.0,0.0,0.0,0.0,0.0,0.0,0.0,0.0,0.0,0.0,0.0,0.0,0.0,0.0,0.0,0.0,0.0,0.0,0.0,0.0,0.0,0.0,0.0,0.0,0.0,0.0,0.0,0.0,0.0,0.0,0.0,0.0,0.0,0.0,0.0,0.0,0.0,0.0,0.0,0.0,0.0,0.0,0.0,0.0,0.0,0.0,0.0,0.0,0.0,0.0,0.0,0.0,0.0,0.0,0.0,0.0,0.0,0.0,0.0,0.0,0.0,0.0,0.0,0.0,0.0,0.0,0.0,0.0,0.0,0.0,0.0,0.0,0.0,0.0,0.0,0.0,0.0,0.0,0.0,0.0,0.0,0.0,0.0,0.0,0.0,0.0,0.0,0.0,0.0,0.0,0.0,0.0,0.0,0.0,0.0,0.0,-1.1805,-1.471,-1.6965,-1.7639,-1.7637,-1.7608,-1.7608,-1.5875,-1.4227,-1.2891,0.0,0.0,0.0,0.0,0.0,0.0,0.0,0.0,0.0,0.0,0.0,0.0,0.0,0.0,0.0,0.0,0.0,0.0,0.0,0.0,0.0,0.0,0.0,0.0,0.0,0.0,0.0,0.0,0.0,0.0,0.0,0.0,0.0,0.0,0.0,0.0,0.0,0.0,0.0,0.0,0.0,0.0,0.0,0.0,0.0,0.0,0.0,0.0,0.0,0.0,0.0,0.0,0.0,0.0,0.0,0.0,0.0,0.0,0.0,0.0,-1.266,0.0,0.0,0.0,0.0,0.0,0.0,0.0,0.0,0.0,0.0,0.0,0.0,0.0,0.0,0.0,0.0,0.0,0.0,0.0,0.0,0.0,0.0,0.0,0.0,0.0,0.0,0.0,0.0,0.0,0.0,0.0,0.0,0.0,0.0,0.0,0.0,0.0,0.0,0.0,0.0,0.0,-1.2505,-1.4979,-1.6965,-1.7639,-1.7234,-1.6905,-1.6905,-1.5606,-1.4227,-1.2891,0.0,0.0,0.0,0.0,0.0,0.0,0.0,0.0,0.0,0.0,0.0,0.0,0.0,0.0,0.0,0.0,0.0,0.0,0.0,0.0,0.0,0.0,0.0,0.0,0.0,0.0,0.0,0.0,0.0,0.0,0.0,0.0,0.0,0.0,0.0,0.0,0.0,0.0,0.0,0.0,0.0,0.0,0.0,0.0,0.0,0.0,0.0,0.0,0.0,0.0,0.0,0.0,0.0,0.0,0.0,0.0,0.0,0.0,0.0,0.0,0.0,-1.3887,0.0,0.0,0.0,0.0,0.0,0.0,0.0,0.0,0.0,0.0,0.0,0.0,0.0,0.0,0.0,0.0,0.0,0.0,0.0,0.0,0.0,0.0,0.0,0.0,0.0,0.0,0.0,0.0,0.0,0.0,0.0,0.0,0.0,0.0,0.0,0.0,0.0,0.0,0.0,0.0,-1.3151,-1.5561,-1.7428,-1.8117,-1.7594,-1.7174,-1.7174,-1.6009,-1.4841,-1.3822,-1.2493,0.0,0.0,0.0,0.0,0.0,0.0,0.0,0.0,0.0,0.0,0.0,0.0,0.0,0.0,0.0,0.0,0.0,0.0,0.0,0.0,0.0,0.0,0.0,0.0,0.0,0.0,0.0,0.0,0.0,0.0,0.0,0.0,0.0,0.0,0.0,0.0,0.0,0.0,0.0,0.0,0.0,0.0,0.0,0.0,0.0,0.0,0.0,0.0,0.0,0.0,0.0,0.0,0.0,0.0,0.0,-1.856,-1.7873,-1.8209,-1.9269,-1.7372,-1.641,-1.6042,0.0,0.0,0.0,0.0,0.0,0.0,0.0,0.0,0.0,0.0,0.0,0.0,0.0,0.0,0.0,0.0,0.0,0.0,0.0,0.0,0.0,0.0,0.0,0.0,0.0,-1.6114,-1.6129,0.0,0.0,0.0,0.0,0.0,0.0,0.0,0.0,0.0,0.0,0.0,0.0,-1.3974,-1.6323,-1.8132,-1.8807,-1.8267,-1.7833,-1.7697,-1.6623,-1.5634,-1.4856,-1.3658,-1.243,0.0,0.0,0.0,0.0,0.0,0.0,0.0,0.0,0.0,0.0,0.0,0.0,0.0,0.0,0.0,0.0,0.0,0.0,0.0,0.0,0.0,0.0,0.0,0.0,0.0,0.0,0.0,0.0,0.0,0.0,0.0,0.0,-0.8836,-0.9501,0.0,0.0,0.0,0.0,0.0,0.0,0.0,0.0,0.0,0.0,0.0,0.0,0.0,0.0,-1.64,-1.8408,-1.9473,-1.9575,-2.0826,-2.1519,-2.1705,-2.1171,-2.1063,-2.1213,-2.0577,0.0,-1.8289,-1.6126,0.0,0.0,0.0,0.0,0.0,0.0,0.0,0.0,0.0,0.0,0.0,0.0,0.0,0.0,0.0,0.0,0.0,0.0,0.0,0.0,0.0,0.0,-1.8044,-1.7459,-1.7459,-1.7459,0.0,-1.5665,-1.4122,-1.2684,0.0,0.0,0.0,0.0,0.0,0.0,0.0,0.0,-1.535,-1.7296,-1.8837,-1.9513,-1.8972,-1.8326,-1.7758,-1.701,-1.6069,-1.4886,-1.4094,-1.3331,-1.2564,-1.1266,0.0,0.0,0.0,0.0,0.0,0.0,0.0,0.0,0.0,0.0,0.0,0.0,0.0,0.0,0.0,0.0,0.0,0.0,0.0,0.0,0.0,0.0,0.0,0.0,0.0,0.0,0.0,0.0,0.0,-0.883,-1.0295,-1.0572,-1.1028,-1.1106,0.0,0.0,0.0,0.0,0.0,0.0,0.0,0.0,0.0,-1.6948,-1.7997,-1.8775,-1.921,-2.0589,-2.1299,-2.1299,-2.1975,-2.2296,-2.2296,-2.2092,-2.1838,-2.1582,-2.1166,-2.0649,-1.9939,-1.8106,-1.7116,-1.654,0.0,0.0,0.0,0.0,0.0,0.0,-1.5953,0.0,0.0,0.0,0.0,0.0,0.0,0.0,0.0,0.0,0.0,0.0,0.0,0.0,0.0,-1.8807,-1.8822,-1.8822,-1.8822,-1.8149,-1.6952,0.0,-1.4752,-1.4216,-1.1779,0.0,0.0,0.0,0.0,0.0,-1.6697,-1.7939,-1.8957,-1.9633,-1.9091,-1.8433,-1.7773,-1.71,-1.6308,-1.541,-1.4722,-1.4229,-1.3942,-1.2269,-1.1102,0.0,0.0,0.0,0.0,0.0,0.0,0.0,0.0,0.0,0.0,0.0,0.0,0.0,0.0,0.0,0.0,0.0,0.0,0.0,0.0,0.0,0.0,0.0,0.0,0.0,0.0,0.0,0.0,-1.0034,-1.1408,-1.1408,-1.2263,-1.2635,0.0,0.0,0.0,0.0,0.0,0.0,-1.639,-1.7134,-1.8132,-1.9447,-2.0386,-2.116,-2.1766,-2.2496,-2.2868,-2.2868,-2.2868,-2.2868,-2.2868,-2.2767,-2.2527,-2.2158,-2.16,-2.1369,-2.1225,-1.9484,-1.854,-1.8043,-1.6556,-1.6373,0.0,-1.657,-1.6691,-1.7217,-1.8327,-1.8492,-1.817,-1.7643,0.0,-1.6697,-1.5247,0.0,0.0,0.0,0.0,-1.6802,-1.7924,0.0,-1.9076,-1.9588,-1.9708,-1.9708,-1.9708,-1.9708,-1.9079,0.0,-1.6891,-1.6323,-1.3528,0.0,0.0,0.0,0.0,-1.6682,-1.7818,-1.8553,-1.9151,-1.9648,-1.9241,-1.8687,-1.8012,-1.7339,-1.6697,-1.6069,-1.5425,-1.505,-1.505,-1.3286,-1.2224,-1.2059,0.0,0.0,0.0,0.0,0.0,0.0,0.0,0.0,0.0,0.0,0.0,0.0,0.0,0.0,0.0,0.0,0.0,0.0,0.0,0.0,0.0,0.0,0.0,0.0,0.0,0.0,0.0,0.0,0.0,-1.2246,-1.3506,0.0,0.0,0.0,0.0,-1.6367,-1.6546,-1.7213,-1.8657,-1.9439,-2.0217,-2.1055,-2.2494,-2.3241,-2.3274,-2.4017,-2.4389,-2.4389,-2.4389,-2.4389,-2.4374,-2.3997,-2.3803,-2.372,-2.2744,-2.2325,-2.2133,-1.9717,-1.913,-1.9638,-1.8157,-1.7804,-1.8069,-1.7739,-1.803,-1.8602,-1.8672,-1.8687,-1.8764,-1.9363,-1.8687,-1.7639,-1.7518,-1.7055,0.0,0.0,-1.8027,-1.8717,-1.9423,-1.9633,-1.9663,-1.9693,-1.9708,-1.9708,-1.9708,-1.9708,-1.9465,0.0,-1.8583,-1.8132,-1.6712,0.0,0.0,-1.6517,-1.713,-1.7863,-1.8568,-1.9226,-1.9663,-1.9708,-1.9678,-1.9393,-1.8717,-1.8042,-1.7369,-1.6712,-1.6084,-1.5754,-1.5754,-1.4423,-1.3391,-1.2771,-1.0812,0.0,0.0,0.0,0.0,0.0,0.0,0.0,0.0,0.0,0.0,0.0,0.0,0.0,0.0,0.0,0.0,0.0,0.0,0.0,0.0,0.0,0.0,0.0,0.0,0.0,0.0,0.0,0.0,-1.508,-1.6424,0.0,0.0,-1.7039,-1.7557,-1.8076,-1.9041,-1.9819,-2.0344,-2.1532,-2.2327,-2.2612,-2.3594,-2.4118,-2.4118,-2.4372,-2.4491,-2.4491,-2.4491,-2.4491,-2.4508,-2.4351,-2.4145,-2.3852,-2.3155,-2.2674,-2.2313,-2.1114,-2.0805,-2.1014,-2.0474,-2.0077,-1.9854,-2.016,-2.0135,-2.0064,-2.0483,-2.0348,-1.9959,-1.9768,-1.9393,-1.8986,-1.8986,-1.8822,-1.8687,-1.8927,-1.9151,-1.9408,-1.9648,-1.9708,-1.9708,-1.9708,-1.9708,-1.9708,-1.9708,-1.9708,-1.9633,-1.9393,-1.9348,-1.8912,-1.7563,-1.8057,-1.8326,-1.7473,-1.8281,-1.9076,-1.9301,-1.9558,-1.9708,-1.9708,-1.9708,-1.9438,-1.8762,-1.8087,-1.725,-1.6189,-1.5515,-1.496,-1.4528,-1.3643,-1.3044,-1.2801,-1.1266,-1.0045,0.0,0.0,0.0,0.0,0.0,0.0,0.0,0.0,0.0,0.0,0.0,0.0,0.0,0.0,0.0,0.0,0.0,0.0,0.0,0.0,0.0,0.0,0.0,0.0,0.0,0.0,-1.6525,-1.701,-1.8369,-1.9068,-1.8594,-1.9232,-1.9786,-2.0027,-2.1211,-2.1935,-2.1935,-2.3103,-2.378,-2.378,-2.4491,-2.488,-2.488,-2.5117,-2.5235,-2.5235,-2.5235,-2.5235,-2.5235,-2.5235,-2.5092,-2.4813,-2.4303,-2.3807,-2.3309,-2.2815,-2.2506,-2.2293,-2.1859,-2.1425,-2.1096,-2.1545,-2.1425,-2.1111,-2.1545,-2.141,-2.0961,-2.0513,-2.0382,-2.0382,-2.0382,-2.0382,-2.0382,-2.0382,-2.0198,-2.0034,-2.0034,-1.9872,-1.9708,-1.9708,-1.9708,-1.9708,-1.9708,-1.9708,-1.9708,-1.9708,-1.9708,-1.9423,-1.8538,-1.9106,-1.9408,-1.8506,-1.9121,-1.9708,-1.9708,-1.9708,-1.9708,-1.9708,-1.9708,-1.9528,-1.9076,-1.8207,-1.734,-1.6503,-1.5619,-1.4946,-1.4483,-1.36,-1.3133,-1.3133,-1.182,-1.0822,-1.0204,0.0,0.0,0.0,0.0,0.0,0.0,0.0,0.0,0.0,0.0,0.0,0.0,0.0,0.0,0.0,0.0,0.0,0.0,0.0,0.0,0.0,0.0,0.0,-1.5663,-1.6948,-1.7884,-1.7901,-1.9203,-2.0069,-2.0069,-2.0788,-2.1563,-2.2279,-2.3021,-2.3427,-2.3427,-2.4135,-2.4525,-2.4525,-2.5253,-2.5626,-2.5626,-2.6336,-2.6691,-2.6691,-2.6691,-2.6691,-2.6691,-2.6691,-2.6674,-2.6657,-2.6157,-2.5652,-2.5128,-2.4612,-2.4074,-2.3475,-2.2233,-2.1739,-2.1724,-2.1739,-2.1754,-2.1754,-2.1739,-2.1724,-2.1724,-2.171,-2.1695,-2.1695,-2.1695,-2.1695,-2.1695,-2.1695,-2.1231,-2.0718,-2.0718,-2.0228,-1.9738,-1.9738,-1.9723,-1.9708,-1.9708,-1.9708,-1.9708,-1.9708,-1.9708,-1.9708,-1.9708,-1.9708,-1.9708,-1.9708,-1.9708,0.0,-1.9708,-1.9708,-1.9708,-1.9708,-1.9708,-1.9708,-1.9708,-1.8461,-1.7699,-1.7667,-1.6458,-1.5769,-1.5739,-1.4483,-1.3797,-1.3797,-1.2508,-1.151,-1.0857,0.0,0.0,0.0,0.0,0.0,0.0,0.0,0.0,0.0,0.0,0.0,0.0,0.0,0.0,0.0,0.0,0.0,0.0,0.0,0.0,0.0,0.0,-1.7811,-1.7259,-1.8476,-1.9608,-2.0209,-2.1109,-2.1671,-2.1671,-2.2361,-2.2868,-2.3088,-2.378,-2.4203,-2.4203,-2.4898,-2.5304,-2.5304,-2.6015,-2.6404,-2.6404,-2.659,-2.6691,-2.6691,-2.6691,-2.6691,-2.6691,-2.6349,-2.6191,-2.6139,-2.5224,-2.4772,-2.4592,-2.4032,-2.373,-2.3565,-2.3206,-2.2802,-2.2478,-2.2921,-2.3071,-2.3011,-2.2583,-2.2433,-2.2343,-2.1859,-2.1695,-2.1695,-2.1695,-2.1695,-2.1695,-2.1695,-2.156,-2.1425,-2.1425,-2.0932,-2.0438,-2.0438,-2.0049,-1.9708,-1.9708,-1.9708,-1.9708,-1.9708,-1.9708,-1.9708,-1.9708,-1.9708,-1.9708,-1.9708,0.0,0.0,-1.9708,-1.9708,-1.9708,-1.9708,-1.9708,-1.9708,-1.9708,-1.8461,-1.7488,0.0,-1.5785,-1.4871,-1.4378,-1.4004,-1.3797,-1.3797,-1.2969,-1.243,0.0,0.0,0.0,0.0,0.0,0.0,0.0,0.0,0.0,0.0,0.0,0.0,0.0,0.0,0.0,0.0,0.0,0.0,0.0,0.0,0.0,0.0,-1.8601,-1.9807,-1.9693,-2.042,-2.113,-2.16,-2.204,-2.2415,-2.2733,-2.3139,-2.3528,-2.3848,-2.4541,-2.4965,-2.4965,-2.5659,-2.6065,-2.6065,-2.6471,-2.6691,-2.6691,-2.6691,-2.6691,-2.6691,-2.6691,-2.6691,-2.6691,-2.6419,-2.6297,0.0,-2.543,-2.4934,-2.4692,-2.4158,-2.3794,0.0,0.0,0.0,0.0,0.0,-2.3595,-2.355,-2.3212,-2.3092,-2.3017,-2.2622,-2.2503,-2.2503,-2.2503,-2.2503,-2.2503,-2.2503,-2.2308,-2.2134,-2.2134,-2.162,-2.1126,-2.1126,-2.0617,-2.0124,-2.0124,-1.9884,-1.9708,-1.9708,0.0,0.0,-1.9708,-1.9708,-1.9708,-1.9708,-1.9708,-1.9708,0.0,-1.9708,-1.9708,-1.9708,-1.9708,-1.9708,-1.9708,-1.8732,0.0,0.0,0.0,-1.5605,-1.4691,-1.4646,0.0,0.0,0.0,0.0,0.0,0.0,0.0,0.0,-1.3089,-1.325,0.0,0.0,0.0,0.0,0.0,0.0,0.0,0.0,0.0,0.0,0.0,0.0,0.0,0.0,0.0,0.0,-2.0327,-2.1546,-2.2212,-2.2296,-2.2296,-2.2296,-2.2364,-2.2682,-2.3342,-2.3545,-2.3932,-2.4575,-2.5304,-2.5711,-2.5711,0.0,0.0,0.0,0.0,-2.686,-2.6962,-2.6962,-2.6962,-2.6962,-2.686,-2.686,-2.6945,-2.6809,-2.6758,-2.6739,-2.6262,-2.57,-2.51,-2.4616,-2.4109,-2.3595,-2.3595,-2.3595,-2.3595,-2.3595,-2.3595,0.0,0.0,0.0,0.0,-2.3595,-2.3595,-2.3595,-2.3595,-2.3595,-2.3595,-2.3595,-2.3206,-2.2808,-2.2808,-2.2313,-2.1799,-2.1799,-2.1306,-2.0808,-2.0808,-2.0288,-1.9813,-1.9813,-1.9753,-1.9708,-1.9708,-1.9708,-1.9708,-1.9708,-1.9708,0.0,-1.9708,-1.9708,-1.9708,-1.9708,0.0,0.0,-1.9708,-1.9091,-1.8702,-1.8702,-1.8072,-1.719,-1.6068,-1.6009,-1.6009,-1.6009,-1.6009,-1.6563,-1.7713,-1.7713,-1.7743,-1.7743,-1.4752,-1.436,0.0,0.0,0.0,0.0,0.0,0.0,0.0,0.0,0.0,0.0,0.0,0.0,0.0,0.0,0.0,-1.9642,-2.1079,-2.2127,-2.2279,-2.2296,-2.2296,-2.2296,-2.2835,-2.3241,-2.3376,-2.4475,-2.5236,-2.5389,-2.6065,-2.6488,-2.6488,-2.6623,0.0,-2.757,-2.7587,-2.7909,-2.8553,-2.8553,-2.8553,-2.8553,0.0,0.0,-2.8518,-2.7499,-2.7071,-2.7143,-2.663,-2.5759,-2.4712,-2.4602,-2.4176,-2.3595,-2.3595,-2.3595,-2.3595,-2.3595,-2.3595,-2.3595,-2.3595,-2.3595,-2.3595,-2.3595,-2.3595,-2.3595,-2.3595,-2.3595,0.0,-2.3595,-2.352,-2.343,-2.343,-2.2972,-2.2508,-2.2508,-2.1979,-2.1515,-2.1515,-2.0976,-2.0494,-2.0494,-2.0064,-1.9708,-1.9708,-1.9708,-1.9708,-1.9708,-1.9708,-1.9708,-1.9708,-1.9708,-1.9708,-1.9708,-1.9708,-1.9708,-1.9708,-1.9091,-1.8702,-1.8702,-1.8072,-1.7594,-1.734,-1.7325,-1.7325,-1.7325,-1.7325,-1.7459,-1.7713,-1.7713,-1.7983,-1.8493,-1.7295,-1.7251,0.0,0.0,0.0,0.0,0.0,0.0,0.0,0.0,0.0,0.0,0.0,-1.6498,-1.7597,0.0,-2.0281,-2.1028,-2.1806,-2.2296,-2.2296,-2.2296,-2.2296,-2.2296,-2.2953,-2.3528,-2.3915,-2.4949,-2.5761,-2.6116,-2.6488,-2.686,-2.7232,-2.7249,-2.7604,-2.8383,-2.8399,-2.8586,-2.8993,-2.8993,-2.8993,-2.8993,-2.8586,-2.8602,-2.8993,-2.835,-2.7921,-2.7681,-2.7127,-2.6358,-2.5477,-2.5198,-2.4694,-2.4096,-2.4096,-2.3909,-2.3595,-2.3595,-2.3595,-2.3595,-2.3595,-2.3595,-2.3595,-2.3595,-2.3595,-2.3595,-2.3595,-2.3595,-2.3595,-2.3595,-2.3595,-2.3595,-2.3595,-2.337,-2.3152,-2.3152,-2.2673,-2.2209,-2.2209,-2.141,-2.0703,-2.0703,-2.0154,-1.9708,-1.9708,-1.9708,-1.9708,-1.9708,-1.9708,-1.9708,-1.9708,-1.9708,-1.9708,-1.9708,-1.9708,-1.9708,-1.9708,-1.9393,-1.9196,-1.9196,-1.8897,-1.8553,-1.8207,-1.8192,-1.8192,-1.8192,-1.8192,-1.8373,-1.8702,-1.8702,-1.8867,-1.9181,-1.8867,-1.8882,0.0,0.0,0.0,0.0,0.0,0.0,0.0,0.0,-1.5552,-1.7044,-1.7929,-1.8814,-2.0014,-2.0889,-2.1613,-2.2195,-2.2327,-2.2382,-2.2485,-2.2428,-2.2399,-2.2499,-2.3156,-2.3848,-2.444,-2.5304,-2.6065,-2.6657,-2.6691,-2.7012,-2.7756,-2.7807,-2.8229,-2.9179,-2.9213,-2.9281,-2.9433,-2.9433,-2.9433,-2.9433,-2.9281,-2.9297,-2.9416,-2.9281,-2.8948,-2.8467,-2.7676,-2.6989,-2.6397,-2.5831,-2.5277,-2.4799,-2.4799,-2.438,-2.3789,-2.3655,-2.3595,-2.3595,-2.3595,-2.3595,-2.3595,-2.3595,-2.3595,-2.3595,-2.3595,-2.3595,-2.3595,-2.3595,-2.3595,-2.3595,-2.3595,-2.3595,-2.3595,-2.3595,-2.3242,-2.2882,-2.2882,-2.1919,-2.1096,-2.1096,-2.0438,-1.9902,-1.9902,-1.9798,-1.9708,-1.9708,-1.9708,-1.9708,-1.9708,-1.9708,-1.9708,-1.9708,-1.9708,-1.9708,-1.9708,-1.9708,-1.9708,-1.9708,-1.9708,-1.9468,-1.8912,-1.8897,-1.8897,-1.8897,-1.8897,-1.9151,-1.9708,-1.9708,-1.9708,-1.9708,-1.9708,-1.9708,-1.2163,-1.2651,-1.3591,-1.4902,-1.4858,-1.5349,0.0,0.0,-1.785,-1.9338,-2.0264,-2.0869,-2.1038,-2.1667,-2.2195,-2.2279,-2.2448,-2.274,-2.3216,-2.2865,-2.274,-2.3213,-2.3932,-2.4406,-2.4491,-2.576,-2.6607,-2.6691,-2.6691,-2.7012,-2.7756,-2.7807,-2.8466,-2.9939,-2.9989,-3.0294,-3.0937,-3.0937,-3.0937,-3.0937,-3.0294,-3.0328,-3.092,-3.0277,-3.0004,-2.995,-2.8231,-2.7134,-2.6534,-2.5878,-2.557,-2.5495,-2.5495,-2.5068,-2.441,-2.3819,-2.3595,-2.3595,-2.3595,-2.3595,-2.3595,-2.3595,-2.3595,-2.3595,-2.3595,-2.3595,-2.3595,-2.3595,-2.3595,-2.3595,-2.3595,-2.3595,-2.3595,-2.3595,-2.355,-2.349,-2.349,-2.2972,-2.2478,-2.2478,-2.1455,-2.0583,-2.0583,-2.0094,-1.9708,-1.9708,-1.9708,-1.9708,-1.9708,-1.9708,-1.9708,-1.9708,-1.9708,-1.9708,-1.9708,-1.9708,-1.9708,-1.9708,-1.9708,-1.9678,-1.9588,-1.9588,-1.9588,-1.9588,-1.9588,-1.9633,-1.9708,-1.9708,-1.9708,-1.9708,-1.9708,-1.9708,-1.4577,-1.5402,0.0,0.0,-1.7642,-1.8691,-1.9761,-1.9879,-2.0078,-2.113,-2.1617,-2.1837,-2.1837,-2.2076,-2.2329,0.0,-2.2797,-2.3193,-2.3532,-2.3279,-2.315,-2.3378,-2.4051,-2.4491,-2.4491,-2.5828,-2.6691,-2.6691,-2.7097,-2.7689,-2.8467,-2.8924,-2.9616,-3.0717,-3.0734,-3.0886,-3.119,-3.119,-3.119,-3.119,-3.0886,-3.0903,-3.119,-3.0886,-3.0396,-2.9723,-2.8582,-2.7736,-2.7165,-2.6881,-2.6527,-2.6183,-2.6183,-2.5516,-2.4575,-2.4291,-2.3939,-2.3595,-2.3595,-2.3595,-2.3595,-2.3595,-2.3595,-2.3595,-2.3595,-2.3595,-2.3595,-2.3595,-2.3595,-2.3595,-2.3595,-2.3595,-2.3595,-2.3595,-2.3595,-2.3595,-2.3595,-2.3137,-2.2703,-2.2703,-2.1919,-2.1171,-2.0763,-2.0483,-2.0154,-1.9768,-1.9708,-1.9708,-1.9708,-1.9708,-1.9708,-1.9708,-1.9708,-1.9708,-1.9708,-1.9708,-1.9708,-1.9708,-1.9708,-1.9708,-1.9708,-1.9708,-1.9708,-1.9708,-1.9708,-1.9708,-1.9708,-1.9708,-1.9708,-1.9708,-1.9708,-1.9708,-1.599,0.0,0.0,-1.8307,-1.9807,-2.1106,-2.0724,-2.1092,-2.1651,-2.2178,-2.2296,-2.2296,-2.2296,-2.2194,-2.2201,-2.2475,-2.2969,-2.3449,-2.3867,-2.366,-2.3612,-2.397,-2.4305,-2.4575,-2.4778,-2.5963,-2.6691,-2.6691,-2.7367,-2.8145,-2.8959,-2.9702,-3.0446,-3.1173,-3.119,-3.119,-3.119,-3.119,-3.119,-3.119,-3.119,-3.119,-3.119,-3.119,-3.0638,-2.9607,-2.8996,-2.8415,-2.7835,-2.7675,-2.7315,-2.6881,-2.6881,-2.6168,-2.5143,-2.5143,-2.4507,-2.3595,-2.3595,-2.3595,-2.3595,-2.3595,-2.3595,-2.3595,-2.3595,-2.3595,-2.3595,-2.3595,-2.3595,-2.3595,-2.3595,-2.3595,-2.3595,-2.3595,-2.3595,-2.3595,-2.3595,-2.3272,-2.2957,-2.2957,-2.2433,-2.1814,-2.1335,-2.1111,-2.0752,-2.0079,-1.9974,-1.9899,-1.9723,-1.9708,-1.9708,-1.9708,-1.9708,-1.9708,-1.9708,-1.9708,-1.9708,-1.9708,-1.9708,-1.9708,-1.9708,-1.9708,-1.9708,-1.9708,-1.9708,-1.9708,-1.9708,-1.9708,-1.9708,-1.9708,-1.9708,-1.9708,0.0,0.0,-1.8138,-1.9579,-2.0568,-2.1376,-2.206,-2.2245,-2.2262,-2.2296,-2.2296,-2.2296,-2.2296,-2.1928,-2.1764,-2.2242,-2.2752,-2.3434,-2.435,-2.4014,-2.4149,-2.5375,-2.4915,-2.4778,0.0,-2.6251,-2.6691,-2.6691,-2.7367,-2.8145,-2.8959,-2.9702,-3.0446,-3.1173,-3.119,-3.119,-3.119,-3.119,-3.119,-3.119,-3.119,-3.119,-3.119,-3.119,-3.0858,-3.023,-2.9629,-2.9019,-2.8431,-2.7835,-2.7585,-2.757,-2.757,-2.7151,-2.6527,-2.6527,-2.5285,-2.3595,-2.3595,-2.3595,-2.3595,-2.3595,-2.3595,-2.3595,-2.3595,-2.3595,-2.3595,-2.3595,-2.3595,-2.3595,-2.3595,-2.3595,-2.3595,-2.3595,-2.3595,-2.3595,-2.3595,-2.3595,-2.3565,-2.3565,-2.3092,-2.2658,-2.2643,-2.2104,-2.144,-2.0763,-2.0658,-2.0438,-1.9765,-1.9708,-1.9708,-1.9708,-1.9708,-1.9708,-1.9708,-1.9708,-1.9708,-1.9708,-1.9708,-1.9708,-1.9708,-1.9708,-1.9708,-1.9708,-1.9708,-1.9708,-1.9708,-1.9708,-1.9708,-1.9708,-1.9708,-1.9708,0.0,0.0,-1.9507,-2.0534,-2.1363,-2.1989,-2.2229,-2.2296,-2.2296,-2.2296,-2.2296,-2.2296,-2.2296,-2.218,-2.2153,-2.2456,-2.3368,-2.4182,-2.4647,-2.4863,-2.511,-2.5542,-2.5389,0.0,0.0,0.0,0.0,-2.6691,-2.7875,-2.8704,-2.8993,-3.0159,-3.0937,-3.119,-3.119,-3.119,-3.119,-3.119,-3.119,-3.119,-3.119,-3.119,-3.119,-3.119,-3.0858,-3.0272,-2.9651,-2.9042,-2.8439,-2.786,-2.76,-2.76,-2.76,-2.7195,-2.6587,-2.6587,-2.5615,-2.4261,-2.4261,-2.3962,-2.3595,-2.3595,-2.3595,-2.3595,-2.3595,-2.3595,-2.3595,-2.3595,-2.3595,-2.3595,-2.3595,-2.3595,-2.3595,-2.3595,-2.3595,-2.3595,-2.3595,-2.3595,-2.3595,-2.3595,-2.343,-2.3182,-2.2763,-2.2508,-2.1979,-2.0872,-2.0318,-1.9944,-1.9738,-1.9708,-1.9708,-1.9708,-1.9708,-1.9708,-1.9708,-1.9708,-1.9708,-1.9708,-1.9708,-1.9708,-1.9708,-1.9708,-1.9708,-1.9708,-1.9708,-1.9708,-1.9708,-1.9708,-1.9708,-1.9708,-1.9708,-1.9947,-1.8758,-1.9642,-2.0268,-2.1329,-2.1955,-2.2296,-2.2296,-2.2296,-2.2243,-2.1955,-2.1904,-2.182,-2.1536,-2.1359,-2.1437,-2.2008,-2.3093,-2.4058,-2.4614,-2.5211,-2.5795,-2.6319,-2.615,0.0,0.0,0.0,0.0,-2.7114,-2.8518,-2.9381,-2.9381,-3.0531,-3.119,-3.119,-3.119,-3.119,-3.119,-3.119,-3.119,-3.119,-3.119,-3.119,-3.119,-3.119,-3.0995,-3.058,-2.9978,-2.9384,-2.8779,-2.8174,-2.7785,-2.76,-2.76,-2.7345,-2.6971,-2.6971,-2.6258,-2.5277,-2.5038,-2.435,-2.364,-2.3879,-2.3804,-2.3595,-2.3595,-2.3595,-2.3595,-2.3595,-2.3595,-2.3595,-2.3595,-2.3595,-2.3595,-2.3595,-2.3595,-2.3595,-2.3595,-2.3595,-2.3595,-2.3595,-2.3595,-2.3475,-2.3092,-2.2838,-2.2418,-2.1545,-2.0647,-1.9959,-1.9738,-1.9708,-1.9708,-1.9708,-1.9708,-1.9708,-1.9708,-1.9708,-1.9708,-1.9708,-1.9708,-1.9708,-1.9708,-1.9708,-1.9708,-1.9708,-1.9708,-1.9708,-1.9708,-1.9708,-1.9708,-1.9708,-1.9962,-2.0288,-1.9676,-2.0086,-2.0475,-2.1924,-2.2296,-2.2296,-2.2296,-2.2262,-2.204,-2.1292,-2.1106,-2.0852,-2.0048,0.0,-1.981,-2.0951,-2.2059,-2.3184,-2.4343,-2.5203,-2.6218,0.0,0.0,0.0,0.0,0.0,0.0,-2.7976,0.0,-3.0108,-3.0108,-3.0801,-3.119,-3.119,-3.119,-3.119,-3.119,-3.119,-3.119,-3.119,-3.119,-3.119,-3.119,-3.119,-3.119,-3.1171,-3.0559,-2.9995,-2.9406,-2.8803,-2.8189,-2.765,-2.765,-2.7625,-2.76,-2.76,-2.718,-2.6497,-2.5914,-2.4822,-2.3804,-2.4395,-2.4156,-2.364,-2.361,-2.3595,-2.3595,-2.3595,-2.3595,-2.3595,-2.3595,-2.3595,-2.3595,-2.3595,-2.3595,-2.3595,-2.3595,-2.3595,-2.3595,-2.3595,-2.3595,-2.3595,-2.3595,-2.3107,-2.2703,-2.2703,-2.159,-2.0513,-1.9842,-1.9723,-1.9708,-1.9708,-1.9708,-1.9708,-1.9708,-1.9708,-1.9708,-1.9708,-1.9708,-1.9708,-1.9708,-1.9708,-1.9708,-1.9708,-1.9708,-1.9708,-1.9708,-1.9708,-1.9723,-1.9768,-2.0408,-2.0733,-2.0696,-2.1295,-2.1806,-2.2195,-2.2296,-2.2296,-2.2296,-2.187,-2.1262,-2.0471,-1.9875,-1.9249,-1.8493,0.0,0.0,-2.0255,-2.2411,0.0,-2.4458,-2.6082,0.0,-2.7756,0.0,-2.857,-2.8959,-2.9499,0.0,0.0,-2.9888,-3.0108,-3.0108,-3.0801,-3.119,-3.119,-3.119,-3.119,-3.119,-3.119,-3.119,-3.119,-3.119,-3.119,-3.119,-3.119,-3.119,-3.1171,-3.0559,-3.0208,-3.0021,-2.9429,-2.881,-2.8286,-2.8286,-2.7993,-2.76,-2.76,-2.718,-2.6632,-2.6986,-2.6198,-2.5046,-2.4709,-2.4485,-2.4246,-2.3759,-2.3595,-2.3595,-2.3595,-2.3595,-2.3595,-2.3595,-2.3595,-2.3595,-2.3595,-2.3595,-2.3595,-2.3595,-2.3595,-2.3595,-2.3595,-2.3595,-2.3595,-2.3595,-2.3107,-2.2703,-2.2703,-2.1979,-2.1201,-2.0543,-2.0004,-1.9708,-1.9708,-1.9708,-1.9708,-1.9708,-1.9708,-1.9708,-1.9708,-1.9708,-1.9708,-1.9708,-1.9708,-1.9708,-1.9708,-1.9708,-1.9708,-1.9708,-1.9708,-1.9944,-2.0453,-2.0613,-2.1246,-2.1572,-2.1989,-2.2296,-2.2296,-2.2296,-2.211,-2.1451,-2.0961,-2.0281,-1.8843,-1.8217,0.0,-1.6965,0.0,0.0,0.0,0.0,0.0,-2.4457,-2.6404,-2.7925,0.0,-2.9008,0.0,-2.9941,-3.0345,-3.0581,0.0,-3.0581,-3.0581,-3.0581,-3.097,-3.119,-3.119,-3.119,-3.119,-3.119,-3.119,-3.119,-3.119,-3.119,-3.119,-3.119,-3.119,-3.119,-3.1171,0.0,-3.0539,-3.0272,-2.9935,-2.9451,-2.8896,-2.8896,-2.8535,-2.7993,-2.7993,-2.7593,-2.7091,-2.7465,-2.7121,-2.6363,-2.5704,-2.5277,-2.4963,-2.4597,-2.4283,-2.4044,-2.4044,-2.3834,-2.3595,-2.3595,-2.3595,-2.3595,-2.3595,-2.3595,-2.3595,-2.3595,-2.3595,-2.3595,-2.3595,-2.3595,-2.3595,-2.3595,-2.331,-2.3092,-2.3092,-2.2553,-2.1994,-2.162,-2.0737,-2.0139,-2.0139,-1.9887,-1.9708,-1.9708,-1.9708,-1.9708,-1.9708,-1.9708,-1.9708,-1.9708,-1.9708,-1.9708,-1.9708,-1.9708,-1.9708,-1.9708,-1.9989,-2.0333,-2.0703,-2.1306,-2.1984,-2.2218,-2.2296,-2.2296,-2.2296,-2.2296,-2.1924,-2.0487,-2.0014,-1.9253,-1.7145,0.0,-1.618,-1.5453,-1.6593,-1.7896,-1.8623,0.0,-2.3545,-2.4372,-2.6404,-2.8094,-2.8908,-2.9736,-3.0497,-3.114,-3.119,-3.119,-3.119,-3.119,-3.119,-3.119,-3.119,-3.119,-3.119,-3.119,-3.119,-3.119,-3.119,-3.119,-3.119,-3.119,-3.119,-3.119,-3.119,-3.119,-3.119,0.0,0.0,-3.0414,-3.0414,-3.0043,-2.9518,-2.9429,-2.9019,-2.8487,-2.8415,-2.8042,-2.76,-2.76,-2.76,-2.748,-2.6821,-2.6213,-2.5719,-2.563,-2.5128,-2.4605,-2.4605,-2.4111,-2.3595,-2.3595,-2.3595,-2.3595,-2.3595,-2.3595,-2.3595,-2.3595,-2.3595,-2.3595,-2.3595,-2.3595,-2.3595,-2.3595,-2.3595,-2.3595,-2.3595,-2.3152,-2.2823,-2.2823,-2.1665,-2.0793,-2.0703,-2.0183,-1.9813,-1.9708,-1.9708,-1.9708,-1.9708,-1.9708,-1.9708,-1.9708,-1.9708,-1.9708,-1.9708,-1.9708,-1.9708,-1.9708,-2.0378,-2.0748,-2.0853,-2.2119,-2.2748,-2.2422,-2.2296,-2.2296,-2.2296,-2.2296,-2.206,-2.1177,-2.001,0.0,0.0,-1.5731,-1.4665,-1.3912,-1.5487,-1.7128,-1.7879,0.0,0.0,0.0,0.0,-2.8094,0.0,0.0,0.0,0.0,0.0,0.0,0.0,0.0,0.0,-3.119,-3.119,-3.119,-3.119,-3.119,-3.119,-3.119,-3.119,-3.119,-3.119,-3.119,-3.119,-3.119,-3.119,-3.119,-3.119,0.0,0.0,-3.1035,-3.1035,-3.0679,-3.0102,-2.9585,-2.9019,-2.8439,-2.7959,-2.7685,-2.76,-2.76,-2.76,-2.748,-2.6821,-2.6512,-2.6318,-2.5779,-2.5128,-2.4605,-2.4605,-2.4111,-2.3595,-2.3595,-2.3595,-2.3595,-2.3595,-2.3595,-2.3595,-2.3595,-2.3595,-2.3595,-2.3595,-2.3595,-2.3595,-2.3595,-2.3595,-2.3595,-2.3595,-2.3505,-2.343,-2.343,-2.2323,-2.1321,-2.0763,-2.0598,-2.0303,-1.9753,-1.9708,-1.9708,-1.9708,-1.9708,-1.9708,-1.9708,-1.9708,-1.9708,-1.9708,-1.9708,-1.9708,-1.9708,-2.0378,-2.0972,-2.1545,-2.2343,-2.2972,-2.247,-2.2296,-2.2296,-2.2296,-2.2296,-2.1803,-1.9875,0.0,0.0,0.0,-1.442,-1.3828,-1.3464,0.0,0.0,0.0,0.0,0.0,0.0,0.0,0.0,0.0,0.0,0.0,0.0,0.0,0.0,0.0,0.0,0.0,0.0,-3.119,-3.119,-3.119,-3.119,-3.119,-3.119,-3.119,-3.119,-3.119,-3.119,-3.119,-3.119,-3.119,-3.119,-3.119,0.0,0.0,-3.119,-3.119,-3.1035,-3.0699,-3.0086,-2.9496,-2.8896,-2.8295,-2.7885,-2.76,-2.76,-2.76,-2.754,-2.7225,-2.7121,-2.7061,-2.6746,-2.5929,-2.5113,-2.5113,-2.4403,-2.3595,-2.3595,-2.3595,-2.3595,-2.3595,-2.3595,-2.3595,-2.3595,-2.3595,-2.3595,-2.3595,-2.3837,-2.3943,-2.3659,-2.3837,-2.3921,-2.3638,-2.3595,-2.3595,-2.3595,-2.3071,-2.2443,-2.1799,-2.0797,-2.0183,-2.0228,-1.9884,-1.9708,-1.9708,-2.0019,-2.0228,-2.0228,-2.0557,-2.0741,-2.0741,-2.0741,-2.0741,-2.0737,-2.141,-2.1924,-2.2239,-2.2862,-2.331,-2.2531,-2.2349,-2.2296,-2.2296,-2.2296,-2.1552,-1.8679,-1.7901,0.0,0.0,-1.3515,-1.3396,-1.3396,0.0,-1.5663,0.0,0.0,0.0,0.0,0.0,0.0,0.0,0.0,0.0,0.0,0.0,0.0,0.0,0.0,0.0,0.0,-3.119,-3.119,-3.119,-3.119,-3.119,-3.119,-3.119,-3.119,-3.119,-3.119,-3.119,-3.119,-3.119,-3.119,-3.119,0.0,0.0,0.0,-3.119,-3.119,-3.1151,-3.0539,-3.0016,-2.9518,-2.8919,-2.8391,-2.7968,-2.7835,-2.7785,-2.776,-2.7635,-2.76,-2.76,-2.76,-2.6647,-2.5615,-2.5615,-2.4642,-2.3595,-2.3595,-2.3595,-2.3638,-2.373,-2.3773,-2.3794,-2.3921,-2.3927,-2.3927,-2.3927,-2.4287,-2.443,-2.4012,-2.4287,-2.443,-2.4012,-2.3927,-2.39,-2.3794,-2.3652,-2.3399,-2.2927,-2.137,-2.0441,-2.0673,-2.0348,-2.0007,-1.9723,-2.0468,-2.0838,-2.0703,-2.135,-2.1695,-2.1695,-2.1695,-2.1695,-2.1695,-2.2373,-2.2703,-2.2703,-2.331,-2.3595,-2.2759,-2.249,-2.2296,-2.2296,-2.2296,-2.1688,-1.9333,0.0,0.0,-1.4875,-1.3879,-1.3396,-1.3396,-1.4056,-1.5061,0.0,0.0,-1.9807,0.0,0.0,0.0,0.0,0.0,0.0,0.0,0.0,0.0,0.0,0.0,0.0,0.0,-3.119,-3.119,-3.119,-3.119,-3.119,-3.119,-3.119,-3.119,-3.119,-3.119,-3.119,-3.119,-3.119,-3.119,-3.119,0.0,0.0,0.0,-3.119,-3.119,-3.1151,-3.0539,-3.0272,-3.0145,-2.954,-2.9271,-2.9157,-2.8606,-2.8415,-2.8334,-2.7785,-2.76,-2.76,-2.76,-2.6647,-2.5615,-2.5615,-2.4642,-2.3595,-2.3595,-2.3595,-2.3709,-2.4204,-2.4328,-2.4471,-2.495,-2.5051,-2.5051,-2.5051,-2.5105,-2.5125,-2.5067,-2.5105,-2.5125,-2.5067,-2.5051,-2.4875,-2.4389,-2.3787,-2.3432,-2.3509,-2.2868,-2.1969,-2.0793,-2.1201,-2.1011,-1.9783,-2.0887,-2.1335,-2.0718,-2.135,-2.1695,-2.1695,-2.1695,-2.1695,-2.1695,-2.2373,-2.2703,-2.2703,-2.331,-2.3595,-2.246,-2.2374,-2.2296,-2.2296,-2.2296,-2.1586,-1.886,0.0,-1.7039,-1.4394,-1.3591,-1.3396,-1.3396,-1.3642,-1.4319,-1.5808,-1.6536,-1.7845,-2.0538,0.0,0.0,0.0,0.0,0.0,0.0,0.0,0.0,0.0,0.0,0.0,0.0,0.0,-3.119,-3.119,-3.119,-3.119,-3.119,-3.119,-3.119,-3.119,-3.119,-3.119,-3.119,-3.119,-3.119,0.0,0.0,0.0,0.0,-3.119,-3.119,-3.1151,-3.0539,-3.0293,-3.023,-2.9629,-2.9406,-2.9361,-2.9127,-2.9042,-2.8996,-2.8764,-2.867,-2.8567,-2.782,-2.6647,-2.567,-2.5986,-2.5122,-2.4158,-2.4491,-2.4572,-2.4632,-2.4831,-2.4875,-2.495,-2.5147,-2.5202,-2.5202,-2.5202,-2.5449,-2.5577,-2.5259,-2.5468,-2.5577,-2.5259,-2.5202,-2.5125,-2.491,-2.4638,-2.4496,-2.4561,-2.3082,-2.2059,-2.1904,-2.1769,-2.147,-2.0951,-2.1789,-2.2194,-2.1904,-2.2503,-2.2832,-2.2832,-2.2832,-2.2983,-2.3315,-2.3275,-2.3411,-2.3728,-2.3646,-2.3595,-2.2,-2.2194,-2.2296,-2.2296,-2.2127,-2.1245,0.0,-1.7642,-1.6695,-1.3963,-1.3396,-1.3396,-1.3396,-1.3396,-1.3811,-1.5071,-1.5629,-1.6796,-1.9321,-2.1383,0.0,0.0,0.0,0.0,0.0,0.0,0.0,0.0,0.0,0.0,0.0,0.0,-3.119,-3.119,-3.119,-3.119,-3.119,-3.119,-3.119,-3.119,-3.119,-3.119,-3.119,-3.119,-3.119,0.0,0.0,0.0,0.0,-3.119,-3.119,-3.1151,-3.072,-3.0576,-3.0518,-3.0102,-2.9935,-2.9908,-2.9717,-2.9673,-2.9629,-2.9451,-2.9406,-2.9248,-2.84,-2.7338,-2.6466,-2.6623,-2.5691,-2.4732,-2.5089,-2.5202,-2.524,-2.5392,-2.543,-2.5468,-2.5617,-2.5654,-2.5654,-2.5654,-2.5944,-2.6086,-2.5709,-2.5944,-2.6086,-2.5691,-2.5654,-2.5598,-2.5449,-2.543,-2.5373,-2.5221,-2.3729,-2.286,-2.3116,-2.2887,-2.2507,-2.1935,-2.2723,-2.3034,-2.2703,-2.3266,-2.3595,-2.3595,-2.3595,-2.3794,-2.4158,-2.3773,-2.3794,-2.4158,-2.3773,-2.3595,-2.142,-2.1952,-2.2296,-2.2296,-2.1752,-2.0615,0.0,-1.7236,-1.6089,-1.3853,-1.3396,-1.3396,-1.3396,-1.3396,-1.3642,-1.4385,-1.574,-1.7213,-1.8702,-2.1498,0.0,0.0,0.0,0.0,0.0,0.0,0.0,0.0,0.0,0.0,0.0,0.0,-3.119,-3.119,-3.119,-3.119,-3.119,-3.119,-3.119,-3.119,-3.119,-3.119,-3.119,-3.119,0.0,0.0,0.0,0.0,0.0,-3.119,-3.119,-3.119,-3.119,-3.119,-3.119,-3.119,-3.1171,-3.1112,-3.0497,-3.0293,-3.0187,-2.9585,-2.9406,-2.9406,-2.9384,-2.8916,-2.8223,-2.7486,-2.627,-2.5202,-2.5202,-2.5202,-2.5335,-2.587,-2.5979,-2.612,-2.6573,-2.6691,-2.6691,-2.6691,-2.6691,-2.6691,-2.6691,-2.6691,-2.6691,-2.6691,-2.6691,-2.6521,-2.6049,-2.5979,-2.5797,-2.5259,-2.5186,-2.4897,-2.4246,-2.4785,-2.4369,-2.2512,-2.365,-2.3887,-2.2739,-2.3266,-2.3595,-2.3595,-2.3595,-2.3595,-2.3595,-2.3595,-2.3595,-2.3595,-2.3595,-2.3595,-1.8842,-1.9486,-1.9858,-1.9338,-1.9063,-1.842,-1.6695,-1.612,-1.547,-1.3752,-1.3396,-1.3396,-1.3396,-1.3396,-1.3972,-1.5723,-1.64,0.0,0.0,0.0,0.0,0.0,0.0,0.0,0.0,0.0,0.0,0.0,0.0,0.0,0.0,0.0,0.0,-3.119,-3.119,-3.119,-3.119,-3.119,-3.119,-3.119,-3.119,-3.119,-3.119,0.0,0.0,0.0,0.0,0.0,0.0,-3.119,-3.119,-3.119,-3.119,-3.119,-3.119,-3.119,-3.119,-3.1171,-3.0975,-3.0918,-3.0878,-3.0699,-3.0638,-3.0638,-3.0638,-2.9594,-2.8222,-2.7391,-2.6704,-2.6228,-2.6228,-2.6228,-2.6263,-2.6436,-2.647,-2.6505,-2.6674,-2.6691,-2.6691,-2.6691,-2.6691,-2.6691,-2.6691,-2.6691,-2.6691,-2.6691,-2.6691,-2.6657,-2.6504,-2.647,-2.6419,-2.6229,-2.6228,-2.5863,-2.4957,-2.5093,-2.4952,-2.4354,-2.4715,-2.4796,-2.4418,-2.4602,-2.4692,-2.4692,-2.4328,-2.4511,-2.524,-2.4511,-2.4328,-2.4692,-2.4692,-2.4692,-1.6577,-1.771,-1.8369,-1.7901,-1.758,-1.7067,-1.5866,-1.5375,-1.4851,-1.365,-1.3396,-1.3396,-1.3396,-1.3396,-1.3929,-1.5605,-1.6333,0.0,0.0,0.0,0.0,0.0,0.0,0.0,0.0,0.0,0.0,0.0,0.0,0.0,0.0,0.0,0.0,-3.119,-3.119,-3.119,-3.119,-3.119,-3.119,-3.119,-3.119,-3.119,-3.119,0.0,0.0,0.0,0.0,0.0,0.0,-3.119,-3.119,-3.119,-3.119,-3.119,-3.119,-3.119,-3.119,-3.119,-3.119,-3.119,-3.119,-3.119,-3.119,-3.119,-3.119,-3.0199,-2.8874,-2.8052,-2.7477,-2.7046,-2.6776,-2.6691,-2.6691,-2.6691,-2.6691,-2.6691,-2.6691,-2.6691,-2.6691,-2.6691,-2.6691,-2.6691,-2.6691,-2.6691,-2.6691,-2.6691,-2.6691,-2.6691,-2.6691,-2.6691,-2.6691,-2.6691,-2.6691,-2.6453,-2.5819,-2.5764,-2.5691,-2.5505,-2.5486,-2.5411,-2.5221,-2.5202,-2.5202,-2.5202,-2.4855,-2.5031,-2.5689,-2.5028,-2.4855,-2.5202,-2.5202,-2.5202,0.0,-1.6289,-1.7394,-1.7343,-1.6813,-1.614,-1.552,-1.4851,0.0,-1.3523,-1.3396,-1.343,-1.3549,-1.3515,-1.3794,-1.474,0.0,0.0,0.0,0.0,0.0,0.0,0.0,0.0,0.0,0.0,0.0,0.0,0.0,0.0,0.0,0.0,0.0,0.0,-3.119,-3.119,-3.119,-3.119,-3.119,-3.119,-3.119,-3.119,-3.119,0.0,0.0,0.0,0.0,0.0,0.0,-3.119,-3.119,-3.119,-3.119,-3.119,-3.119,-3.119,-3.119,-3.119,-3.119,-3.119,-3.119,-3.119,-3.119,-3.119,-3.119,-3.0649,-2.9888,-2.9196,-2.8383,-2.7553,-2.6877,-2.6691,-2.6691,-2.6691,-2.6691,-2.6691,-2.6691,-2.6691,-2.6691,-2.6691,-2.6691,-2.6691,-2.6691,-2.6691,-2.6691,-2.6691,-2.6691,-2.6691,-2.6691,-2.6691,-2.6691,-2.6691,-2.6691,-2.6691,-2.6691,-2.6691,-2.6505,-2.6085,-2.6049,-2.5834,-2.5335,-2.5316,-2.5316,-2.5316,-2.5316,-2.5297,-2.5259,-2.5297,-2.5316,-2.5316,-2.5316,-2.5316,-1.1123,0.0,-1.3447,-1.2821,-1.2534,-1.2525,0.0,-1.294,-1.2923,-1.3328,-1.3396,-1.3743,-1.4877,-1.4614,-1.5213,0.0,0.0,0.0,0.0,0.0,0.0,0.0,0.0,0.0,0.0,0.0,0.0,0.0,0.0,0.0,0.0,0.0,0.0,0.0,-3.119,-3.119,-3.119,-3.119,-3.119,-3.119,-3.119,-3.119,0.0,0.0,0.0,0.0,0.0,0.0,0.0,-3.119,-3.119,-3.119,-3.119,-3.119,-3.119,-3.119,-3.119,-3.119,-3.119,-3.119,-3.119,-3.119,-3.119,-3.119,-3.119,-3.0277,-2.923,-2.9044,-2.8011,-2.6911,-2.6742,-2.6691,-2.6691,-2.6691,-2.6691,-2.6691,-2.6691,-2.6691,-2.6691,-2.6691,-2.6691,-2.6691,-2.6691,-2.6691,-2.6691,-2.6691,-2.6691,-2.6691,-2.6691,-2.6691,-2.6691,-2.6691,-2.6691,-2.6691,-2.6691,-2.6691,-2.6657,-2.6556,-2.6539,-2.647,-2.635,-2.635,-2.635,-2.635,-2.635,-2.6175,-2.5815,-2.6175,-2.635,-2.635,-2.635,-2.635,-0.9489,-1.1367,-1.3202,-1.277,-1.2906,-1.3278,-1.3718,-1.3286,-1.2914,-1.3328,0.0,-1.3743,-1.4885,-1.5054,0.0,0.0,0.0,0.0,0.0,0.0,0.0,0.0,0.0,0.0,0.0,0.0,0.0,0.0,0.0,0.0,0.0,0.0,0.0,0.0,0.0,-3.119,-3.119,-3.119,-3.119,-3.119,-3.119,-3.119,0.0,0.0,0.0,0.0,0.0,0.0,-3.119,-3.119,-3.119,-3.119,-3.119,-3.119,-3.119,-3.119,-3.119,-3.119,-3.119,-3.119,-3.119,-3.119,-3.119,-3.119,-3.119,-3.0178,-2.8993,-2.8993,-2.8129,-2.7131,-2.6793,-2.6691,-2.6691,-2.6691,-2.6691,-2.6691,-2.6691,-2.6691,-2.6691,-2.6691,-2.6691,-2.6691,-2.6691,-2.6691,-2.6691,-2.6691,-2.6691,-2.6691,-2.6691,-2.6691,-2.6691,-2.6691,-2.6691,-2.6691,-2.6691,-2.6691,-2.6691,-2.6691,-2.6691,-2.6691,-2.6691,-2.6691,-2.6691,-2.6691,-2.6691,-2.6573,-2.6332,-2.659,-2.6691,-2.6691,-2.6691,-2.6691,-0.9315,-1.1992,-1.4554,-1.4098,-1.4706,-1.5426,-1.5426,0.0,0.0,0.0,0.0,0.0,-1.4994,-1.5595,0.0,0.0,0.0,0.0,0.0,0.0,0.0,0.0,0.0,0.0,0.0,0.0,0.0,0.0,0.0,0.0,0.0,0.0,0.0,0.0,0.0,0.0,-3.119,-3.119,-3.119,-3.119,-3.119,-3.119,-3.119,0.0,0.0,0.0,0.0,0.0,-3.119,-3.119,-3.119,-3.119,-3.119,-3.119,-3.119,-3.119,-3.119,-3.119,-3.119,-3.119,-3.119,-3.119,-3.119,-3.119,-3.119,-3.0178,-2.8993,-2.8993,-2.8332,-2.7486,-2.686,-2.6691,-2.6691,-2.6691,-2.6691,-2.6691,-2.6691,-2.6691,-2.6691,-2.6691,-2.6691,-2.6691,-2.6691,-2.6691,-2.6691,-2.6691,-2.6691,-2.6691,-2.6691,-2.6691,-2.6691,-2.6691,-2.6691,-2.6691,-2.6691,-2.6691,-2.6691,-2.6691,-2.6691,-2.6691,-2.6691,-2.6691,-2.6691,-2.6691,-2.6691,-2.6691,-2.6691,-2.6691,-2.6691,-2.6691,-2.6691,-2.6691,-1.1255,-1.3565,-1.4817,-1.2263,-1.3159,-1.4673,-1.4673,-1.4487,0.0,0.0,0.0,0.0,0.0,0.0,0.0,0.0,0.0,0.0,0.0,0.0,0.0,0.0,0.0,0.0,0.0,0.0,0.0,0.0,0.0,0.0,0.0,0.0,0.0,0.0,0.0,0.0,0.0,-3.119,-3.119,-3.119,-3.119,-3.119,-3.119,-3.119,-3.119,0.0,0.0,0.0,-3.119,-3.119,-3.119,-3.119,-3.119,-3.119,-3.119,-3.119,-3.119,-3.119,-3.119,-3.119,-3.119,-3.119,-3.119,-3.119,-3.119,-3.0178,-2.8993,-2.8993,-2.7977,-2.6843,-2.6725,-2.6691,-2.6691,-2.6691,-2.6691,-2.6691,-2.6691,-2.6691,-2.6691,-2.6691,-2.6691,-2.6691,-2.6691,-2.6691,-2.6691,-2.6691,-2.6691,-2.6691,-2.6691,-2.6691,-2.6691,-2.6691,-2.6691,-2.6691,-2.6691,-2.6691,-2.6691,-2.6691,-2.6691,-2.6691,-2.6691,-2.6691,-2.6691,-2.6691,-2.6691,-2.6691,-2.6691,-2.6691,-2.6691,-2.6691,-2.6691,-2.6691,-1.0178,-1.2389,-1.4166,-1.3176,-1.523,-1.7468,-1.7468,-1.687,-1.638,0.0,0.0,0.0,0.0,0.0,0.0,0.0,0.0,0.0,0.0,0.0,0.0,0.0,0.0,0.0,0.0,0.0,0.0,0.0,0.0,0.0,0.0,0.0,0.0,0.0,0.0,0.0,0.0,-3.119,-3.119,-3.119,-3.119,-3.119,-3.119,-3.119,-3.119,0.0,0.0,-3.119,-3.119,-3.119,-3.119,-3.119,-3.119,-3.119,-3.119,-3.119,-3.119,-3.119,-3.119,-3.119,-3.119,-3.119,-3.119,-3.1123,-3.0734,-2.9837,-2.8908,-2.8467,-2.7554,-2.6691,-2.6691,-2.6691,-2.6691,-2.6691,-2.6691,-2.6691,-2.6691,-2.6691,-2.6691,-2.6691,-2.6691,-2.6691,-2.6691,-2.6691,-2.6691,-2.6691,-2.6691,-2.6691,-2.6691,-2.6691,-2.6691,-2.6691,-2.6691,-2.6691,-2.6691,-2.6691,-2.6691,-2.6691,-2.6691,-2.6691,-2.6691,-2.6691,-2.6691,-2.6691,-2.6691,-2.6691,-2.6691,-2.6691,-2.6691,-2.6691,-2.6691,-2.6691,-0.9552,-1.1516,-1.3659,-1.4749,-1.7141,-1.9355,-1.9883,-1.9,-1.8155,0.0,0.0,0.0,0.0,0.0,0.0,0.0,0.0,0.0,0.0,0.0,0.0,0.0,0.0,0.0,0.0,0.0,0.0,0.0,0.0,0.0,0.0,0.0,0.0,0.0,0.0,0.0,0.0,-3.119,-3.119,-3.119,-3.119,-3.119,-3.119,-3.119,-3.119,-3.119,-3.119,-3.119,-3.119,-3.119,-3.119,-3.119,-3.119,-3.1089,-3.092,-3.0751,-3.0784,-3.0937,-3.0937,-3.1055,-3.1157,-3.1004,-3.0937,-3.0801,-3.0074,-2.9313,-2.8586,-2.7976,-2.7283,-2.6691,-2.6691,-2.6691,-2.6691,-2.6691,-2.6691,-2.6691,-2.6691,-2.6691,-2.6691,-2.6691,-2.6691,-2.6691,-2.6691,-2.6691,-2.6691,-2.6691,-2.6691,-2.6691,-2.6691,-2.6691,-2.6691,-2.6691,-2.6691,-2.6691,-2.6691,-2.6691,-2.6691,-2.6691,-2.6691,-2.6691,-2.6691,-2.6691,-2.6691,-2.6691,-2.6691,-2.6691,-2.6691,-2.6691,-2.6691,-2.6691,-2.6691,-2.6691,-1.1475,-1.2711,-1.3904,-1.6021,-1.6739,-1.7484,-1.9529,-1.9389,0.0,-2.0666,0.0,0.0,0.0,0.0,0.0,0.0,0.0,0.0,0.0,0.0,0.0,0.0,0.0,0.0,0.0,0.0,0.0,0.0,0.0,0.0,0.0,0.0,0.0,0.0,0.0,0.0,0.0,-3.119,-3.119,-3.119,-3.119,-3.119,-3.119,-3.119,-3.119,-3.119,-3.119,-3.119,-3.119,-3.119,-3.119,-3.119,-3.119,-3.0784,-3.0108,-2.9416,-2.9583,-3.0192,-3.0192,-3.0632,-3.1089,-3.0395,-3.0192,-3.004,-2.9314,-2.8518,-2.7874,-2.7824,-2.7283,-2.6691,-2.6691,-2.6691,-2.6691,-2.6691,-2.6691,-2.6691,-2.6691,-2.6691,-2.6691,-2.6691,-2.6691,-2.6691,-2.6691,-2.6691,-2.6691,-2.6691,-2.6691,-2.6691,-2.6691,-2.6691,-2.6691,-2.6691,-2.6691,-2.6691,-2.6691,-2.6691,-2.6691,-2.6691,-2.6691,-2.6691,-2.6691,-2.6691,-2.6691,-2.6691,-2.6691,-2.6691,-2.6691,-2.6691,-2.6691,-2.6691,-2.6691,-2.6691,-0.9958,-1.1753,-1.3709,-1.5003,-1.6373,0.0,0.0,-2.0876,-2.1854,-2.246,-2.2934,0.0,0.0,0.0,0.0,0.0,0.0,0.0,0.0,0.0,0.0,0.0,0.0,0.0,0.0,0.0,0.0,0.0,0.0,0.0,0.0,0.0,0.0,0.0,0.0,0.0,0.0,0.0,-2.9839,-2.9839,-3.0751,-3.119,-3.119,-3.119,-3.119,-3.1173,-3.0717,-3.0531,-3.048,-3.0025,-2.9839,-2.9839,-2.9839,-2.967,-2.9431,-2.9617,-2.9871,-3.0108,-3.0108,-3.0294,-3.0395,-2.9651,-2.9433,-2.9262,-2.8501,-2.8043,-2.7705,-2.7249,-2.6911,-2.6691,-2.6691,-2.6691,-2.6691,-2.6691,-2.6691,-2.6691,-2.6691,-2.6691,-2.6691,-2.6691,-2.6691,-2.6691,-2.6691,-2.6691,-2.6691,-2.6691,-2.6691,-2.6691,-2.6691,-2.6691,-2.6691,-2.6691,-2.6691,-2.6691,-2.6691,-2.6691,-2.6691,-2.6691,-2.6691,-2.6691,-2.6691,-2.6691,-2.6691,-2.6691,-2.6691,-2.6691,-2.6691,-2.6691,-2.6691,-2.6691,-2.6691,-2.6691,-0.9603,-1.1628,-1.3921,-1.4656,0.0,0.0,-1.9714,-2.1586,-2.3173,-2.3646,-2.4152,0.0,0.0,0.0,0.0,0.0,0.0,0.0,0.0,0.0,0.0,0.0,0.0,0.0,0.0,0.0,0.0,0.0,0.0,0.0,0.0,0.0,0.0,0.0,0.0,0.0,0.0,0.0,-2.8993,-2.901,-3.0025,-3.0516,-3.0516,-3.0516,-3.0516,-3.0482,-2.9973,-2.9753,-2.9702,-2.9213,-2.8993,-2.8976,-2.8722,-2.8619,-2.8653,-2.8924,-2.9178,-2.9362,-2.9362,-2.955,-2.9634,-2.8873,-2.8619,-2.8467,-2.7689,-2.7452,-2.7351,-2.6843,-2.6691,-2.6691,-2.6691,-2.6691,-2.6691,-2.6691,-2.6691,-2.6691,-2.6691,-2.6691,-2.6691,-2.6691,-2.6691,-2.6691,-2.6691,-2.6691,-2.6691,-2.6691,-2.6691,-2.6691,-2.6691,-2.6691,-2.6691,-2.6691,-2.6691,-2.6691,-2.6691,-2.6691,-2.6691,-2.6691,-2.6691,-2.6691,-2.6691,-2.6691,-2.6691,-2.6691,-2.6691,-2.6691,-2.6691,-2.6691,-2.6691,-2.6691,-2.6691,-2.6691,-1.1103,-1.2762,-1.4706,0.0,0.0,0.0,-1.9862,-2.1214,-2.275,-2.422,0.0,-2.4508,0.0,0.0,0.0,0.0,0.0,0.0,0.0,0.0,0.0,0.0,0.0,0.0,0.0,0.0,0.0,0.0,0.0,0.0,0.0,0.0,0.0,0.0,0.0,0.0,0.0,0.0,-2.8976,-2.8976,-2.8976,-2.8993,-2.8993,-2.8993,-2.8993,-2.8993,-2.8993,-2.8993,-2.8993,-2.8976,-2.8976,-2.8908,-2.8094,-2.779,-2.7705,-2.6979,-2.7182,-2.7807,-2.7807,-2.8332,-2.8857,-2.8043,-2.779,-2.7655,-2.6911,-2.6691,-2.6691,-2.6691,-2.6691,-2.6691,-2.6691,-2.6691,-2.6691,-2.6691,-2.6691,-2.6691,-2.6691,-2.6691,-2.6691,-2.6691,-2.6691,-2.6691,-2.6691,-2.6691,-2.6691,-2.6691,-2.6691,-2.6691,-2.6691,-2.6691,-2.6691,-2.6691,-2.6691,-2.6691,-2.6691,-2.6691,-2.6691,-2.6691,-2.6691,-2.6691,-2.6691,-2.6691,-2.6691,-2.6691,-2.6691,-2.6691,-2.6691,-2.6691,-2.6691,-2.6691,-2.6691,-2.6691,-1.1103,-1.3523,0.0,-1.6316,0.0,0.0,0.0,-2.2395,0.0,0.0,0.0,0.0,0.0,0.0,0.0,0.0,0.0,0.0,0.0,0.0,0.0,0.0,0.0,0.0,0.0,0.0,0.0,0.0,0.0,0.0,0.0,0.0,0.0,0.0,0.0,0.0,0.0,0.0,0.0,-2.7368,-2.7368,-2.796,-2.8993,-2.8993,-2.8993,-2.8976,-2.8399,-2.8145,-2.8129,-2.7588,-2.7368,-2.7368,-2.7114,-2.7029,-2.7063,-2.735,-2.7604,-2.7807,-2.7807,-2.7959,-2.8044,-2.7266,-2.7029,-2.6996,-2.6759,-2.6691,-2.6691,-2.6691,-2.6691,-2.6691,-2.6691,-2.6691,-2.6691,-2.6691,-2.6691,-2.6691,-2.6691,-2.6691,-2.6691,-2.6691,-2.6691,-2.6691,-2.6691,-2.6691,-2.6691,-2.6691,-2.6691,-2.6691,-2.6691,-2.6691,-2.6691,-2.6691,-2.6691,-2.6691,-2.6691,-2.6691,-2.6691,-2.6691,-2.6691,-2.6691,-2.6691,-2.6691,-2.6691,-2.6691,-2.6691,-2.6691,-2.6691,-2.6691,-2.6691,-2.6691,-2.6691,-2.6691,-1.3083,-1.5402,0.0,-1.833,-2.0192,-2.1904,-2.2037,0.0,0.0,0.0,0.0,0.0,0.0,0.0,0.0,0.0,0.0,0.0,0.0,0.0,0.0,0.0,0.0,0.0,0.0,0.0,0.0,0.0,0.0,0.0,0.0,0.0,0.0,0.0,0.0,0.0,0.0,0.0,0.0,-2.6691,-2.6691,-2.7182,-2.8096,-2.8096,-2.8096,-2.8062,-2.7571,-2.735,-2.7317,-2.6877,-2.6691,-2.6691,-2.6691,-2.6691,-2.6742,-2.7199,-2.735,-2.735,-2.735,-2.735,-2.7283,-2.6843,-2.6691,-2.6691,-2.6691,-2.6691,-2.6691,-2.6691,-2.6691,-2.6691,-2.6691,-2.6691,-2.6691,-2.6691,-2.6691,-2.6691,-2.6691,-2.6691,-2.6691,-2.6691,-2.6691,-2.6691,-2.6691,-2.6691,-2.6691,-2.6691,-2.6691,-2.6691,-2.6691,-2.6691,-2.6691,-2.6691,-2.6691,-2.6691,-2.6691,-2.6691,-2.6691,-2.6691,-2.6691,-2.6691,-2.6691,-2.6691,-2.6691,-2.6691,-2.6691,-2.6691,-2.6691,-2.6691,-2.6691,-2.6691,-2.6691,-2.6691,-1.5947,0.0,0.0,-2.0801,-2.1241,0.0,0.0,0.0,0.0,0.0,0.0,0.0,0.0,0.0,0.0,0.0,0.0,0.0,0.0,0.0,0.0,0.0,0.0,0.0,0.0,0.0,0.0,0.0,0.0,0.0,0.0,0.0,0.0,0.0,0.0,0.0,0.0,0.0,0.0,0.0,-2.6691,-2.6691,-2.6691,-2.6691,-2.6691,-2.6691,-2.6691,-2.6691,-2.6691,-2.6691,-2.6691,-2.6691,-2.6691,-2.6691,-2.6691,-2.6691,-2.6691,-2.6691,-2.6691,-2.6691,-2.6691,-2.6691,-2.6691,-2.6691,-2.6691,-2.6691,-2.6691,-2.6691,-2.6691,-2.6691,-2.6691,-2.6691,-2.6691,-2.6691,-2.6691,-2.6691,-2.6691,-2.6691,-2.6691,-2.6691,-2.6691,-2.6691,-2.6691,-2.6691,-2.6691,-2.6691,-2.6691,-2.6691,-2.6691,-2.6691,-2.6691,-2.6691,-2.6691,-2.6691,-2.6691,-2.6691,-2.6691,-2.6691,-2.6691,-2.6691,-2.6691,-2.6691,-2.6691,-2.6691,-2.6691,-2.6691,-2.6691,-2.6691,-2.6691,-2.6691,-2.6691,-2.6691,-1.4819,-1.6982,0.0,0.0,-2.1634,0.0,0.0,0.0,0.0,0.0,0.0,0.0,0.0,0.0,0.0,0.0,0.0,0.0,0.0,0.0,0.0,0.0,0.0,0.0,0.0,0.0,0.0,0.0,0.0,0.0,0.0,0.0,0.0,0.0,0.0,0.0,-2.6691,-2.6691,-2.6691,0.0,-2.6691,-2.6691,-2.6691,-2.6691,-2.6691,-2.6691,-2.6691,-2.6691,-2.6691,-2.6691,-2.6691,-2.6691,-2.6691,-2.6691,-2.6691,-2.6691,-2.6691,-2.6691,-2.6691,-2.6691,-2.6691,-2.6691,-2.6691,-2.6691,-2.6691,-2.6691,-2.6691,-2.6691,-2.6691,-2.6691,-2.6691,-2.6691,-2.6691,-2.6691,-2.6691,-2.6691,-2.6691,-2.6691,-2.6691,-2.6691,-2.6691,-2.6691,-2.6691,-2.6691,-2.6691,-2.6691,-2.6691,-2.6691,-2.6691,-2.6691,-2.6691,-2.6691,-2.6691,-2.6691,-2.6691,-2.6691,-2.6691,-2.6691,-2.6691,-2.6691,-2.6691,-2.6691,-2.6691,-2.6691,-2.6691,-2.6691,-2.6691,-2.6691,-2.6691,-2.6691,-2.6691,-2.6691,-1.5259,0.0,0.0,-2.1271,0.0,0.0,0.0,0.0,0.0,0.0,0.0,0.0,0.0,0.0,0.0,0.0,0.0,0.0,0.0,0.0,0.0,0.0,0.0,0.0,0.0,0.0,0.0,0.0,0.0,0.0,0.0,0.0,0.0,0.0,0.0,0.0,-2.6691,-2.6691,-2.6691,-2.6691,-2.6691,-2.6691,-2.6691,-2.6691,-2.6691,-2.6691,-2.6691,-2.6691,-2.6691,-2.6691,-2.6691,-2.6691,-2.6691,-2.6691,-2.6691,-2.6691,-2.6691,-2.6691,-2.6691,-2.6691,-2.6691,-2.6691,-2.6691,-2.6691,-2.6691,-2.6691,-2.6691,-2.6691,-2.6691,-2.6691,-2.6691,-2.6691,-2.6691,-2.6691,-2.6691,-2.6691,-2.6691,-2.6691,-2.6691,-2.6691,-2.6691,-2.6691,-2.6691,-2.6691,-2.6691,-2.6691,-2.6691,-2.6691,-2.6691,-2.6691,-2.6691,-2.6691,-2.6691,-2.6691,-2.6691,-2.6691,-2.6691,-2.6691,-2.6691,-2.6691,-2.6691,-2.6691,-2.6691,-2.6691,-2.6691,-2.6691,-2.6691,-2.6691,-2.6691,-2.6691,-2.6691,-2.6691,-1.5531,0.0,-1.9659,-2.1657,-2.2237,0.0,0.0,0.0,0.0,0.0,0.0,0.0,0.0,0.0,0.0,0.0,0.0,0.0,0.0,0.0,0.0,0.0,0.0,0.0,0.0,0.0,0.0,0.0,0.0,0.0,0.0,0.0,0.0,0.0,0.0,-2.6691,-2.6691,-2.6691,-2.6691,-2.6691,-2.6691,-2.6691,-2.6691,-2.6691,-2.6691,-2.6691,-2.6691,-2.6691,-2.6691,-2.6691,-2.6691,-2.6691,-2.6691,-2.6691,-2.6691,-2.6691,-2.6691,-2.6691,-2.6691,-2.6691,-2.6691,-2.6691,-2.6691,-2.6691,-2.6691,-2.6691,-2.6691,-2.6691,-2.6691,-2.6691,-2.6691,-2.6691,-2.6691,-2.6691,-2.6691,-2.6691,-2.6691,-2.6691,-2.6691,-2.6691,-2.6691,-2.6691,-2.6691,-2.6691,-2.6691,-2.6691,-2.6691,-2.6691,-2.6691,-2.6758,-2.6791,-2.6791,-2.6857,-2.6906,-2.6906,-2.6906,-2.6906,-2.6906,-2.6906,-2.6906,-2.6906,-2.6841,-2.6791,-2.6791,-2.6741,-2.6691,-2.6691,-2.6691,-2.6691,-2.6691,-2.6691,-2.6691,0.0,0.0,-1.951,0.0,0.0,0.0,0.0,0.0,0.0,0.0,0.0,0.0,0.0,0.0,0.0,0.0,0.0,0.0,0.0,0.0,0.0,0.0,0.0,0.0,0.0,0.0,0.0,0.0,0.0,0.0,0.0,0.0,-2.6691,-2.6691,-2.6691,0.0,-2.6691,-2.6691,-2.6691,-2.6691,-2.6691,-2.6691,-2.6691,-2.6691,-2.6691,-2.6691,-2.6691,-2.6691,-2.6691,-2.6691,-2.6691,-2.6691,-2.6691,-2.6691,-2.6691,-2.6691,-2.6691,-2.6691,-2.6691,-2.6691,-2.6691,-2.6691,-2.6691,-2.6691,-2.6691,-2.6691,-2.6691,-2.6691,-2.6691,-2.6691,-2.6691,-2.6691,-2.6691,-2.6691,-2.6691,-2.6691,-2.6691,-2.6691,-2.6691,-2.6691,-2.6691,-2.6691,-2.6691,-2.6691,-2.6691,-2.6691,-2.6691,-2.6691,-2.6691,-2.7003,-2.7225,-2.7225,-2.753,-2.7754,-2.7754,-2.7754,-2.7754,-2.7754,-2.7754,-2.7754,-2.7754,-2.7411,-2.7225,-2.7225,-2.6873,-2.6691,-2.6691,-2.6691,-2.6691,-2.6691,-2.6691,-2.6691,-1.4156,-1.6422,-1.8687,0.0,0.0,0.0,0.0,0.0,0.0,0.0,0.0,0.0,0.0,0.0,0.0,0.0,0.0,0.0,0.0,0.0,0.0,0.0,0.0,0.0,0.0,0.0,0.0,0.0,0.0,0.0,0.0,-2.6082,-2.6268,-2.6691,-2.6691,0.0,-2.6691,-2.6691,-2.6691,-2.6691,-2.6691,-2.6691,-2.6691,-2.6691,-2.6691,-2.6691,-2.6691,-2.6691,-2.6691,-2.6691,-2.6691,-2.6691,-2.6691,-2.6691,-2.6691,-2.6691,-2.6691,-2.6691,-2.6691,-2.6691,-2.6691,-2.6691,-2.6691,-2.6691,-2.6691,-2.6691,-2.6691,-2.6691,-2.6691,-2.6691,-2.6691,-2.6691,-2.6691,-2.6691,-2.6691,-2.6691,-2.6691,-2.6691,-2.6691,-2.6691,-2.6691,-2.6691,-2.6691,-2.6691,-2.6775,-2.6987,-2.7052,-2.7115,-2.7332,-2.7532,-2.7651,-2.7651,-2.7779,-2.7897,-2.7897,-2.7897,-2.7897,-2.7897,-2.7897,-2.7897,-2.7897,-2.7515,-2.7303,-2.7303,-2.6906,-2.6691,-2.6691,-2.6691,-2.6691,-2.6691,-2.6691,-2.6691,0.0,0.0,-1.7179,-2.0172,0.0,0.0,0.0,0.0,0.0,0.0,0.0,0.0,0.0,0.0,0.0,0.0,0.0,0.0,0.0,0.0,0.0,0.0,0.0,0.0,0.0,0.0,0.0,0.0,0.0,0.0,-2.5287,-2.5321,-2.5659,-2.6387,-2.642,-2.6505,-2.6691,-2.6791,-2.6841,-2.6841,-2.6841,-2.6841,-2.6841,-2.6741,-2.6691,-2.6691,-2.6691,-2.6691,-2.6691,-2.6691,-2.6691,-2.6691,-2.6691,-2.6691,-2.6691,-2.6691,-2.6691,-2.6691,-2.6691,-2.6691,-2.6691,-2.6691,-2.6691,-2.6691,-2.6691,-2.6691,-2.6691,-2.6691,-2.6691,-2.6691,-2.6691,-2.6691,-2.6691,-2.6691,-2.6691,-2.6691,-2.6691,-2.6691,-2.6691,-2.6691,-2.6774,-2.6841,-2.6841,-2.6939,-2.7099,-2.7411,-2.7439,-2.756,-2.7869,-2.7964,-2.8037,-2.8037,-2.812,-2.8174,-2.8174,-2.8174,-2.8174,-2.8174,-2.8075,-2.8037,-2.8037,-2.756,-2.7303,-2.7303,-2.6906,-2.6691,-2.6691,-2.6691,-2.6691,-2.6691,-2.6691,-2.6691,0.0,-1.3233,0.0,0.0,0.0,0.0,0.0,0.0,0.0,0.0,0.0,0.0,0.0,0.0,0.0,0.0,0.0,0.0,0.0,0.0,0.0,0.0,0.0,0.0,0.0,0.0,0.0,0.0,0.0,0.0,-2.4558,-2.4558,-2.4897,-2.5626,-2.5659,-2.5998,-2.6691,-2.7083,-2.7272,-2.7272,-2.7272,-2.7272,-2.7257,-2.6873,-2.6691,-2.6691,-2.6691,-2.6691,-2.6691,-2.6691,-2.6691,-2.6691,-2.6691,-2.6691,-2.6691,-2.6691,-2.6691,-2.6691,-2.6691,-2.6691,-2.6691,-2.6691,-2.6691,-2.6691,-2.6691,-2.6691,-2.6691,-2.6691,-2.6691,-2.6691,-2.6691,-2.6691,-2.6691,-2.6691,-2.6691,-2.6691,-2.6691,-2.6691,-2.6691,-2.6691,-2.7003,-2.7272,-2.7272,-2.7592,-2.7855,-2.7869,-2.7869,-2.7883,-2.7897,-2.8183,-2.8363,-2.8363,-2.8725,-2.894,-2.894,-2.894,-2.894,-2.894,-2.8577,-2.8363,-2.8363,-2.7675,-2.7303,-2.7303,-2.6906,-2.6691,-2.6691,-2.6691,-2.6691,-2.6691,-2.6691,-2.6691,0.0,0.0,0.0,0.0,0.0,0.0,0.0,0.0,0.0,0.0,0.0,0.0,0.0,0.0,0.0,0.0,0.0,0.0,0.0,0.0,0.0,0.0,0.0,0.0,0.0,0.0,0.0,0.0,0.0,0.0,-2.378,-2.3797,-2.4135,-2.488,-2.4897,-2.5125,-2.5594,-2.555,-2.5609,-2.5819,-2.5611,-2.5504,-2.5521,-2.6109,-2.6378,-2.6411,-2.7139,-2.7317,-2.7099,-2.7363,-2.747,-2.747,-2.747,-2.747,-2.7439,-2.7178,-2.7083,-2.7051,-2.6791,-2.6691,-2.6691,-2.6691,-2.6691,-2.6691,-2.6691,-2.6691,-2.6691,-2.6691,-2.6691,-2.6758,-2.7019,-2.7083,-2.7147,-2.7409,-2.7572,-2.7628,-2.75,-2.7272,-2.7162,-2.7409,-2.7592,-2.7695,-2.7695,-2.7794,-2.7964,-2.8197,-2.8224,-2.8303,-2.8558,-2.8713,-2.8803,-2.8803,-2.8917,-2.9005,-2.9005,-2.9005,-2.9005,-2.9005,-2.8863,-2.8803,-2.8803,-2.8075,-2.7695,-2.7695,-2.7303,-2.6971,-2.6691,-2.6691,-2.6691,-2.6691,-2.6691,-2.6691,-1.0998,0.0,0.0,0.0,0.0,0.0,0.0,0.0,0.0,0.0,0.0,0.0,0.0,0.0,0.0,0.0,0.0,0.0,0.0,0.0,0.0,0.0,0.0,0.0,0.0,0.0,0.0,0.0,0.0,0.0,-2.3139,-2.3268,-2.368,-2.4405,-2.468,-2.489,-2.5005,-2.4887,-2.4902,-2.5034,-2.482,-2.4744,-2.4861,-2.5495,-2.5854,-2.6019,-2.7168,-2.7604,-2.7515,-2.7797,-2.7897,-2.7897,-2.7897,-2.7897,-2.7869,-2.7589,-2.75,-2.7439,-2.7035,-2.6906,-2.6873,-2.6741,-2.6691,-2.6691,-2.6691,-2.6691,-2.6691,-2.6691,-2.6691,-2.6758,-2.7019,-2.721,-2.738,-2.7651,-2.789,-2.8084,-2.8075,-2.7765,-2.7574,-2.7855,-2.7978,-2.8061,-2.8061,-2.8188,-2.8347,-2.8565,-2.859,-2.8694,-2.897,-2.9005,-2.9005,-2.9005,-2.9005,-2.9005,-2.9005,-2.9005,-2.9005,-2.9005,-2.8863,-2.8797,-2.8797,-2.8215,-2.7897,-2.7897,-2.7634,-2.7363,-2.7099,-2.6971,-2.6824,-2.6691,-2.6691,-2.6691,0.0,0.0,0.0,0.0,0.0,0.0,0.0,0.0,0.0,0.0,0.0,0.0,0.0,0.0,0.0,0.0,0.0,0.0,0.0,0.0,0.0,0.0,0.0,0.0,0.0,0.0,0.0,0.0,0.0,-2.2721,-2.2721,-2.3021,-2.3519,-2.4229,-2.4997,-2.5256,-2.4936,-2.5243,-2.527,-2.5035,-2.5021,-2.5139,-2.5398,-2.5105,-2.5167,-2.5526,-2.6672,-2.7448,-2.789,-2.7908,-2.794,-2.794,-2.794,-2.794,-2.794,-2.7926,-2.7911,-2.7869,-2.7472,-2.7334,-2.7239,-2.6857,-2.6725,-2.6725,-2.6725,-2.6725,-2.6708,-2.6708,-2.6708,-2.6725,-2.6725,-2.7035,-2.7348,-2.7348,-2.7648,-2.8024,-2.8355,-2.8156,-2.794,-2.794,-2.8197,-2.842,-2.842,-2.8749,-2.9005,-2.9005,-2.9005,-2.9005,-2.9005,-2.9005,-2.9005,-2.9005,-2.9005,-2.9005,-2.9005,-2.9005,-2.9005,-2.9005,-2.8627,-2.842,-2.842,-2.8088,-2.7911,-2.7911,-2.7911,-2.7911,-2.7897,-2.75,-2.7115,-2.6741,-2.6725,-2.6708,-0.9864,0.0,0.0,0.0,0.0,0.0,0.0,0.0,0.0,0.0,0.0,0.0,0.0,0.0,0.0,0.0,0.0,0.0,0.0,0.0,0.0,0.0,0.0,0.0,0.0,0.0,0.0,0.0,0.0,-2.3057,-2.3057,-2.2923,-2.2922,-2.3149,-2.3164,-2.323,-2.3336,-2.324,-2.324,-2.3362,-2.3179,-2.3112,-2.3223,-2.4139,-2.4622,-2.4784,-2.6161,-2.7169,-2.7882,-2.8452,-2.8688,-2.8688,-2.8688,-2.8688,-2.8663,-2.8373,-2.8264,-2.821,-2.7851,-2.7722,-2.7725,-2.7604,-2.7363,-2.7131,-2.7131,-2.7131,-2.7067,-2.6791,-2.6906,-2.721,-2.7485,-2.8047,-2.8533,-2.8533,-2.8608,-2.8713,-2.8815,-2.8767,-2.8688,-2.8688,-2.8761,-2.8839,-2.8839,-2.8929,-2.9005,-2.9005,-2.9005,-2.9005,-2.9005,-2.9005,-2.9005,-2.9005,-2.9005,-2.9005,-2.9005,-2.9005,-2.9005,-2.9005,-2.8905,-2.8839,-2.8839,-2.8476,-2.8264,-2.8264,-2.8264,-2.8143,-2.7897,-2.7797,-2.7681,-2.756,-2.7272,-2.6988,-1.0925,-1.1049,0.0,0.0,0.0,0.0,0.0,0.0,0.0,0.0,0.0,0.0,0.0,0.0,0.0,0.0,0.0,0.0,0.0,0.0,0.0,0.0,0.0,0.0,0.0,0.0,0.0,0.0,-2.3403,-2.3403,-2.3403,-2.3093,-2.291,-2.291,-2.2773,-2.2682,-2.2708,-2.2537,-2.2487,-2.2523,-2.2374,-2.2363,-2.2508,-2.3463,-2.3993,-2.417,-2.5517,-2.6366,-2.6898,-2.8026,-2.8693,-2.9005,-2.9005,-2.9005,-2.8964,-2.8737,-2.8658,-2.8608,-2.8224,-2.8102,-2.8088,-2.7954,-2.7754,-2.7545,-2.7545,-2.7545,-2.75,-2.7272,-2.7363,-2.7604,-2.784,-2.8321,-2.8749,-2.8749,-2.8875,-2.9005,-2.9005,-2.9005,-2.9005,-2.9005,-2.9005,-2.9005,-2.9005,-2.9005,-2.9005,-2.9005,-2.9005,-2.9005,-2.9005,-2.9005,-2.9005,-2.9005,-2.9005,-2.9005,-2.9005,-2.9005,-2.9005,-2.9005,-2.9005,-2.9005,-2.9005,-2.8773,-2.8658,-2.8658,-2.8658,-2.854,-2.8365,-2.8201,-2.795,-2.7634,-2.7409,-2.7083,-1.2619,-1.2499,-1.2921,0.0,0.0,0.0,-1.5625,-1.5337,0.0,0.0,0.0,0.0,0.0,0.0,0.0,0.0,0.0,0.0,0.0,0.0,0.0,0.0,0.0,0.0,0.0,0.0,0.0,-2.3764,-2.3714,-2.3703,-2.3703,-2.3346,-2.3141,-2.3141,-2.3123,-2.2965,-2.266,-2.266,-2.2537,-2.2296,-2.2296,-2.2426,-2.2673,-2.3033,-2.3369,-2.3707,-2.4795,-2.5319,-2.5503,-2.6935,-2.8062,-2.8877,-2.8968,-2.9005,-2.9005,-2.9005,-2.9005,-2.894,-2.859,-2.8458,-2.842,-2.8134,-2.7996,-2.7968,-2.7968,-2.7968,-2.7968,-2.7968,-2.7968,-2.7968,-2.7968,-2.821,-2.8458,-2.8458,-2.8749,-2.9005,-2.9005,-2.9005,-2.9005,-2.9005,-2.9005,-2.9005,-2.9005,-2.9005,-2.9005,-2.9005,-2.9005,-2.9005,-2.9005,-2.9005,-2.9005,-2.9005,-2.9005,-2.9005,-2.9005,-2.9005,-2.9005,-2.9005,-2.9005,-2.9005,-2.9005,-2.9005,-2.9005,-2.9005,-2.9005,-2.9005,-2.9005,-2.8645,-2.8084,-2.738,-2.738,-2.7131,-1.4477,-1.4989,-1.557,-1.3936,0.0,0.0,0.0,-1.3293,0.0,0.0,0.0,0.0,0.0,0.0,0.0,0.0,0.0,0.0,0.0,0.0,0.0,0.0,0.0,0.0,0.0,0.0,-2.4103,-2.4103,-2.3847,-2.3703,-2.3703,-2.3129,-2.281,-2.281,-2.2594,-2.244,-2.2374,-2.2374,-2.2349,-2.2296,-2.2296,-2.2321,-2.2402,-2.2958,-2.3242,-2.3335,-2.4101,-2.4805,-2.5411,-2.5742,-2.6715,-2.8099,-2.8748,-2.9005,-2.9005,-2.9005,-2.9005,-2.8994,-2.8917,-2.8875,-2.8863,-2.8803,-2.857,-2.8298,-2.8298,-2.8298,-2.8298,-2.8298,-2.8298,-2.8298,-2.8298,-2.8596,-2.8875,-2.8875,-2.894,-2.9005,-2.9005,-2.9005,-2.9005,-2.9005,-2.9005,-2.9005,-2.9005,-2.9005,-2.9005,-2.9005,-2.9005,-2.9005,-2.9005,-2.9005,-2.9005,-2.9005,-2.9005,-2.9005,-2.9005,-2.9005,-2.9005,-2.9005,-2.9005,-2.9005,-2.9005,-2.9005,-2.9005,-2.9005,-2.9005,-2.9005,-2.9005,-2.8917,-2.8507,-2.7779,-2.7779,-2.7394,-1.6189,-1.6285,-1.6707,-1.5894,0.0,0.0,0.0,0.0,0.0,0.0,0.0,0.0,0.0,0.0,0.0,0.0,0.0,0.0,0.0,0.0,0.0,0.0,0.0,0.0,0.0,0.0,-2.4141,-2.3947,-2.3795,-2.3555,-2.3212,-2.2868,-2.2634,-2.25,-2.236,-2.2296,-2.2296,-2.2296,-2.2296,-2.2296,-2.2296,-2.2296,-2.2324,-2.2933,-2.32,-2.3242,-2.3907,-2.4438,-2.4824,-2.5227,-2.587,-2.6678,-2.7493,-2.8051,-2.8411,-2.8411,-2.8656,-2.9005,-2.9005,-2.9005,-2.9005,-2.9005,-2.8863,-2.8694,-2.8694,-2.8694,-2.8694,-2.8694,-2.8694,-2.8694,-2.8694,-2.8851,-2.9005,-2.9005,-2.9005,-2.9005,-2.9005,-2.9005,-2.9005,-2.9005,-2.9005,-2.9005,-2.9005,-2.9005,-2.9005,-2.9005,-2.9005,-2.9005,-2.9005,-2.9005,-2.9005,-2.9005,-2.9005,-2.9005,-2.9005,-2.9005,-2.9005,-2.9005,-2.9005,-2.9005,-2.9005,-2.9005,-2.9005,-2.9005,-2.9005,-2.9005,-2.9005,-2.9005,-2.87,-2.8156,-2.8156,-2.7733,0.0,0.0,0.0,0.0,0.0,-1.5961,0.0,0.0,0.0,-1.5869,0.0,0.0,0.0,0.0,0.0,0.0,0.0,0.0,0.0,0.0,0.0,0.0,0.0,0.0,0.0,0.0,-2.3388,-2.3688,-2.3206,-2.2843,-2.2716,-2.266,-2.251,-2.231,-2.2296,-2.2296,-2.2296,-2.2296,-2.2296,-2.2296,-2.2296,-2.2296,-2.2324,-2.2933,-2.32,-2.3242,-2.3907,-2.419,-2.4245,-2.4897,-2.5172,-2.5264,-2.6227,-2.6998,-2.7567,-2.7567,-2.7989,-2.8546,-2.8546,-2.8546,-2.8565,-2.8712,-2.8767,-2.8803,-2.895,-2.8895,-2.8803,-2.8968,-2.9005,-2.9005,-2.9005,-2.9005,-2.9005,-2.9005,-2.9005,-2.9005,-2.9005,-2.9005,-2.9005,-2.9005,-2.9005,-2.9005,-2.9005,-2.9005,-2.9005,-2.9005,-2.9005,-2.9005,-2.9005,-2.9005,-2.9005,-2.9005,-2.9005,-2.9005,-2.9005,-2.9005,-2.9005,-2.9005,-2.9005,-2.9005,-2.9005,-2.9005,-2.9005,-2.9005,-2.9005,-2.9005,-2.9005,-2.9005,-2.8785,-2.8407,-2.8407,-2.8057,0.0,0.0,0.0,0.0,-1.9546,0.0,0.0,0.0,-1.5092,-1.396,0.0,0.0,0.0,0.0,0.0,0.0,0.0,0.0,0.0,0.0,0.0,0.0,0.0,0.0,0.0,0.0,0.0,-2.3515,-2.1433,-2.0844,-2.2617,-2.2477,-2.2335,-2.2296,-2.2296,-2.2296,-2.2296,-2.2296,-2.2296,-2.2296,-2.2296,-2.2296,-2.2324,-2.2933,-2.32,-2.3242,-2.3907,-2.419,-2.4208,-2.43,-2.4337,-2.4483,-2.6007,-2.6667,-2.6741,-2.6741,-2.6785,-2.6859,-2.6859,-2.6859,-2.6987,-2.7695,-2.7934,-2.8062,-2.8785,-2.8503,-2.8081,-2.8803,-2.9005,-2.9005,-2.9005,-2.9005,-2.9005,-2.9005,-2.9005,-2.9005,-2.9005,-2.9005,-2.9005,-2.9005,-2.9005,-2.9005,-2.9005,-2.9005,-2.9005,-2.9005,-2.9005,-2.9005,-2.9005,-2.9005,-2.9005,-2.9005,-2.9005,-2.9005,-2.9005,-2.9005,-2.9005,-2.9005,-2.9005,-2.9005,-2.9005,-2.9005,-2.9005,-2.9005,-2.9005,-2.9005,-2.9005,-2.9005,-2.8785,-2.8407,-2.8407,-2.8197,0.0,0.0,0.0,0.0,0.0,0.0,0.0,0.0,-1.5179,0.0,0.0,0.0,0.0,0.0,0.0,0.0,0.0,0.0,0.0,0.0,0.0,0.0,0.0,0.0,0.0,0.0,0.0,0.0,0.0,-2.0255,-2.1747,-2.2122,-2.2296,-2.2296,-2.2296,-2.2296,-2.2296,-2.2296,-2.2296,-2.2296,-2.2296,-2.2374,-2.2537,-2.3002,-2.3311,-2.3522,-2.3996,-2.419,-2.419,-2.419,-2.419,-2.4263,-2.4942,-2.5493,-2.5907,-2.5907,-2.619,-2.6602,-2.6602,-2.6602,-2.6741,-2.753,-2.7798,-2.7952,-2.8767,-2.8767,-2.8565,-2.8895,-2.9005,-2.9005,-2.9005,-2.9005,-2.9005,-2.9005,-2.9005,-2.9005,-2.9005,-2.9005,-2.9005,-2.9005,-2.9005,-2.9005,-2.9005,-2.9005,-2.9005,-2.9005,-2.9005,-2.9005,-2.9005,-2.9005,-2.9005,-2.9005,-2.9005,-2.9005,-2.9005,-2.9005,-2.9005,-2.9005,-2.9005,-2.9005,-2.9005,-2.9005,-2.9005,-2.9005,-2.9005,-2.9005,-2.9005,-2.9005,-2.8917,-2.8749,-2.8749,-2.854,-2.3038,0.0,0.0,0.0,0.0,0.0,0.0,0.0,0.0,0.0,0.0,0.0,0.0,0.0,0.0,0.0,0.0,0.0,0.0,0.0,0.0,0.0,0.0,0.0,0.0,0.0,0.0,0.0,0.0,0.0,-2.1182,-2.1739,-2.2076,-2.2296,-2.2296,-2.2296,-2.2296,-2.2296,-2.2296,-2.2296,-2.2296,-2.2398,-2.2599,-2.3009,-2.3335,-2.3577,-2.4016,-2.419,-2.419,-2.419,-2.419,-2.419,-2.419,-2.4566,-2.5062,-2.5062,-2.5438,-2.5952,-2.5952,-2.6098,-2.6374,-2.6953,-2.7302,-2.7622,-2.8418,-2.8675,-2.8712,-2.8932,-2.9005,-2.9005,-2.9005,-2.9005,-2.9005,-2.9005,-2.9005,-2.9005,-2.9005,-2.9005,-2.9005,-2.9005,-2.9005,-2.9005,-2.9005,-2.9005,-2.9005,-2.9005,-2.9005,-2.9005,-2.9005,-2.9005,-2.9005,-2.9005,-2.9005,-2.9005,-2.9005,-2.9005,-2.9005,-2.9005,-2.9005,-2.9005,-2.9005,-2.9005,-2.9005,-2.9005,-2.9005,-2.9005,-2.9005,-2.9005,-2.9005,-2.9005,-2.9005,-2.8839,0.0,0.0,0.0,-2.0658,0.0,0.0,0.0,0.0,-1.7262,0.0,0.0,0.0,0.0,0.0,-1.7227,-1.4915,0.0,0.0,0.0,0.0,0.0,0.0,0.0,0.0,0.0,0.0,0.0,0.0,0.0,0.0,-2.1246,-2.1331,-2.1563,-2.2279,-2.2296,-2.2296,-2.2296,-2.2296,-2.2296,-2.2296,-2.2296,-2.231,-2.2321,-2.2933,-2.32,-2.3247,-2.3917,-2.419,-2.419,-2.419,-2.419,-2.419,-2.419,-2.4208,-2.4245,-2.4245,-2.4245,-2.4281,-2.4281,-2.4787,-2.5429,-2.5466,-2.5988,-2.6796,-2.7585,-2.7842,-2.7989,-2.8785,-2.9005,-2.9005,-2.9005,-2.9005,-2.9005,-2.9005,-2.9005,-2.9005,-2.9005,-2.9005,-2.9005,-2.9005,-2.9005,-2.9005,-2.9005,-2.9005,-2.9005,-2.9005,-2.9005,-2.9005,-2.9005,-2.9005,-2.9005,-2.9005,-2.9005,-2.9005,-2.9005,-2.9005,-2.9005,-2.9005,-2.9005,-2.9005,-2.9005,-2.9005,-2.9005,-2.9005,-2.9005,-2.9005,-2.9005,-2.9005,-2.9005,-2.9005,-2.9005,-2.8994,0.0,0.0,-2.4596,-2.235,0.0,0.0,0.0,0.0,0.0,0.0,0.0,0.0,0.0,0.0,-1.7244,-1.6415,-1.5069,0.0,0.0,0.0,0.0,0.0,0.0,0.0,0.0,0.0,0.0,0.0,0.0,0.0,0.0,-2.0909,-2.1442,-2.1563,-2.2057,-2.2296,-2.2296,-2.2296,-2.2296,-2.2296,-2.2296,-2.2508,-2.2908,-2.3111,-2.3437,-2.3858,-2.4094,-2.419,-2.419,-2.419,-2.419,-2.419,-2.419,-2.419,-2.419,-2.419,-2.419,-2.419,-2.419,-2.4373,-2.4695,-2.5227,-2.5933,-2.6759,-2.7548,-2.8172,-2.8638,-2.8932,-2.9005,-2.9005,-2.9005,-2.9005,-2.9005,-2.9005,-2.9005,-2.9005,-2.9005,-2.9005,-2.9005,-2.9005,-2.9005,-2.9005,-2.9005,-2.9005,-2.9005,-2.9005,-2.9005,-2.9005,-2.9005,-2.9005,-2.9005,-2.9005,-2.9005,-2.9005,-2.9005,-2.9005,-2.9005,-2.9005,-2.9005,-2.9005,-2.9005,-2.9005,-2.9005,-2.9005,-2.9005,-2.9005,-2.9005,-2.9005,-2.9005,-2.9005,-2.9005,-2.9005,-2.5154,-2.5308,0.0,0.0,-2.1985,0.0,-1.8574,0.0,0.0,0.0,0.0,0.0,0.0,0.0,-1.756,-1.7251,-1.5293,-1.3305,0.0,0.0,0.0,0.0,0.0,0.0,0.0,0.0,-1.4051,-1.6059,0.0,0.0,0.0,0.0,-2.1134,-2.1204,-2.1921,-2.2296,-2.2296,-2.2296,-2.2296,-2.2296,-2.2402,-2.2643,-2.3033,-2.3259,-2.361,-2.4026,-2.4151,-2.419,-2.419,-2.419,-2.419,-2.419,-2.419,-2.419,-2.419,-2.419,-2.419,-2.419,-2.419,-2.419,-2.4281,-2.4805,-2.5713,-2.6704,-2.7218,-2.8124,-2.9005,-2.9005,-2.9005,-2.9005,-2.9005,-2.9005,-2.9005,-2.9005,-2.9005,-2.9005,-2.9005,-2.9005,-2.9005,-2.9005,-2.9005,-2.9005,-2.9005,-2.9005,-2.9005,-2.9005,-2.9005,-2.9005,-2.9005,-2.9005,-2.9005,-2.9005,-2.9005,-2.9005,-2.9005,-2.9005,-2.9005,-2.9005,-2.9005,-2.9005,-2.9005,-2.9005,-2.9005,-2.9005,-2.9005,-2.9005,-2.9005,-2.9005,-2.9005,-2.9005,-2.9005,-2.9005]},{"header":{"parameterUnit":"m.s-1","parameterCategory":1,"la1":30.6,"la2":29.2853,"lo1":-89.7004,"lo2":-87.6739,"dy":0.0162,"dx":0.0183,"nx":112,"ny":82,"refTime":"2024-07-19T18:00:00:Z","depth":0,"parameterNumber":3,"parameterNumberName":"V-component_of_WINDS"},"data":[0.0,0.0,0.0,0.0,0.0,0.0,0.0,0.0,0.0,0.0,0.0,0.0,0.0,0.0,0.0,0.0,0.0,0.0,0.0,0.0,0.0,0.0,0.0,0.0,0.0,0.0,0.0,0.0,0.0,0.0,0.0,0.0,0.0,0.0,0.0,0.0,0.0,0.0,0.0,0.0,0.0,0.0,0.0,0.0,0.0,0.0,0.0,0.0,0.0,0.0,0.0,0.0,0.0,0.0,0.0,0.0,0.0,0.0,0.0,0.0,0.0,0.0,0.0,0.0,0.0,0.0,0.0,0.0,0.0,0.0,0.0,0.0,0.0,0.0,0.0,0.0,0.0,0.0,0.0,0.0,0.0,0.0,0.0,0.0,0.0,0.0,0.0,0.0,0.0,0.0,0.0,-1.2529,-1.5008,-1.6333,-1.5856,-1.5668,-1.4224,-1.1046,0.0,0.0,0.0,0.0,0.0,0.0,0.0,0.0,0.0,0.0,0.0,0.0,0.0,0.0,0.0,0.0,0.0,0.0,0.0,0.0,0.0,0.0,0.0,0.0,0.0,0.0,0.0,0.0,0.0,0.0,0.0,0.0,0.0,0.0,0.0,0.0,0.0,0.0,0.0,0.0,0.0,0.0,0.0,0.0,0.0,0.0,0.0,0.0,0.0,0.0,0.0,0.0,0.0,0.0,0.0,0.0,0.0,0.0,0.0,0.0,0.0,0.0,0.0,0.0,0.0,0.0,0.0,0.0,0.0,0.0,0.0,0.0,0.0,0.0,0.0,0.0,0.0,0.0,0.0,0.0,0.0,0.0,0.0,0.0,0.0,0.0,0.0,0.0,0.0,0.0,0.0,0.0,0.0,0.0,0.0,0.0,0.0,0.0,0.0,0.0,0.0,0.0,0.0,0.0,-1.0999,-1.418,-1.5706,-1.6463,-1.6387,-1.553,-1.4004,-1.1613,0.0,0.0,0.0,0.0,0.0,0.0,0.0,0.0,0.0,0.0,0.0,0.0,0.0,0.0,0.0,0.0,0.0,0.0,0.0,0.0,0.0,0.0,0.0,0.0,0.0,0.0,0.0,0.0,0.0,0.0,0.0,0.0,0.0,0.0,0.0,0.0,0.0,0.0,0.0,0.0,0.0,0.0,0.0,0.0,0.0,0.0,0.0,0.0,0.0,0.0,0.0,0.0,0.0,0.0,0.0,0.0,0.0,0.0,0.0,0.0,0.0,0.0,0.0,0.0,0.0,0.0,0.0,0.0,0.0,0.0,0.0,0.0,0.0,0.0,0.0,0.0,0.0,0.0,0.0,0.0,0.0,0.0,0.0,0.0,0.0,0.0,0.0,0.0,0.0,0.0,0.0,0.0,0.0,0.0,0.0,0.0,0.0,0.0,0.0,0.0,0.0,0.0,0.0,-1.0407,-1.219,-1.4632,-1.5856,-1.65,-1.65,-1.5525,-1.3972,-1.1741,-1.0759,0.0,0.0,0.0,0.0,0.0,0.0,0.0,0.0,0.0,0.0,0.0,0.0,0.0,0.0,0.0,0.0,0.0,0.0,0.0,0.0,0.0,0.0,0.0,0.0,0.0,0.0,0.0,0.0,0.0,0.0,0.0,0.0,0.0,0.0,0.0,0.0,0.0,0.0,0.0,0.0,0.0,0.0,0.0,0.0,0.0,0.0,0.0,0.0,0.0,0.0,0.0,0.0,0.0,0.0,0.0,0.0,0.0,0.0,0.0,0.0,0.0,0.0,0.0,0.0,0.0,0.0,0.0,0.0,0.0,0.0,0.0,0.0,0.0,0.0,0.0,0.0,0.0,0.0,0.0,0.0,0.0,0.0,0.0,0.0,0.0,0.0,0.0,0.0,0.0,0.0,0.0,0.0,0.0,0.0,0.0,0.0,0.0,0.0,0.0,0.0,0.0,0.0,-1.1736,-1.3182,-1.4733,-1.5856,-1.645,-1.6312,-1.5191,-1.3614,-1.1512,-1.0207,0.0,0.0,0.0,0.0,0.0,0.0,0.0,0.0,0.0,0.0,0.0,0.0,0.0,0.0,0.0,0.0,0.0,0.0,0.0,0.0,0.0,0.0,0.0,0.0,0.0,0.0,0.0,0.0,0.0,0.0,0.0,0.0,0.0,0.0,0.0,0.0,0.0,0.0,0.0,0.0,0.0,0.0,0.0,0.0,0.0,0.0,0.0,0.0,0.0,0.0,0.0,0.0,0.0,0.0,0.0,0.0,0.0,0.0,0.0,0.0,0.0,0.0,0.0,0.0,0.0,0.0,0.0,0.0,0.0,0.0,0.0,0.0,0.0,0.0,0.0,0.0,0.0,0.0,0.0,0.0,0.0,0.0,0.0,0.0,0.0,0.0,0.0,0.0,0.0,0.0,0.0,0.0,0.0,0.0,0.0,0.0,0.0,0.0,0.0,0.0,0.0,0.0,-1.1823,-1.3591,-1.4771,-1.5856,-1.6287,-1.5793,-1.4256,-1.2584,-1.0869,-0.9291,0.0,0.0,0.0,0.0,0.0,0.0,0.0,0.0,0.0,0.0,0.0,0.0,0.0,0.0,0.0,0.0,0.0,0.0,0.0,0.0,0.0,0.0,0.0,0.0,0.0,0.0,0.0,0.0,0.0,0.0,0.0,0.0,0.0,0.0,0.0,0.0,0.0,0.0,0.0,0.0,0.0,0.0,0.0,0.0,0.0,0.0,0.0,0.0,0.0,0.0,0.0,0.0,0.0,0.0,0.0,0.0,0.0,0.0,0.0,0.0,0.0,0.0,0.0,0.0,0.0,0.0,0.0,0.0,0.0,0.0,0.0,0.0,0.0,0.0,0.0,0.0,0.0,0.0,0.0,0.0,0.0,0.0,0.0,0.0,0.0,0.0,0.0,0.0,0.0,0.0,0.0,0.0,0.0,0.0,0.0,0.0,0.0,0.0,0.0,0.0,0.0,0.0,-1.1535,-1.327,0.0,-1.5856,-1.6274,-1.5743,-1.4507,-1.2898,-1.0819,0.0,0.0,0.0,0.0,0.0,0.0,0.0,0.0,0.0,0.0,0.0,0.0,0.0,0.0,0.0,0.0,0.0,0.0,0.0,0.0,0.0,0.0,0.0,0.0,0.0,0.0,0.0,0.0,0.0,0.0,0.0,0.0,0.0,0.0,0.0,0.0,0.0,0.0,0.0,0.0,0.0,0.0,0.0,0.0,0.0,0.0,0.0,0.0,0.0,0.0,0.0,0.0,0.0,0.0,0.0,0.0,0.0,0.0,0.0,0.0,0.0,0.0,0.0,0.0,0.0,0.0,0.0,0.0,0.0,0.0,0.0,0.0,0.0,0.0,0.0,0.0,0.0,0.0,0.0,0.0,0.0,0.0,0.0,0.0,0.0,0.0,0.0,0.0,0.0,0.0,0.0,0.0,0.0,0.0,0.0,0.0,0.0,0.0,0.0,0.0,0.0,0.0,-0.9717,-1.151,-1.3232,0.0,-1.5706,-1.6032,-1.548,-1.4135,-1.2483,-1.057,0.0,0.0,0.0,0.0,0.0,0.0,0.0,0.0,0.0,0.0,0.0,0.0,0.0,0.0,0.0,0.0,0.0,0.0,0.0,0.0,0.0,0.0,0.0,0.0,0.0,0.0,0.0,0.0,0.0,0.0,0.0,0.0,0.0,0.0,0.0,0.0,0.0,0.0,0.0,0.0,0.0,0.0,0.0,0.0,0.0,0.0,0.0,0.0,0.0,0.0,0.0,0.0,0.0,0.0,0.0,0.0,0.0,0.0,0.0,0.0,0.0,0.0,0.0,0.0,0.0,0.0,0.0,0.0,0.0,0.0,0.0,0.0,0.0,0.0,0.0,0.0,0.0,0.0,0.0,0.0,0.0,0.0,0.0,0.0,0.0,0.0,0.0,0.0,0.0,0.0,0.0,0.0,0.0,0.0,0.0,0.0,0.0,0.0,0.0,0.0,0.0,0.0,-0.9767,-1.1836,-1.3629,-1.4758,-1.5374,-1.5467,-1.4934,-1.2872,-1.1111,0.0,0.0,0.0,0.0,0.0,0.0,0.0,0.0,0.0,0.0,0.0,0.0,0.0,0.0,0.0,0.0,0.0,0.0,0.0,0.0,0.0,0.0,0.0,0.0,0.0,0.0,0.0,0.0,0.0,0.0,0.0,0.0,0.0,0.0,0.0,0.0,0.0,0.0,0.0,0.0,0.0,0.0,0.0,0.0,0.0,0.0,0.0,0.0,0.0,0.0,0.0,0.0,0.0,0.0,0.0,0.0,0.0,0.0,0.0,0.0,0.0,0.0,0.0,0.0,0.0,0.0,0.0,0.0,0.0,0.0,0.0,0.0,0.0,0.0,0.0,0.0,0.0,0.0,0.0,0.0,0.0,0.0,0.0,0.0,0.0,0.0,0.0,0.0,0.0,0.0,0.0,0.0,0.0,0.0,0.0,0.0,0.0,0.0,0.0,0.0,0.0,0.0,0.0,-0.9805,-1.1836,-1.3491,-1.4249,-1.4828,-1.4928,-1.4374,-1.2998,-1.1525,-0.9993,0.0,0.0,0.0,0.0,0.0,0.0,0.0,0.0,0.0,0.0,0.0,0.0,0.0,0.0,0.0,0.0,0.0,0.0,0.0,0.0,0.0,0.0,0.0,0.0,0.0,0.0,0.0,0.0,0.0,0.0,0.0,0.0,0.0,0.0,0.0,0.0,0.0,0.0,0.0,0.0,0.0,0.0,0.0,0.0,0.0,0.0,0.0,0.0,0.0,0.0,0.0,0.0,0.0,0.0,0.0,0.0,0.0,0.0,0.0,0.0,0.0,0.0,0.0,0.0,0.0,0.0,0.0,0.0,0.0,0.0,0.0,0.0,0.0,0.0,0.0,0.0,0.0,0.0,0.0,0.0,0.0,0.0,0.0,0.0,0.0,0.0,0.0,0.0,0.0,0.0,0.0,0.0,0.0,0.0,0.0,0.0,0.0,0.0,0.0,0.0,0.0,0.0,-0.983,-1.204,-1.379,-1.4362,-1.4714,-1.4777,-1.4437,-1.317,-1.1773,-1.0306,0.0,0.0,0.0,0.0,0.0,0.0,0.0,0.0,0.0,0.0,0.0,0.0,0.0,0.0,0.0,0.0,0.0,0.0,0.0,0.0,0.0,0.0,0.0,0.0,0.0,0.0,0.0,0.0,0.0,0.0,0.0,0.0,0.0,0.0,0.0,0.0,0.0,0.0,0.0,0.0,0.0,0.0,0.0,0.0,0.0,0.0,0.0,0.0,0.0,0.0,0.0,0.0,0.0,0.0,0.0,0.0,0.0,0.0,0.0,0.0,0.0,0.0,0.0,0.0,0.0,0.0,0.0,0.0,0.0,0.0,0.0,0.0,0.0,0.0,0.0,0.0,0.0,0.0,0.0,0.0,0.0,0.0,0.0,0.0,0.0,0.0,0.0,0.0,0.0,0.0,0.0,0.0,0.0,0.0,0.0,0.0,0.0,0.0,0.0,0.0,0.0,0.0,-0.9905,-1.2398,-1.4299,-1.4833,-1.4865,-1.484,-1.484,-1.335,-1.1911,-1.0769,0.0,0.0,0.0,0.0,0.0,0.0,0.0,0.0,0.0,0.0,0.0,0.0,0.0,0.0,0.0,0.0,0.0,0.0,0.0,0.0,0.0,0.0,0.0,0.0,0.0,0.0,0.0,0.0,0.0,0.0,0.0,0.0,0.0,0.0,0.0,0.0,0.0,0.0,0.0,0.0,0.0,0.0,0.0,0.0,0.0,0.0,0.0,0.0,0.0,0.0,0.0,0.0,0.0,0.0,0.0,0.0,0.0,0.0,0.0,0.0,-0.7291,0.0,0.0,0.0,0.0,0.0,0.0,0.0,0.0,0.0,0.0,0.0,0.0,0.0,0.0,0.0,0.0,0.0,0.0,0.0,0.0,0.0,0.0,0.0,0.0,0.0,0.0,0.0,0.0,0.0,0.0,0.0,0.0,0.0,0.0,0.0,0.0,0.0,0.0,0.0,0.0,0.0,-1.0469,-1.2625,-1.4299,-1.4833,-1.4525,-1.428,-1.428,-1.3124,-1.1911,-1.0769,0.0,0.0,0.0,0.0,0.0,0.0,0.0,0.0,0.0,0.0,0.0,0.0,0.0,0.0,0.0,0.0,0.0,0.0,0.0,0.0,0.0,0.0,0.0,0.0,0.0,0.0,0.0,0.0,0.0,0.0,0.0,0.0,0.0,0.0,0.0,0.0,0.0,0.0,0.0,0.0,0.0,0.0,0.0,0.0,0.0,0.0,0.0,0.0,0.0,0.0,0.0,0.0,0.0,0.0,0.0,0.0,0.0,0.0,0.0,0.0,0.0,-0.8018,0.0,0.0,0.0,0.0,0.0,0.0,0.0,0.0,0.0,0.0,0.0,0.0,0.0,0.0,0.0,0.0,0.0,0.0,0.0,0.0,0.0,0.0,0.0,0.0,0.0,0.0,0.0,0.0,0.0,0.0,0.0,0.0,0.0,0.0,0.0,0.0,0.0,0.0,0.0,0.0,-1.1035,-1.3086,-1.4689,-1.5236,-1.4796,-1.4475,-1.4475,-1.3433,-1.2425,-1.1573,-1.0483,0.0,0.0,0.0,0.0,0.0,0.0,0.0,0.0,0.0,0.0,0.0,0.0,0.0,0.0,0.0,0.0,0.0,0.0,0.0,0.0,0.0,0.0,0.0,0.0,0.0,0.0,0.0,0.0,0.0,0.0,0.0,0.0,0.0,0.0,0.0,0.0,0.0,0.0,0.0,0.0,0.0,0.0,0.0,0.0,0.0,0.0,0.0,0.0,0.0,0.0,0.0,0.0,0.0,0.0,0.0,-1.0743,-1.0449,-1.0726,-1.135,-1.0413,-0.9739,-0.9285,0.0,0.0,0.0,0.0,0.0,0.0,0.0,0.0,0.0,0.0,0.0,0.0,0.0,0.0,0.0,0.0,0.0,0.0,0.0,0.0,0.0,0.0,0.0,0.0,0.0,-1.3551,-1.3594,0.0,0.0,0.0,0.0,0.0,0.0,0.0,0.0,0.0,0.0,0.0,0.0,-1.1726,-1.3727,-1.5248,-1.5781,-1.5361,-1.4997,-1.4916,-1.3948,-1.309,-1.2438,-1.1435,-1.0407,0.0,0.0,0.0,0.0,0.0,0.0,0.0,0.0,0.0,0.0,0.0,0.0,0.0,0.0,0.0,0.0,0.0,0.0,0.0,0.0,0.0,0.0,0.0,0.0,0.0,0.0,0.0,0.0,0.0,0.0,0.0,0.0,-0.4847,-0.5458,0.0,0.0,0.0,0.0,0.0,0.0,0.0,0.0,0.0,0.0,0.0,0.0,0.0,0.0,-0.9445,-1.0655,-1.1271,-1.133,-1.2054,-1.2455,-1.2563,-1.3037,-1.3322,-1.3449,-1.3781,0.0,-1.0666,-1.0775,0.0,0.0,0.0,0.0,0.0,0.0,0.0,0.0,0.0,0.0,0.0,0.0,0.0,0.0,0.0,0.0,0.0,0.0,0.0,0.0,0.0,0.0,-1.5141,-1.4683,-1.4683,-1.4683,0.0,-1.3144,-1.1823,-1.062,0.0,0.0,0.0,0.0,0.0,0.0,0.0,0.0,-1.2852,-1.4513,-1.5806,-1.6337,-1.5919,-1.5412,-1.4934,-1.4337,-1.3544,-1.2463,-1.1826,-1.1186,-1.0519,-0.9453,0.0,0.0,0.0,0.0,0.0,0.0,0.0,0.0,0.0,0.0,0.0,0.0,0.0,0.0,0.0,0.0,0.0,0.0,0.0,0.0,0.0,0.0,0.0,0.0,0.0,0.0,0.0,0.0,0.0,-0.4857,-0.584,-0.6104,-0.6367,-0.6428,0.0,0.0,0.0,0.0,0.0,0.0,0.0,0.0,0.0,-0.9785,-1.0391,-1.084,-1.1063,-1.1917,-1.2328,-1.2328,-1.2719,-1.2905,-1.2905,-1.3176,-1.3481,-1.3815,-1.4445,-1.4059,-1.3011,-1.262,-1.1957,-1.1104,0.0,0.0,0.0,0.0,0.0,0.0,-1.2918,0.0,0.0,0.0,0.0,0.0,0.0,0.0,0.0,0.0,0.0,0.0,0.0,0.0,0.0,-1.5781,-1.5793,-1.5793,-1.5793,-1.5229,-1.4193,0.0,-1.2379,-1.1955,-0.9906,0.0,0.0,0.0,0.0,0.0,-1.4011,-1.5053,-1.5906,-1.6437,-1.6019,-1.5467,-1.4947,-1.4412,-1.3745,-1.2902,-1.2354,-1.1939,-1.1673,-1.0295,-0.9315,0.0,0.0,0.0,0.0,0.0,0.0,0.0,0.0,0.0,0.0,0.0,0.0,0.0,0.0,0.0,0.0,0.0,0.0,0.0,0.0,0.0,0.0,0.0,0.0,0.0,0.0,0.0,0.0,-0.5706,-0.657,-0.657,-0.708,-0.7295,0.0,0.0,0.0,0.0,0.0,0.0,-0.9463,-0.9893,-1.0469,-1.1199,-1.18,-1.2217,-1.2535,-1.2988,-1.3203,-1.3203,-1.3203,-1.3203,-1.3203,-1.3377,-1.3703,-1.4184,-1.4985,-1.5313,-1.5245,-1.4352,-1.3657,-1.3079,-1.2561,-1.2478,0.0,-1.321,-1.3247,-1.3271,-1.5074,-1.5243,-1.4649,-1.4706,0.0,-1.4072,-1.2822,0.0,0.0,0.0,0.0,-1.4068,-1.504,0.0,-1.6007,-1.64,-1.65,-1.65,-1.65,-1.65,-1.5974,0.0,-1.4205,-1.3758,-1.1377,0.0,0.0,0.0,0.0,-1.3998,-1.4984,-1.5567,-1.607,-1.645,-1.6145,-1.568,-1.5148,-1.4614,-1.4042,-1.3483,-1.2914,-1.2601,-1.2601,-1.1148,-1.0257,-1.0119,0.0,0.0,0.0,0.0,0.0,0.0,0.0,0.0,0.0,0.0,0.0,0.0,0.0,0.0,0.0,0.0,0.0,0.0,0.0,0.0,0.0,0.0,0.0,0.0,0.0,0.0,0.0,0.0,0.0,-0.707,-0.7817,0.0,0.0,0.0,0.0,-0.9425,-0.9505,-0.9913,-1.0771,-1.1252,-1.1702,-1.2125,-1.2954,-1.3418,-1.3437,-1.3831,-1.4046,-1.4046,-1.4046,-1.4046,-1.4072,-1.4705,-1.5018,-1.5112,-1.6411,-1.6977,-1.6907,-1.5967,-1.4979,-1.4073,-1.454,-1.4418,-1.4053,-1.4591,-1.5096,-1.5539,-1.5668,-1.568,-1.571,-1.6212,-1.568,-1.4833,-1.4765,-1.4374,0.0,0.0,-1.516,-1.5706,-1.6262,-1.6437,-1.6463,-1.6488,-1.65,-1.65,-1.65,-1.65,-1.6333,0.0,-1.5593,-1.5248,-1.4085,0.0,0.0,-1.3921,-1.4437,-1.5022,-1.558,-1.6132,-1.6463,-1.65,-1.6475,-1.6237,-1.5706,-1.5173,-1.4639,-1.4085,-1.3496,-1.316,-1.316,-1.2102,-1.1236,-1.0669,-0.9053,0.0,0.0,0.0,0.0,0.0,0.0,0.0,0.0,0.0,0.0,0.0,0.0,0.0,0.0,0.0,0.0,0.0,0.0,0.0,0.0,0.0,0.0,0.0,0.0,0.0,0.0,0.0,0.0,-0.8685,-0.9482,0.0,0.0,-0.9862,-1.0137,-1.041,-1.0966,-1.1414,-1.1716,-1.2432,-1.2891,-1.3022,-1.3588,-1.389,-1.389,-1.4036,-1.4104,-1.4104,-1.4104,-1.4104,-1.4114,-1.4344,-1.4688,-1.5159,-1.6101,-1.6739,-1.7121,-1.7251,-1.7074,-1.6753,-1.6953,-1.6698,-1.6293,-1.6842,-1.6933,-1.6835,-1.7187,-1.7074,-1.6748,-1.655,-1.6237,-1.5932,-1.5932,-1.5793,-1.568,-1.5881,-1.607,-1.6249,-1.645,-1.65,-1.65,-1.65,-1.65,-1.65,-1.65,-1.65,-1.6437,-1.6237,-1.6199,-1.5869,-1.4802,-1.5185,-1.5412,-1.4727,-1.5374,-1.6007,-1.6195,-1.6375,-1.65,-1.65,-1.65,-1.6274,-1.5743,-1.5211,-1.4507,-1.3584,-1.2989,-1.2526,-1.219,-1.1422,-1.0921,-1.0694,-0.9453,-0.8448,0.0,0.0,0.0,0.0,0.0,0.0,0.0,0.0,0.0,0.0,0.0,0.0,0.0,0.0,0.0,0.0,0.0,0.0,0.0,0.0,0.0,0.0,0.0,0.0,0.0,0.0,-0.9541,-0.9796,-1.0605,-1.1036,-1.0762,-1.1103,-1.1394,-1.1562,-1.2246,-1.2632,-1.2632,-1.3305,-1.3695,-1.3695,-1.4104,-1.4328,-1.4328,-1.4465,-1.4533,-1.4533,-1.4533,-1.4533,-1.4533,-1.4533,-1.478,-1.5243,-1.5972,-1.667,-1.7326,-1.8066,-1.8511,-1.8706,-1.8342,-1.7978,-1.7702,-1.8078,-1.7978,-1.7714,-1.8078,-1.7965,-1.7589,-1.7212,-1.7064,-1.7064,-1.7064,-1.7064,-1.7064,-1.7064,-1.6948,-1.681,-1.681,-1.6638,-1.65,-1.65,-1.65,-1.65,-1.65,-1.65,-1.65,-1.65,-1.65,-1.6262,-1.5555,-1.6032,-1.6249,-1.5563,-1.6045,-1.65,-1.65,-1.65,-1.65,-1.65,-1.65,-1.635,-1.6007,-1.5311,-1.4582,-1.3817,-1.3077,-1.2513,-1.2153,-1.1412,-1.0996,-1.0996,-0.9918,-0.9101,-0.8562,0.0,0.0,0.0,0.0,0.0,0.0,0.0,0.0,0.0,0.0,0.0,0.0,0.0,0.0,0.0,0.0,0.0,0.0,0.0,0.0,0.0,0.0,0.0,-0.9043,-0.9785,-1.0352,-1.0361,-1.1115,-1.1645,-1.1645,-1.2002,-1.2418,-1.2895,-1.3291,-1.3525,-1.3525,-1.3899,-1.4124,-1.4124,-1.458,-1.4833,-1.4833,-1.5205,-1.541,-1.541,-1.541,-1.541,-1.541,-1.541,-1.5439,-1.5468,-1.6226,-1.6978,-1.7677,-1.8421,-1.915,-1.9698,-1.8656,-1.8242,-1.8229,-1.8242,-1.8254,-1.8254,-1.8242,-1.8229,-1.8229,-1.8216,-1.8204,-1.8204,-1.8204,-1.8204,-1.8204,-1.8204,-1.7815,-1.7423,-1.7423,-1.6974,-1.6525,-1.6525,-1.6513,-1.65,-1.65,-1.65,-1.65,-1.65,-1.65,-1.65,-1.65,-1.65,-1.65,-1.65,-1.65,0.0,-1.65,-1.65,-1.65,-1.65,-1.65,-1.65,-1.65,-1.5525,-1.4884,-1.489,-1.381,-1.3173,-1.3148,-1.2153,-1.1603,-1.1603,-1.0495,-0.9679,-0.9151,0.0,0.0,0.0,0.0,0.0,0.0,0.0,0.0,0.0,0.0,0.0,0.0,0.0,0.0,0.0,0.0,0.0,0.0,0.0,0.0,0.0,0.0,-1.0283,-0.999,-1.0694,-1.1349,-1.1638,-1.2187,-1.2543,-1.2543,-1.291,-1.3203,-1.333,-1.3695,-1.3938,-1.3938,-1.4375,-1.4609,-1.4609,-1.5019,-1.5244,-1.5244,-1.5352,-1.541,-1.541,-1.541,-1.541,-1.541,-1.595,-1.6208,-1.6255,-1.7539,-1.8205,-1.8447,-1.9202,-1.9605,-1.9773,-1.9472,-1.9133,-1.882,-1.9233,-1.9359,-1.9309,-1.8907,-1.8782,-1.8707,-1.8342,-1.8204,-1.8204,-1.8204,-1.8204,-1.8204,-1.8204,-1.8091,-1.7978,-1.7978,-1.7564,-1.7149,-1.7149,-1.6823,-1.65,-1.65,-1.65,-1.65,-1.65,-1.65,-1.65,-1.65,-1.65,-1.65,-1.65,0.0,0.0,-1.65,-1.65,-1.65,-1.65,-1.65,-1.65,-1.65,-1.5525,-1.4739,0.0,-1.3245,-1.245,-1.2065,-1.1751,-1.1603,-1.1603,-1.0858,-1.0407,0.0,0.0,0.0,0.0,0.0,0.0,0.0,0.0,0.0,0.0,0.0,0.0,0.0,0.0,0.0,0.0,0.0,0.0,0.0,0.0,0.0,0.0,-1.0712,-1.1436,-1.1398,-1.1819,-1.223,-1.2471,-1.2725,-1.2974,-1.3125,-1.3359,-1.3584,-1.3734,-1.4133,-1.4377,-1.4377,-1.4814,-1.5049,-1.5049,-1.5283,-1.541,-1.541,-1.541,-1.541,-1.541,-1.541,-1.541,-1.541,-1.5835,-1.6036,0.0,-1.7274,-1.795,-1.8313,-1.9044,-1.9527,0.0,0.0,0.0,0.0,0.0,-1.9798,-1.9761,-1.9434,-1.9334,-1.9271,-1.8982,-1.8882,-1.8882,-1.8882,-1.8882,-1.8882,-1.8882,-1.8719,-1.8531,-1.8531,-1.8141,-1.7727,-1.7727,-1.73,-1.6886,-1.6886,-1.6685,-1.65,-1.65,0.0,0.0,-1.65,-1.65,-1.65,-1.65,-1.65,-1.65,0.0,-1.65,-1.65,-1.65,-1.65,-1.65,-1.65,-1.5718,0.0,0.0,0.0,-1.3094,-1.23,-1.2262,0.0,0.0,0.0,0.0,0.0,0.0,0.0,0.0,-1.0958,-1.1069,0.0,0.0,0.0,0.0,0.0,0.0,0.0,0.0,0.0,0.0,0.0,0.0,0.0,0.0,0.0,0.0,-1.1706,-1.2408,-1.2856,-1.2905,-1.2905,-1.2905,-1.2944,-1.3096,-1.3477,-1.3594,-1.3782,-1.4153,-1.4609,-1.4882,-1.4882,0.0,0.0,0.0,0.0,-1.5508,-1.5566,-1.5566,-1.5566,-1.5566,-1.5508,-1.5508,-1.5557,-1.5596,-1.5683,-1.5869,-1.661,-1.7294,-1.7986,-1.8676,-1.9263,-1.9798,-1.9798,-1.9798,-1.9798,-1.9798,-1.9798,0.0,0.0,0.0,0.0,-1.9798,-1.9798,-1.9798,-1.9798,-1.9798,-1.9798,-1.9798,-1.9472,-1.9096,-1.9096,-1.8682,-1.8292,-1.8292,-1.7877,-1.7498,-1.7498,-1.7024,-1.6588,-1.6588,-1.6538,-1.65,-1.65,-1.65,-1.65,-1.65,-1.65,0.0,-1.65,-1.65,-1.65,-1.65,0.0,0.0,-1.65,-1.6019,-1.5693,-1.5693,-1.5198,-1.4456,-1.3423,-1.3403,-1.3403,-1.3403,-1.3403,-1.3898,-1.4896,-1.4896,-1.4921,-1.4921,-1.2379,-1.1996,0.0,0.0,0.0,0.0,0.0,0.0,0.0,0.0,0.0,0.0,0.0,0.0,0.0,0.0,0.0,-1.1369,-1.2201,-1.2807,-1.2895,-1.2905,-1.2905,-1.2905,-1.3184,-1.3418,-1.3496,-1.4131,-1.457,-1.4658,-1.5049,-1.5293,-1.5293,-1.5371,0.0,-1.5958,-1.5968,-1.6113,-1.6443,-1.6443,-1.6443,-1.6443,0.0,0.0,-1.6465,-1.6728,-1.7413,-1.8437,-1.9171,-1.9721,-2.0101,-2.0236,-2.0107,-1.9798,-1.9798,-1.9798,-1.9798,-1.9798,-1.9798,-1.9798,-1.9798,-1.9798,-1.9798,-1.9798,-1.9798,-1.9798,-1.9798,-1.9798,0.0,-1.9798,-1.9736,-1.966,-1.966,-1.9233,-1.8845,-1.8845,-1.8442,-1.8053,-1.8053,-1.7601,-1.7234,-1.7234,-1.6835,-1.65,-1.65,-1.65,-1.65,-1.65,-1.65,-1.65,-1.65,-1.65,-1.65,-1.65,-1.65,-1.65,-1.65,-1.6019,-1.5693,-1.5693,-1.5198,-1.4796,-1.4582,-1.4569,-1.4569,-1.4569,-1.4569,-1.4683,-1.4896,-1.4896,-1.5123,-1.5517,-1.4544,-1.4475,0.0,0.0,0.0,0.0,0.0,0.0,0.0,0.0,0.0,0.0,0.0,-0.9549,-1.0185,0.0,-1.1709,-1.2171,-1.2621,-1.2905,-1.2905,-1.2905,-1.2905,-1.2905,-1.3252,-1.3584,-1.3773,-1.4404,-1.4873,-1.5078,-1.5293,-1.5508,-1.5723,-1.5732,-1.5937,-1.6387,-1.6396,-1.6504,-1.6697,-1.6697,-1.6697,-1.6697,-1.6504,-1.6514,-1.6697,-1.6867,-1.7532,-1.8583,-1.9349,-1.9998,-2.0585,-2.0957,-2.0767,-2.0264,-2.0264,-2.0062,-1.9798,-1.9798,-1.9798,-1.9798,-1.9798,-1.9798,-1.9798,-1.9798,-1.9798,-1.9798,-1.9798,-1.9798,-1.9798,-1.9798,-1.9798,-1.9798,-1.9798,-1.961,-1.9384,-1.9384,-1.8983,-1.8594,-1.8594,-1.7965,-1.741,-1.741,-1.6911,-1.65,-1.65,-1.65,-1.65,-1.65,-1.65,-1.65,-1.65,-1.65,-1.65,-1.65,-1.65,-1.65,-1.65,-1.6237,-1.6107,-1.6107,-1.5856,-1.5567,-1.5311,-1.5299,-1.5299,-1.5299,-1.5299,-1.5417,-1.5693,-1.5693,-1.5831,-1.6095,-1.5831,-1.5844,0.0,0.0,0.0,0.0,0.0,0.0,0.0,0.0,-0.9001,-0.9815,-1.0352,-1.089,-1.1584,-1.2061,-1.2447,-1.2846,-1.3086,-1.3184,-1.3047,-1.3145,-1.3194,-1.3023,-1.3369,-1.3734,-1.4075,-1.4609,-1.5049,-1.5391,-1.541,-1.5596,-1.6065,-1.6095,-1.6339,-1.6804,-1.6824,-1.6863,-1.695,-1.695,-1.695,-1.695,-1.6863,-1.6872,-1.6941,-1.6863,-1.7351,-1.8311,-1.911,-1.9971,-2.081,-2.1294,-2.1257,-2.0855,-2.0855,-2.0503,-1.9962,-1.9849,-1.9798,-1.9798,-1.9798,-1.9798,-1.9798,-1.9798,-1.9798,-1.9798,-1.9798,-1.9798,-1.9798,-1.9798,-1.9798,-1.9798,-1.9798,-1.9798,-1.9798,-1.9798,-1.9459,-1.9158,-1.9158,-1.8392,-1.7702,-1.7702,-1.7149,-1.6663,-1.6663,-1.6575,-1.65,-1.65,-1.65,-1.65,-1.65,-1.65,-1.65,-1.65,-1.65,-1.65,-1.65,-1.65,-1.65,-1.65,-1.65,-1.63,-1.5869,-1.5856,-1.5856,-1.5856,-1.5856,-1.607,-1.65,-1.65,-1.65,-1.65,-1.65,-1.65,-0.6742,-0.7267,-0.7827,-0.8603,-0.86,-0.8884,0.0,0.0,-1.0332,-1.1193,-1.1699,-1.2018,-1.2116,-1.251,-1.2846,-1.2895,-1.3756,-1.4175,-1.3539,-1.4012,-1.4175,-1.3504,-1.3782,-1.4055,-1.4104,-1.4835,-1.5361,-1.541,-1.541,-1.5596,-1.6065,-1.6095,-1.6476,-1.7285,-1.7314,-1.749,-1.7861,-1.7861,-1.7861,-1.7861,-1.749,-1.751,-1.7852,-1.748,-1.7984,-1.9218,-2.0323,-2.1295,-2.2068,-2.1666,-2.1455,-2.1393,-2.1393,-2.1081,-2.0528,-1.9987,-1.9798,-1.9798,-1.9798,-1.9798,-1.9798,-1.9798,-1.9798,-1.9798,-1.9798,-1.9798,-1.9798,-1.9798,-1.9798,-1.9798,-1.9798,-1.9798,-1.9798,-1.9798,-1.9761,-1.971,-1.971,-1.9233,-1.882,-1.882,-1.8003,-1.731,-1.731,-1.6861,-1.65,-1.65,-1.65,-1.65,-1.65,-1.65,-1.65,-1.65,-1.65,-1.65,-1.65,-1.65,-1.65,-1.65,-1.65,-1.6475,-1.64,-1.64,-1.64,-1.64,-1.64,-1.6437,-1.65,-1.65,-1.65,-1.65,-1.65,-1.65,-0.8226,-0.887,0.0,0.0,-1.0186,-1.0791,-1.1438,-1.1506,-1.1592,-1.223,-1.248,-1.2607,-1.2607,-1.2778,-1.312,0.0,-1.3936,-1.4074,-1.4456,-1.4195,-1.3841,-1.3531,-1.3851,-1.4104,-1.4104,-1.4874,-1.541,-1.541,-1.5644,-1.5986,-1.6436,-1.6699,-1.7142,-1.7734,-1.7744,-1.7832,-1.8008,-1.8008,-1.8008,-1.8008,-1.7832,-1.7842,-1.8008,-1.7832,-1.8581,-2.0096,-2.1101,-2.2013,-2.2744,-2.2506,-2.2259,-2.197,-2.197,-2.1458,-2.0666,-2.0427,-2.0087,-1.9798,-1.9798,-1.9798,-1.9798,-1.9798,-1.9798,-1.9798,-1.9798,-1.9798,-1.9798,-1.9798,-1.9798,-1.9798,-1.9798,-1.9798,-1.9798,-1.9798,-1.9798,-1.9798,-1.9798,-1.9371,-1.9008,-1.9008,-1.8392,-1.7765,-1.7461,-1.7187,-1.6911,-1.655,-1.65,-1.65,-1.65,-1.65,-1.65,-1.65,-1.65,-1.65,-1.65,-1.65,-1.65,-1.65,-1.65,-1.65,-1.65,-1.65,-1.65,-1.65,-1.65,-1.65,-1.65,-1.65,-1.65,-1.65,-1.65,-1.65,-0.9139,0.0,0.0,-1.0596,-1.1436,-1.2155,-1.1995,-1.2178,-1.25,-1.2837,-1.2905,-1.2905,-1.2905,-1.3041,-1.3373,-1.401,-1.4214,-1.4404,-1.4842,-1.4357,-1.3943,-1.3874,-1.3997,-1.4153,-1.427,-1.4952,-1.541,-1.541,-1.584,-1.629,-1.6677,-1.7148,-1.7578,-1.7998,-1.8008,-1.8008,-1.8008,-1.8008,-1.8008,-1.8008,-1.8008,-1.8008,-1.8008,-1.8008,-1.8821,-2.0301,-2.1164,-2.2002,-2.2793,-2.3017,-2.2869,-2.2506,-2.2506,-2.1958,-2.1144,-2.1144,-2.0564,-1.9798,-1.9798,-1.9798,-1.9798,-1.9798,-1.9798,-1.9798,-1.9798,-1.9798,-1.9798,-1.9798,-1.9798,-1.9798,-1.9798,-1.9798,-1.9798,-1.9798,-1.9798,-1.9798,-1.9798,-1.9484,-1.9221,-1.9221,-1.8782,-1.8304,-1.7903,-1.7714,-1.7413,-1.6848,-1.676,-1.6697,-1.6513,-1.65,-1.65,-1.65,-1.65,-1.65,-1.65,-1.65,-1.65,-1.65,-1.65,-1.65,-1.65,-1.65,-1.65,-1.65,-1.65,-1.65,-1.65,-1.65,-1.65,-1.65,-1.65,-1.65,0.0,0.0,-1.0498,-1.1361,-1.1875,-1.2311,-1.2768,-1.2876,-1.2886,-1.2905,-1.2905,-1.2905,-1.2905,-1.3372,-1.36,-1.3036,-1.474,-1.5658,-1.4307,-1.4716,-1.5054,-1.4798,-1.4385,-1.427,0.0,-1.5156,-1.541,-1.541,-1.584,-1.629,-1.6677,-1.7148,-1.7578,-1.7998,-1.8008,-1.8008,-1.8008,-1.8008,-1.8008,-1.8008,-1.8008,-1.8008,-1.8008,-1.8008,-1.8496,-1.9398,-2.0268,-2.1132,-2.2013,-2.2793,-2.3095,-2.3083,-2.3083,-2.2732,-2.2259,-2.2259,-2.1217,-1.9798,-1.9798,-1.9798,-1.9798,-1.9798,-1.9798,-1.9798,-1.9798,-1.9798,-1.9798,-1.9798,-1.9798,-1.9798,-1.9798,-1.9798,-1.9798,-1.9798,-1.9798,-1.9798,-1.9798,-1.9798,-1.9773,-1.9773,-1.9334,-1.897,-1.8958,-1.8506,-1.799,-1.7461,-1.7373,-1.7149,-1.6584,-1.65,-1.65,-1.65,-1.65,-1.65,-1.65,-1.65,-1.65,-1.65,-1.65,-1.65,-1.65,-1.65,-1.65,-1.65,-1.65,-1.65,-1.65,-1.65,-1.65,-1.65,-1.65,-1.65,0.0,0.0,-1.1291,-1.1855,-1.2334,-1.2695,-1.2866,-1.2905,-1.2905,-1.2905,-1.2905,-1.2905,-1.2905,-1.3065,-1.3377,-1.393,-1.4461,-1.4928,-1.5252,-1.5087,-1.4902,-1.4821,-1.4658,0.0,0.0,0.0,0.0,-1.541,-1.6094,-1.6572,-1.6697,-1.7412,-1.7861,-1.8008,-1.8008,-1.8008,-1.8008,-1.8008,-1.8008,-1.8008,-1.8008,-1.8008,-1.8008,-1.8008,-1.8496,-1.9332,-2.0236,-2.1101,-2.197,-2.2763,-2.3108,-2.3108,-2.3108,-2.2769,-2.2309,-2.2309,-2.1493,-2.0402,-2.0402,-2.0151,-1.9798,-1.9798,-1.9798,-1.9798,-1.9798,-1.9798,-1.9798,-1.9798,-1.9798,-1.9798,-1.9798,-1.9798,-1.9798,-1.9798,-1.9798,-1.9798,-1.9798,-1.9798,-1.9798,-1.9798,-1.966,-1.9409,-1.9058,-1.8845,-1.8442,-1.7513,-1.7049,-1.6735,-1.6525,-1.65,-1.65,-1.65,-1.65,-1.65,-1.65,-1.65,-1.65,-1.65,-1.65,-1.65,-1.65,-1.65,-1.65,-1.65,-1.65,-1.65,-1.65,-1.65,-1.65,-1.65,-1.65,-1.6701,-1.083,-1.1369,-1.1731,-1.2314,-1.2676,-1.2905,-1.2905,-1.2905,-1.2842,-1.2676,-1.2646,-1.2598,-1.2465,-1.2613,-1.2976,-1.3652,-1.4013,-1.4455,-1.5157,-1.4999,-1.493,-1.5234,-1.5136,0.0,0.0,0.0,0.0,-1.5654,-1.6465,-1.6963,-1.6963,-1.7627,-1.8008,-1.8008,-1.8008,-1.8008,-1.8008,-1.8008,-1.8008,-1.8008,-1.8008,-1.8008,-1.8008,-1.8008,-1.8303,-1.8877,-1.9748,-2.0623,-2.1491,-2.231,-2.2854,-2.3108,-2.3108,-2.2895,-2.2581,-2.2581,-2.2033,-2.1257,-2.1056,-2.0478,-1.9836,-2.0037,-1.9974,-1.9798,-1.9798,-1.9798,-1.9798,-1.9798,-1.9798,-1.9798,-1.9798,-1.9798,-1.9798,-1.9798,-1.9798,-1.9798,-1.9798,-1.9798,-1.9798,-1.9798,-1.9798,-1.9698,-1.9334,-1.9121,-1.877,-1.8078,-1.7325,-1.6748,-1.6525,-1.65,-1.65,-1.65,-1.65,-1.65,-1.65,-1.65,-1.65,-1.65,-1.65,-1.65,-1.65,-1.65,-1.65,-1.65,-1.65,-1.65,-1.65,-1.65,-1.65,-1.65,-1.6713,-1.7024,-1.1389,-1.1655,-1.1881,-1.269,-1.2905,-1.2905,-1.2905,-1.2886,-1.2725,-1.2262,-1.2155,-1.2008,-1.1604,0.0,-1.2379,-1.2188,-1.3419,-1.4312,-1.4125,-1.4551,-1.5175,0.0,0.0,0.0,0.0,0.0,0.0,-1.6193,0.0,-1.7383,-1.7383,-1.7783,-1.8008,-1.8008,-1.8008,-1.8008,-1.8008,-1.8008,-1.8008,-1.8008,-1.8008,-1.8008,-1.8008,-1.8008,-1.8008,-1.8042,-1.8911,-1.9759,-2.059,-2.1459,-2.2322,-2.3047,-2.3047,-2.3078,-2.3108,-2.3108,-2.2757,-2.2234,-2.1744,-2.0828,-1.9974,-2.0515,-2.0314,-1.9836,-1.9811,-1.9798,-1.9798,-1.9798,-1.9798,-1.9798,-1.9798,-1.9798,-1.9798,-1.9798,-1.9798,-1.9798,-1.9798,-1.9798,-1.9798,-1.9798,-1.9798,-1.9798,-1.9798,-1.9346,-1.9008,-1.9008,-1.8116,-1.7212,-1.6613,-1.6513,-1.65,-1.65,-1.65,-1.65,-1.65,-1.65,-1.65,-1.65,-1.65,-1.65,-1.65,-1.65,-1.65,-1.65,-1.65,-1.65,-1.65,-1.65,-1.6513,-1.655,-1.7124,-1.7436,-1.1769,-1.2295,-1.2621,-1.2846,-1.2905,-1.2905,-1.2905,-1.2627,-1.2275,-1.1848,-1.1475,-1.1113,-1.0704,0.0,0.0,-1.1753,-1.3135,0.0,-1.4121,-1.5059,0.0,-1.6065,0.0,-1.6453,-1.6677,-1.7031,0.0,0.0,-1.7256,-1.7383,-1.7383,-1.7783,-1.8008,-1.8008,-1.8008,-1.8008,-1.8008,-1.8008,-1.8008,-1.8008,-1.8008,-1.8008,-1.8008,-1.8008,-1.8008,-1.8042,-1.8911,-1.9431,-1.9683,-2.0558,-2.1416,-2.2199,-2.2199,-2.2567,-2.3108,-2.3108,-2.2757,-2.2347,-2.2594,-2.1983,-2.1016,-2.0779,-2.0591,-2.039,-1.9936,-1.9798,-1.9798,-1.9798,-1.9798,-1.9798,-1.9798,-1.9798,-1.9798,-1.9798,-1.9798,-1.9798,-1.9798,-1.9798,-1.9798,-1.9798,-1.9798,-1.9798,-1.9798,-1.9346,-1.9008,-1.9008,-1.8442,-1.779,-1.7237,-1.6785,-1.65,-1.65,-1.65,-1.65,-1.65,-1.65,-1.65,-1.65,-1.65,-1.65,-1.65,-1.65,-1.65,-1.65,-1.65,-1.65,-1.65,-1.65,-1.6735,-1.7162,-1.7335,-1.7827,-1.2205,-1.2695,-1.2905,-1.2905,-1.2905,-1.2798,-1.2416,-1.2132,-1.1709,-1.0879,-1.0518,0.0,-0.9795,0.0,0.0,0.0,0.0,0.0,-1.4085,-1.5244,-1.6163,0.0,-1.6748,0.0,-1.7243,-1.7519,-1.7656,0.0,-1.7656,-1.7656,-1.7656,-1.7881,-1.8008,-1.8008,-1.8008,-1.8008,-1.8008,-1.8008,-1.8008,-1.8008,-1.8008,-1.8008,-1.8008,-1.8008,-1.8008,-1.8042,0.0,-1.8944,-1.9332,-1.9814,-2.0526,-2.1333,-2.1333,-2.1846,-2.2567,-2.2567,-2.2595,-2.2681,-2.2995,-2.2706,-2.2121,-2.1568,-2.1257,-2.0993,-2.0639,-2.0376,-2.0175,-2.0175,-1.9999,-1.9798,-1.9798,-1.9798,-1.9798,-1.9798,-1.9798,-1.9798,-1.9798,-1.9798,-1.9798,-1.9798,-1.9798,-1.9798,-1.9798,-1.956,-1.9334,-1.9334,-1.8882,-1.8455,-1.8141,-1.74,-1.6898,-1.6898,-1.6651,-1.65,-1.65,-1.65,-1.65,-1.65,-1.65,-1.65,-1.65,-1.65,-1.65,-1.65,-1.65,-1.65,-1.65,-1.6773,-1.7061,-1.741,-1.7877,-1.8406,-1.257,-1.2905,-1.2905,-1.2905,-1.2905,-1.269,-1.1858,-1.1584,-1.1144,-0.9874,0.0,-0.9318,-0.8899,-0.958,-1.0332,-1.0752,0.0,-1.3594,-1.4036,-1.5244,-1.6261,-1.6648,-1.7168,-1.7607,-1.7978,-1.8008,-1.8008,-1.8008,-1.8008,-1.8008,-1.8008,-1.8008,-1.8008,-1.8008,-1.8008,-1.8008,-1.8008,-1.8008,-1.8008,-1.8008,-1.8008,-1.8008,-1.8008,-1.8008,-1.8008,-1.8008,0.0,0.0,-1.9144,-1.9144,-1.965,-2.043,-2.0558,-2.1132,-2.1908,-2.2002,-2.2506,-2.3108,-2.3108,-2.3108,-2.3007,-2.2456,-2.1995,-2.1581,-2.1506,-2.1131,-2.0691,-2.0691,-2.0277,-1.9798,-1.9798,-1.9798,-1.9798,-1.9798,-1.9798,-1.9798,-1.9798,-1.9798,-1.9798,-1.9798,-1.9798,-1.9798,-1.9798,-1.9798,-1.9798,-1.9798,-1.9384,-1.9108,-1.9108,-1.8179,-1.7486,-1.741,-1.6936,-1.6588,-1.65,-1.65,-1.65,-1.65,-1.65,-1.65,-1.65,-1.65,-1.65,-1.65,-1.65,-1.65,-1.65,-1.7099,-1.7448,-1.7536,-1.8519,-1.9045,-1.2525,-1.2905,-1.2905,-1.2905,-1.2905,-1.2768,-1.2227,-1.1553,0.0,0.0,-0.9082,-0.8467,-0.8012,-0.8919,-0.9864,-1.0322,0.0,0.0,0.0,0.0,-1.6261,0.0,0.0,0.0,0.0,0.0,0.0,0.0,0.0,0.0,-1.8008,-1.8008,-1.8008,-1.8008,-1.8008,-1.8008,-1.8008,-1.8008,-1.8008,-1.8008,-1.8008,-1.8008,-1.8008,-1.8008,-1.8008,-1.8008,0.0,0.0,-1.8236,-1.8236,-1.8754,-1.9595,-2.0333,-2.1132,-2.197,-2.2641,-2.2975,-2.3108,-2.3108,-2.3108,-2.3007,-2.2456,-2.2246,-2.2083,-2.1631,-2.1131,-2.0691,-2.0691,-2.0277,-1.9798,-1.9798,-1.9798,-1.9798,-1.9798,-1.9798,-1.9798,-1.9798,-1.9798,-1.9798,-1.9798,-1.9798,-1.9798,-1.9798,-1.9798,-1.9798,-1.9798,-1.9723,-1.966,-1.966,-1.8731,-1.789,-1.7461,-1.7322,-1.7036,-1.6538,-1.65,-1.65,-1.65,-1.65,-1.65,-1.65,-1.65,-1.65,-1.65,-1.65,-1.65,-1.65,-1.7099,-1.7637,-1.8078,-1.8707,-1.9233,-1.252,-1.2905,-1.2905,-1.2905,-1.2905,-1.2588,-1.1475,0.0,0.0,0.0,-0.8305,-0.7963,-0.7734,0.0,0.0,0.0,0.0,0.0,0.0,0.0,0.0,0.0,0.0,0.0,0.0,0.0,0.0,0.0,0.0,0.0,0.0,-1.8008,-1.8008,-1.8008,-1.8008,-1.8008,-1.8008,-1.8008,-1.8008,-1.8008,-1.8008,-1.8008,-1.8008,-1.8008,-1.8008,-1.8008,0.0,0.0,-1.8008,-1.8008,-1.8236,-1.8721,-1.9584,-2.0462,-2.1333,-2.2156,-2.2732,-2.3108,-2.3108,-2.3108,-2.3058,-2.2794,-2.2706,-2.2656,-2.2393,-2.1757,-2.1119,-2.1119,-2.0476,-1.9798,-1.9798,-1.9798,-1.9798,-1.9798,-1.9798,-1.9798,-1.9798,-1.9798,-1.9798,-1.9798,-1.9475,-1.9345,-1.9721,-1.9475,-1.9371,-1.9747,-1.9798,-1.9798,-1.9798,-1.9359,-1.8832,-1.8292,-1.7451,-1.6936,-1.6974,-1.6685,-1.65,-1.65,-1.6798,-1.6974,-1.6974,-1.725,-1.7365,-1.7365,-1.7365,-1.7365,-1.74,-1.7965,-1.8356,-1.8619,-1.9183,-1.956,-1.2329,-1.2774,-1.2905,-1.2905,-1.2905,-1.2475,-1.0811,-1.0361,0.0,0.0,-0.7763,-0.7695,-0.7695,0.0,-0.9043,0.0,0.0,0.0,0.0,0.0,0.0,0.0,0.0,0.0,0.0,0.0,0.0,0.0,0.0,0.0,0.0,-1.8008,-1.8008,-1.8008,-1.8008,-1.8008,-1.8008,-1.8008,-1.8008,-1.8008,-1.8008,-1.8008,-1.8008,-1.8008,-1.8008,-1.8008,0.0,0.0,0.0,-1.8008,-1.8008,-1.8076,-1.8944,-1.9726,-2.043,-2.1302,-2.2032,-2.2598,-2.2793,-2.2854,-2.2884,-2.3035,-2.3108,-2.3108,-2.3108,-2.2359,-2.1493,-2.1493,-2.0677,-1.9798,-1.9798,-1.9798,-1.9747,-1.9605,-1.9553,-1.9527,-1.9371,-1.9333,-1.9333,-1.9333,-1.8847,-1.8661,-1.9228,-1.8847,-1.8661,-1.9228,-1.9333,-1.9397,-1.9527,-1.9454,-1.9331,-1.9196,-1.7892,-1.7114,-1.7385,-1.7074,-1.6751,-1.6513,-1.7174,-1.7524,-1.741,-1.7915,-1.8204,-1.8204,-1.8204,-1.8204,-1.8204,-1.8732,-1.9008,-1.9008,-1.956,-1.9798,-1.169,-1.2403,-1.2905,-1.2905,-1.2905,-1.2553,-1.1162,0.0,0.0,-0.861,-0.7993,-0.7695,-0.7695,-0.8115,-0.8718,0.0,0.0,-1.1436,0.0,0.0,0.0,0.0,0.0,0.0,0.0,0.0,0.0,0.0,0.0,0.0,0.0,-1.8008,-1.8008,-1.8008,-1.8008,-1.8008,-1.8008,-1.8008,-1.8008,-1.8008,-1.8008,-1.8008,-1.8008,-1.8008,-1.8008,-1.8008,0.0,0.0,0.0,-1.8008,-1.8008,-1.8076,-1.8944,-1.9332,-1.9529,-2.0398,-2.0782,-2.0942,-2.1753,-2.2002,-2.2137,-2.2854,-2.3108,-2.3108,-2.3108,-2.2359,-2.1493,-2.1493,-2.0677,-1.9798,-1.9798,-1.9798,-1.9631,-1.8953,-1.8794,-1.8608,-1.7961,-1.7786,-1.7786,-1.7786,-1.7743,-1.7715,-1.7797,-1.7743,-1.7715,-1.7797,-1.7786,-1.8031,-1.8715,-1.8376,-1.8514,-1.9596,-1.9146,-1.8393,-1.7486,-1.779,-1.7591,-1.6563,-1.7526,-1.7903,-1.7423,-1.7915,-1.8204,-1.8204,-1.8204,-1.8204,-1.8204,-1.8732,-1.9008,-1.9008,-1.956,-1.9798,-1.2132,-1.2691,-1.2905,-1.2905,-1.2905,-1.2494,-1.0889,0.0,-0.9862,-0.8311,-0.7827,-0.7695,-0.7695,-0.7856,-0.8246,-0.9104,-0.9523,-1.0303,-1.1888,0.0,0.0,0.0,0.0,0.0,0.0,0.0,0.0,0.0,0.0,0.0,0.0,0.0,-1.8008,-1.8008,-1.8008,-1.8008,-1.8008,-1.8008,-1.8008,-1.8008,-1.8008,-1.8008,-1.8008,-1.8008,-1.8008,0.0,0.0,0.0,0.0,-1.8008,-1.8008,-1.8076,-1.8944,-1.9299,-1.9398,-2.0268,-2.059,-2.0655,-2.1017,-2.1101,-2.1164,-2.1479,-2.1604,-2.1772,-2.2781,-2.2359,-2.1397,-2.0949,-2.0028,-1.9044,-1.8581,-1.8474,-1.8394,-1.8124,-1.8031,-1.7961,-1.7649,-1.7605,-1.7605,-1.7605,-1.7246,-1.709,-1.7523,-1.7219,-1.709,-1.7523,-1.7605,-1.7715,-1.8015,-1.7859,-1.792,-1.8424,-1.8484,-1.8469,-1.838,-1.8267,-1.8016,-1.7541,-1.8243,-1.8581,-1.838,-1.8882,-1.9158,-1.9158,-1.9158,-1.8946,-1.8504,-1.9144,-1.9256,-1.8832,-1.9492,-1.9798,-1.2038,-1.2653,-1.2905,-1.2905,-1.2807,-1.2266,0.0,-1.0186,-0.9639,-0.8041,-0.7695,-0.7695,-0.7695,-0.7695,-0.7954,-0.8701,-0.9023,-0.9697,-1.1183,-1.2377,0.0,0.0,0.0,0.0,0.0,0.0,0.0,0.0,0.0,0.0,0.0,0.0,-1.8008,-1.8008,-1.8008,-1.8008,-1.8008,-1.8008,-1.8008,-1.8008,-1.8008,-1.8008,-1.8008,-1.8008,-1.8008,0.0,0.0,0.0,0.0,-1.8008,-1.8008,-1.8076,-1.8687,-1.8921,-1.8977,-1.9595,-1.9814,-1.989,-2.0139,-2.0204,-2.0268,-2.0526,-2.059,-2.0814,-2.199,-2.1697,-2.0817,-2.0199,-1.9228,-1.8259,-1.7731,-1.7605,-1.755,-1.733,-1.7274,-1.7219,-1.6996,-1.694,-1.694,-1.694,-1.6528,-1.634,-1.6856,-1.6528,-1.634,-1.6884,-1.694,-1.7024,-1.7246,-1.7274,-1.7357,-1.7578,-1.784,-1.8103,-1.8346,-1.8164,-1.7983,-1.7882,-1.8524,-1.8945,-1.9008,-1.9522,-1.9798,-1.9798,-1.9798,-1.9527,-1.9044,-1.9553,-1.9527,-1.9044,-1.9553,-1.9798,-1.1091,-1.2043,-1.2905,-1.2905,-1.2559,-1.1872,0.0,-0.9951,-0.9242,-0.7958,-0.7695,-0.7695,-0.7695,-0.7695,-0.7856,-0.8326,-0.9065,-0.9913,-1.0771,-1.2412,0.0,0.0,0.0,0.0,0.0,0.0,0.0,0.0,0.0,0.0,0.0,0.0,-1.8008,-1.8008,-1.8008,-1.8008,-1.8008,-1.8008,-1.8008,-1.8008,-1.8008,-1.8008,-1.8008,-1.8008,0.0,0.0,0.0,0.0,0.0,-1.8008,-1.8008,-1.8008,-1.8008,-1.8008,-1.8008,-1.8008,-1.8042,-1.8144,-1.9011,-1.9299,-1.9464,-2.0333,-2.059,-2.059,-2.0623,-2.02,-1.9624,-1.9246,-1.8395,-1.7605,-1.7605,-1.7605,-1.7413,-1.668,-1.651,-1.6322,-1.5575,-1.541,-1.541,-1.541,-1.541,-1.541,-1.541,-1.541,-1.541,-1.541,-1.541,-1.57,-1.6436,-1.651,-1.6793,-1.7523,-1.7594,-1.7393,-1.6859,-1.7315,-1.7463,-1.7118,-1.8106,-1.8789,-1.8995,-1.9522,-1.9798,-1.9798,-1.9798,-1.9798,-1.9798,-1.9798,-1.9798,-1.9798,-1.9798,-1.9798,-1.0364,-1.1053,-1.1465,-1.1193,-1.1006,-1.0635,-0.9639,-0.9307,-0.8909,-0.79,-0.7695,-0.7695,-0.7695,-0.7695,-0.8026,-0.9055,-0.9445,0.0,0.0,0.0,0.0,0.0,0.0,0.0,0.0,0.0,0.0,0.0,0.0,0.0,0.0,0.0,0.0,-1.8008,-1.8008,-1.8008,-1.8008,-1.8008,-1.8008,-1.8008,-1.8008,-1.8008,-1.8008,0.0,0.0,0.0,0.0,0.0,0.0,-1.8008,-1.8008,-1.8008,-1.8008,-1.8008,-1.8008,-1.8008,-1.8008,-1.8042,-1.8337,-1.8395,-1.8462,-1.8721,-1.8821,-1.8821,-1.8821,-1.9265,-1.9488,-1.8173,-1.6971,-1.6112,-1.6112,-1.6112,-1.6054,-1.5806,-1.5748,-1.569,-1.5439,-1.541,-1.541,-1.541,-1.541,-1.541,-1.541,-1.541,-1.541,-1.541,-1.541,-1.5468,-1.5729,-1.5748,-1.5835,-1.6073,-1.6112,-1.6437,-1.7273,-1.7489,-1.7553,-1.7452,-1.7752,-1.7974,-1.8027,-1.8205,-1.8313,-1.8313,-1.8794,-1.8555,-1.755,-1.8555,-1.8794,-1.8313,-1.8313,-1.8313,-0.9451,-1.0225,-1.0605,-1.0361,-1.0175,-0.9853,-0.916,-0.8877,-0.8574,-0.7841,-0.7695,-0.7695,-0.7695,-0.7695,-0.8022,-0.8987,-0.9406,0.0,0.0,0.0,0.0,0.0,0.0,0.0,0.0,0.0,0.0,0.0,0.0,0.0,0.0,0.0,0.0,-1.8008,-1.8008,-1.8008,-1.8008,-1.8008,-1.8008,-1.8008,-1.8008,-1.8008,-1.8008,0.0,0.0,0.0,0.0,0.0,0.0,-1.8008,-1.8008,-1.8008,-1.8008,-1.8008,-1.8008,-1.8008,-1.8008,-1.8008,-1.8008,-1.8008,-1.8008,-1.8008,-1.8008,-1.8008,-1.8008,-1.8415,-1.8617,-1.7359,-1.6347,-1.5615,-1.5459,-1.541,-1.541,-1.541,-1.541,-1.541,-1.541,-1.541,-1.541,-1.541,-1.541,-1.541,-1.541,-1.541,-1.541,-1.541,-1.541,-1.541,-1.541,-1.541,-1.541,-1.541,-1.541,-1.5777,-1.6687,-1.6771,-1.6884,-1.7163,-1.7191,-1.7302,-1.7578,-1.7605,-1.7605,-1.7605,-1.8058,-1.7813,-1.6922,-1.7852,-1.8058,-1.7605,-1.7605,-1.7605,0.0,-0.9404,-1.0068,-1.0038,-0.9707,-0.9271,-0.8938,-0.8574,0.0,-0.7788,-0.7695,-0.7715,-0.7783,-0.7763,-0.7944,-0.8532,0.0,0.0,0.0,0.0,0.0,0.0,0.0,0.0,0.0,0.0,0.0,0.0,0.0,0.0,0.0,0.0,0.0,0.0,-1.8008,-1.8008,-1.8008,-1.8008,-1.8008,-1.8008,-1.8008,-1.8008,-1.8008,0.0,0.0,0.0,0.0,0.0,0.0,-1.8008,-1.8008,-1.8008,-1.8008,-1.8008,-1.8008,-1.8008,-1.8008,-1.8008,-1.8008,-1.8008,-1.8008,-1.8008,-1.8008,-1.8008,-1.8008,-1.7695,-1.7256,-1.6814,-1.6387,-1.5948,-1.5518,-1.541,-1.541,-1.541,-1.541,-1.541,-1.541,-1.541,-1.541,-1.541,-1.541,-1.541,-1.541,-1.541,-1.541,-1.541,-1.541,-1.541,-1.541,-1.541,-1.541,-1.541,-1.541,-1.541,-1.541,-1.541,-1.569,-1.6379,-1.6436,-1.6736,-1.7413,-1.744,-1.744,-1.744,-1.744,-1.7468,-1.7523,-1.7468,-1.744,-1.744,-1.744,-1.744,-0.6438,0.0,-0.7764,-0.7402,-0.7236,-0.7213,0.0,-0.7471,-0.7461,-0.7656,-0.7695,-0.7915,-0.8568,-0.8437,-0.8806,0.0,0.0,0.0,0.0,0.0,0.0,0.0,0.0,0.0,0.0,0.0,0.0,0.0,0.0,0.0,0.0,0.0,0.0,0.0,-1.8008,-1.8008,-1.8008,-1.8008,-1.8008,-1.8008,-1.8008,-1.8008,0.0,0.0,0.0,0.0,0.0,0.0,0.0,-1.8008,-1.8008,-1.8008,-1.8008,-1.8008,-1.8008,-1.8008,-1.8008,-1.8008,-1.8008,-1.8008,-1.8008,-1.8008,-1.8008,-1.8008,-1.8008,-1.748,-1.6833,-1.6726,-1.6132,-1.5537,-1.5439,-1.541,-1.541,-1.541,-1.541,-1.541,-1.541,-1.541,-1.541,-1.541,-1.541,-1.541,-1.541,-1.541,-1.541,-1.541,-1.541,-1.541,-1.541,-1.541,-1.541,-1.541,-1.541,-1.541,-1.541,-1.541,-1.5468,-1.5642,-1.5671,-1.5748,-1.5911,-1.5911,-1.5911,-1.5911,-1.5911,-1.6197,-1.6765,-1.6197,-1.5911,-1.5911,-1.5911,-1.5911,-0.5479,-0.6562,-0.7641,-0.7373,-0.7451,-0.7666,-0.792,-0.7652,-0.7437,-0.7656,0.0,-0.7915,-0.8594,-0.8691,0.0,0.0,0.0,0.0,0.0,0.0,0.0,0.0,0.0,0.0,0.0,0.0,0.0,0.0,0.0,0.0,0.0,0.0,0.0,0.0,0.0,-1.8008,-1.8008,-1.8008,-1.8008,-1.8008,-1.8008,-1.8008,0.0,0.0,0.0,0.0,0.0,0.0,-1.8008,-1.8008,-1.8008,-1.8008,-1.8008,-1.8008,-1.8008,-1.8008,-1.8008,-1.8008,-1.8008,-1.8008,-1.8008,-1.8008,-1.8008,-1.8008,-1.8008,-1.7379,-1.6697,-1.6697,-1.624,-1.5664,-1.5469,-1.541,-1.541,-1.541,-1.541,-1.541,-1.541,-1.541,-1.541,-1.541,-1.541,-1.541,-1.541,-1.541,-1.541,-1.541,-1.541,-1.541,-1.541,-1.541,-1.541,-1.541,-1.541,-1.541,-1.541,-1.541,-1.541,-1.541,-1.541,-1.541,-1.541,-1.541,-1.541,-1.541,-1.541,-1.5613,-1.5979,-1.5584,-1.541,-1.541,-1.541,-1.541,-0.5351,-0.6924,-0.8424,-0.816,-0.8512,-0.8906,-0.8906,0.0,0.0,0.0,0.0,0.0,-0.8678,-0.9004,0.0,0.0,0.0,0.0,0.0,0.0,0.0,0.0,0.0,0.0,0.0,0.0,0.0,0.0,0.0,0.0,0.0,0.0,0.0,0.0,0.0,0.0,-1.8008,-1.8008,-1.8008,-1.8008,-1.8008,-1.8008,-1.8008,0.0,0.0,0.0,0.0,0.0,-1.8008,-1.8008,-1.8008,-1.8008,-1.8008,-1.8008,-1.8008,-1.8008,-1.8008,-1.8008,-1.8008,-1.8008,-1.8008,-1.8008,-1.8008,-1.8008,-1.8008,-1.7379,-1.6697,-1.6697,-1.6357,-1.5909,-1.5508,-1.541,-1.541,-1.541,-1.541,-1.541,-1.541,-1.541,-1.541,-1.541,-1.541,-1.541,-1.541,-1.541,-1.541,-1.541,-1.541,-1.541,-1.541,-1.541,-1.541,-1.541,-1.541,-1.541,-1.541,-1.541,-1.541,-1.541,-1.541,-1.541,-1.541,-1.541,-1.541,-1.541,-1.541,-1.541,-1.541,-1.541,-1.541,-1.541,-1.541,-1.541,-0.6482,-0.7832,-0.8555,-0.708,-0.7598,-0.8493,-0.8493,-0.8385,0.0,0.0,0.0,0.0,0.0,0.0,0.0,0.0,0.0,0.0,0.0,0.0,0.0,0.0,0.0,0.0,0.0,0.0,0.0,0.0,0.0,0.0,0.0,0.0,0.0,0.0,0.0,0.0,0.0,-1.8008,-1.8008,-1.8008,-1.8008,-1.8008,-1.8008,-1.8008,-1.8008,0.0,0.0,0.0,-1.8008,-1.8008,-1.8008,-1.8008,-1.8008,-1.8008,-1.8008,-1.8008,-1.8008,-1.8008,-1.8008,-1.8008,-1.8008,-1.8008,-1.8008,-1.8008,-1.8008,-1.7379,-1.6697,-1.6697,-1.6112,-1.5498,-1.543,-1.541,-1.541,-1.541,-1.541,-1.541,-1.541,-1.541,-1.541,-1.541,-1.541,-1.541,-1.541,-1.541,-1.541,-1.541,-1.541,-1.541,-1.541,-1.541,-1.541,-1.541,-1.541,-1.541,-1.541,-1.541,-1.541,-1.541,-1.541,-1.541,-1.541,-1.541,-1.541,-1.541,-1.541,-1.541,-1.541,-1.541,-1.541,-1.541,-1.541,-1.541,-0.5847,-0.7135,-0.8158,-0.7607,-0.8815,-1.0136,-1.0136,-0.9764,-0.9481,0.0,0.0,0.0,0.0,0.0,0.0,0.0,0.0,0.0,0.0,0.0,0.0,0.0,0.0,0.0,0.0,0.0,0.0,0.0,0.0,0.0,0.0,0.0,0.0,0.0,0.0,0.0,0.0,-1.8008,-1.8008,-1.8008,-1.8008,-1.8008,-1.8008,-1.8008,-1.8008,0.0,0.0,-1.8008,-1.8008,-1.8008,-1.8008,-1.8008,-1.8008,-1.8008,-1.8008,-1.8008,-1.8008,-1.8008,-1.8008,-1.8008,-1.8008,-1.8008,-1.8008,-1.7969,-1.7744,-1.7227,-1.6648,-1.6436,-1.5908,-1.541,-1.541,-1.541,-1.541,-1.541,-1.541,-1.541,-1.541,-1.541,-1.541,-1.541,-1.541,-1.541,-1.541,-1.541,-1.541,-1.541,-1.541,-1.541,-1.541,-1.541,-1.541,-1.541,-1.541,-1.541,-1.541,-1.541,-1.541,-1.541,-1.541,-1.541,-1.541,-1.541,-1.541,-1.541,-1.541,-1.541,-1.541,-1.541,-1.541,-1.541,-1.541,-1.541,-0.5487,-0.6616,-0.7866,-0.8516,-0.9921,-1.1203,-1.1538,-1.0997,-1.0508,0.0,0.0,0.0,0.0,0.0,0.0,0.0,0.0,0.0,0.0,0.0,0.0,0.0,0.0,0.0,0.0,0.0,0.0,0.0,0.0,0.0,0.0,0.0,0.0,0.0,0.0,0.0,0.0,-1.8008,-1.8008,-1.8008,-1.8008,-1.8008,-1.8008,-1.8008,-1.8008,-1.8008,-1.8008,-1.8008,-1.8008,-1.8008,-1.8008,-1.8008,-1.8008,-1.7949,-1.7852,-1.7754,-1.7773,-1.7861,-1.7861,-1.793,-1.7988,-1.79,-1.7861,-1.7783,-1.7363,-1.6924,-1.6504,-1.6193,-1.5752,-1.541,-1.541,-1.541,-1.541,-1.541,-1.541,-1.541,-1.541,-1.541,-1.541,-1.541,-1.541,-1.541,-1.541,-1.541,-1.541,-1.541,-1.541,-1.541,-1.541,-1.541,-1.541,-1.541,-1.541,-1.541,-1.541,-1.541,-1.541,-1.541,-1.541,-1.541,-1.541,-1.541,-1.541,-1.541,-1.541,-1.541,-1.541,-1.541,-1.541,-1.541,-1.541,-1.541,-0.6609,-0.732,-0.7987,-0.9203,-0.964,-1.0069,-1.1332,-1.1222,0.0,-1.1901,0.0,0.0,0.0,0.0,0.0,0.0,0.0,0.0,0.0,0.0,0.0,0.0,0.0,0.0,0.0,0.0,0.0,0.0,0.0,0.0,0.0,0.0,0.0,0.0,0.0,0.0,0.0,-1.8008,-1.8008,-1.8008,-1.8008,-1.8008,-1.8008,-1.8008,-1.8008,-1.8008,-1.8008,-1.8008,-1.8008,-1.8008,-1.8008,-1.8008,-1.8008,-1.7773,-1.7383,-1.6941,-1.708,-1.7432,-1.7432,-1.7686,-1.7949,-1.7549,-1.7432,-1.7344,-1.6882,-1.6465,-1.6134,-1.6105,-1.5752,-1.541,-1.541,-1.541,-1.541,-1.541,-1.541,-1.541,-1.541,-1.541,-1.541,-1.541,-1.541,-1.541,-1.541,-1.541,-1.541,-1.541,-1.541,-1.541,-1.541,-1.541,-1.541,-1.541,-1.541,-1.541,-1.541,-1.541,-1.541,-1.541,-1.541,-1.541,-1.541,-1.541,-1.541,-1.541,-1.541,-1.541,-1.541,-1.541,-1.541,-1.541,-1.541,-1.541,-0.572,-0.6752,-0.7895,-0.8662,-0.9453,0.0,0.0,-1.2083,-1.2617,-1.2934,-1.3207,0.0,0.0,0.0,0.0,0.0,0.0,0.0,0.0,0.0,0.0,0.0,0.0,0.0,0.0,0.0,0.0,0.0,0.0,0.0,0.0,0.0,0.0,0.0,0.0,0.0,0.0,0.0,-1.7184,-1.7184,-1.7754,-1.8008,-1.8008,-1.8008,-1.8008,-1.7998,-1.7734,-1.7627,-1.7598,-1.7291,-1.7184,-1.7184,-1.7184,-1.7087,-1.6992,-1.71,-1.7246,-1.7383,-1.7383,-1.749,-1.7549,-1.7119,-1.695,-1.6894,-1.6455,-1.6232,-1.6036,-1.5732,-1.5537,-1.541,-1.541,-1.541,-1.541,-1.541,-1.541,-1.541,-1.541,-1.541,-1.541,-1.541,-1.541,-1.541,-1.541,-1.541,-1.541,-1.541,-1.541,-1.541,-1.541,-1.541,-1.541,-1.541,-1.541,-1.541,-1.541,-1.541,-1.541,-1.541,-1.541,-1.541,-1.541,-1.541,-1.541,-1.541,-1.541,-1.541,-1.541,-1.541,-1.541,-1.541,-1.541,-1.541,-0.5516,-0.6696,-0.8037,-0.8483,0.0,0.0,-1.1439,-1.2494,-1.3379,-1.3652,-1.3909,0.0,0.0,0.0,0.0,0.0,0.0,0.0,0.0,0.0,0.0,0.0,0.0,0.0,0.0,0.0,0.0,0.0,0.0,0.0,0.0,0.0,0.0,0.0,0.0,0.0,0.0,0.0,-1.6697,-1.6707,-1.7291,-1.7574,-1.7574,-1.7574,-1.7574,-1.7555,-1.7305,-1.7178,-1.7148,-1.6824,-1.6697,-1.6687,-1.6541,-1.6523,-1.6543,-1.6699,-1.6846,-1.6995,-1.6995,-1.7061,-1.7109,-1.667,-1.6523,-1.6436,-1.6026,-1.5889,-1.5791,-1.5498,-1.541,-1.541,-1.541,-1.541,-1.541,-1.541,-1.541,-1.541,-1.541,-1.541,-1.541,-1.541,-1.541,-1.541,-1.541,-1.541,-1.541,-1.541,-1.541,-1.541,-1.541,-1.541,-1.541,-1.541,-1.541,-1.541,-1.541,-1.541,-1.541,-1.541,-1.541,-1.541,-1.541,-1.541,-1.541,-1.541,-1.541,-1.541,-1.541,-1.541,-1.541,-1.541,-1.541,-1.541,-0.6394,-0.7387,-0.8512,0.0,0.0,0.0,-1.1496,-1.2279,-1.3135,-1.3948,0.0,-1.4114,0.0,0.0,0.0,0.0,0.0,0.0,0.0,0.0,0.0,0.0,0.0,0.0,0.0,0.0,0.0,0.0,0.0,0.0,0.0,0.0,0.0,0.0,0.0,0.0,0.0,0.0,-1.6687,-1.6687,-1.6687,-1.6697,-1.6697,-1.6697,-1.6697,-1.6697,-1.6697,-1.6697,-1.6697,-1.6687,-1.6687,-1.6648,-1.6261,-1.6085,-1.6036,-1.5576,-1.5693,-1.6095,-1.6095,-1.6357,-1.6619,-1.6232,-1.6085,-1.6007,-1.5537,-1.541,-1.541,-1.541,-1.541,-1.541,-1.541,-1.541,-1.541,-1.541,-1.541,-1.541,-1.541,-1.541,-1.541,-1.541,-1.541,-1.541,-1.541,-1.541,-1.541,-1.541,-1.541,-1.541,-1.541,-1.541,-1.541,-1.541,-1.541,-1.541,-1.541,-1.541,-1.541,-1.541,-1.541,-1.541,-1.541,-1.541,-1.541,-1.541,-1.541,-1.541,-1.541,-1.541,-1.541,-1.541,-1.541,-1.541,-0.6394,-0.7788,0.0,-0.9396,0.0,0.0,0.0,-1.293,0.0,0.0,0.0,0.0,0.0,0.0,0.0,0.0,0.0,0.0,0.0,0.0,0.0,0.0,0.0,0.0,0.0,0.0,0.0,0.0,0.0,0.0,0.0,0.0,0.0,0.0,0.0,0.0,0.0,0.0,0.0,-1.5801,-1.5801,-1.6102,-1.6697,-1.6697,-1.6697,-1.6687,-1.6396,-1.629,-1.624,-1.5928,-1.5801,-1.5761,-1.5654,-1.5605,-1.5625,-1.5831,-1.5977,-1.6095,-1.6095,-1.6183,-1.6191,-1.5742,-1.5605,-1.5586,-1.5449,-1.541,-1.541,-1.541,-1.541,-1.541,-1.541,-1.541,-1.541,-1.541,-1.541,-1.541,-1.541,-1.541,-1.541,-1.541,-1.541,-1.541,-1.541,-1.541,-1.541,-1.541,-1.541,-1.541,-1.541,-1.541,-1.541,-1.541,-1.541,-1.541,-1.541,-1.541,-1.541,-1.541,-1.541,-1.541,-1.541,-1.541,-1.541,-1.541,-1.541,-1.541,-1.541,-1.541,-1.541,-1.541,-1.541,-1.541,-0.7535,-0.887,0.0,-1.0556,-1.1628,-1.2646,-1.2691,0.0,0.0,0.0,0.0,0.0,0.0,0.0,0.0,0.0,0.0,0.0,0.0,0.0,0.0,0.0,0.0,0.0,0.0,0.0,0.0,0.0,0.0,0.0,0.0,0.0,0.0,0.0,0.0,0.0,0.0,0.0,0.0,-1.541,-1.541,-1.5693,-1.618,-1.618,-1.618,-1.6161,-1.5918,-1.5831,-1.5811,-1.5518,-1.541,-1.541,-1.541,-1.541,-1.5439,-1.5703,-1.5831,-1.5831,-1.5831,-1.5831,-1.5791,-1.5498,-1.541,-1.541,-1.541,-1.541,-1.541,-1.541,-1.541,-1.541,-1.541,-1.541,-1.541,-1.541,-1.541,-1.541,-1.541,-1.541,-1.541,-1.541,-1.541,-1.541,-1.541,-1.541,-1.541,-1.541,-1.541,-1.541,-1.541,-1.541,-1.541,-1.541,-1.541,-1.541,-1.541,-1.541,-1.541,-1.541,-1.541,-1.541,-1.541,-1.541,-1.541,-1.541,-1.541,-1.541,-1.541,-1.541,-1.541,-1.541,-1.541,-1.541,-0.9137,0.0,0.0,-1.1979,-1.2233,0.0,0.0,0.0,0.0,0.0,0.0,0.0,0.0,0.0,0.0,0.0,0.0,0.0,0.0,0.0,0.0,0.0,0.0,0.0,0.0,0.0,0.0,0.0,0.0,0.0,0.0,0.0,0.0,0.0,0.0,0.0,0.0,0.0,0.0,0.0,-1.541,-1.541,-1.541,-1.541,-1.541,-1.541,-1.541,-1.541,-1.541,-1.541,-1.541,-1.541,-1.541,-1.541,-1.541,-1.541,-1.541,-1.541,-1.541,-1.541,-1.541,-1.541,-1.541,-1.541,-1.541,-1.541,-1.541,-1.541,-1.541,-1.541,-1.541,-1.541,-1.541,-1.541,-1.541,-1.541,-1.541,-1.541,-1.541,-1.541,-1.541,-1.541,-1.541,-1.541,-1.541,-1.541,-1.541,-1.541,-1.541,-1.541,-1.541,-1.541,-1.541,-1.541,-1.541,-1.541,-1.541,-1.541,-1.541,-1.541,-1.541,-1.541,-1.541,-1.541,-1.541,-1.541,-1.541,-1.541,-1.541,-1.541,-1.541,-1.541,-0.8235,-0.9608,0.0,0.0,-1.249,0.0,0.0,0.0,0.0,0.0,0.0,0.0,0.0,0.0,0.0,0.0,0.0,0.0,0.0,0.0,0.0,0.0,0.0,0.0,0.0,0.0,0.0,0.0,0.0,0.0,0.0,0.0,0.0,0.0,0.0,0.0,-1.541,-1.541,-1.541,0.0,-1.541,-1.541,-1.541,-1.541,-1.541,-1.541,-1.541,-1.541,-1.541,-1.541,-1.541,-1.541,-1.541,-1.541,-1.541,-1.541,-1.541,-1.541,-1.541,-1.541,-1.541,-1.541,-1.541,-1.541,-1.541,-1.541,-1.541,-1.541,-1.541,-1.541,-1.541,-1.541,-1.541,-1.541,-1.541,-1.541,-1.541,-1.541,-1.541,-1.541,-1.541,-1.541,-1.541,-1.541,-1.541,-1.541,-1.541,-1.541,-1.541,-1.541,-1.541,-1.541,-1.541,-1.541,-1.541,-1.541,-1.541,-1.541,-1.541,-1.541,-1.541,-1.541,-1.541,-1.541,-1.541,-1.541,-1.541,-1.541,-1.541,-1.541,-1.541,-1.541,-0.8285,0.0,0.0,-1.2219,0.0,0.0,0.0,0.0,0.0,0.0,0.0,0.0,0.0,0.0,0.0,0.0,0.0,0.0,0.0,0.0,0.0,0.0,0.0,0.0,0.0,0.0,0.0,0.0,0.0,0.0,0.0,0.0,0.0,0.0,0.0,0.0,-1.541,-1.541,-1.541,-1.541,-1.541,-1.541,-1.541,-1.541,-1.541,-1.541,-1.541,-1.541,-1.541,-1.541,-1.541,-1.541,-1.541,-1.541,-1.541,-1.541,-1.541,-1.541,-1.541,-1.541,-1.541,-1.541,-1.541,-1.541,-1.541,-1.541,-1.541,-1.541,-1.541,-1.541,-1.541,-1.541,-1.541,-1.541,-1.541,-1.541,-1.541,-1.541,-1.541,-1.541,-1.541,-1.541,-1.541,-1.541,-1.541,-1.541,-1.541,-1.541,-1.541,-1.541,-1.541,-1.541,-1.541,-1.541,-1.541,-1.541,-1.541,-1.541,-1.541,-1.541,-1.541,-1.541,-1.541,-1.541,-1.541,-1.541,-1.541,-1.541,-1.541,-1.541,-1.541,-1.541,-0.8149,0.0,-1.0702,-1.2253,-1.2774,0.0,0.0,0.0,0.0,0.0,0.0,0.0,0.0,0.0,0.0,0.0,0.0,0.0,0.0,0.0,0.0,0.0,0.0,0.0,0.0,0.0,0.0,0.0,0.0,0.0,0.0,0.0,0.0,0.0,0.0,-1.541,-1.541,-1.541,-1.541,-1.541,-1.541,-1.541,-1.541,-1.541,-1.541,-1.541,-1.541,-1.541,-1.541,-1.541,-1.541,-1.541,-1.541,-1.541,-1.541,-1.541,-1.541,-1.541,-1.541,-1.541,-1.541,-1.541,-1.541,-1.541,-1.541,-1.541,-1.541,-1.541,-1.541,-1.541,-1.541,-1.541,-1.541,-1.541,-1.541,-1.541,-1.541,-1.541,-1.541,-1.541,-1.541,-1.541,-1.541,-1.541,-1.541,-1.541,-1.541,-1.541,-1.541,-1.5294,-1.5196,-1.5196,-1.5079,-1.4991,-1.4991,-1.4991,-1.4991,-1.4991,-1.4991,-1.4991,-1.4991,-1.5108,-1.5196,-1.5196,-1.5323,-1.541,-1.541,-1.541,-1.541,-1.541,-1.541,-1.541,0.0,0.0,-1.0648,0.0,0.0,0.0,0.0,0.0,0.0,0.0,0.0,0.0,0.0,0.0,0.0,0.0,0.0,0.0,0.0,0.0,0.0,0.0,0.0,0.0,0.0,0.0,0.0,0.0,0.0,0.0,0.0,0.0,-1.541,-1.541,-1.541,0.0,-1.541,-1.541,-1.541,-1.541,-1.541,-1.541,-1.541,-1.541,-1.541,-1.541,-1.541,-1.541,-1.541,-1.541,-1.541,-1.541,-1.541,-1.541,-1.541,-1.541,-1.541,-1.541,-1.541,-1.541,-1.541,-1.541,-1.541,-1.541,-1.541,-1.541,-1.541,-1.541,-1.541,-1.541,-1.541,-1.541,-1.541,-1.541,-1.541,-1.541,-1.541,-1.541,-1.541,-1.541,-1.541,-1.541,-1.541,-1.541,-1.541,-1.541,-1.541,-1.541,-1.541,-1.4776,-1.4362,-1.4362,-1.3726,-1.3312,-1.3312,-1.3312,-1.3312,-1.3312,-1.3312,-1.3312,-1.3312,-1.4004,-1.4362,-1.4362,-1.505,-1.541,-1.541,-1.541,-1.541,-1.541,-1.541,-1.541,-0.6284,-0.7943,-0.9573,0.0,0.0,0.0,0.0,0.0,0.0,0.0,0.0,0.0,0.0,0.0,0.0,0.0,0.0,0.0,0.0,0.0,0.0,0.0,0.0,0.0,0.0,0.0,0.0,0.0,0.0,0.0,0.0,-1.5059,-1.5166,-1.5371,-1.541,0.0,-1.541,-1.541,-1.541,-1.541,-1.541,-1.541,-1.541,-1.541,-1.541,-1.541,-1.541,-1.541,-1.541,-1.541,-1.541,-1.541,-1.541,-1.541,-1.541,-1.541,-1.541,-1.541,-1.541,-1.541,-1.541,-1.541,-1.541,-1.541,-1.541,-1.541,-1.541,-1.541,-1.541,-1.541,-1.541,-1.541,-1.541,-1.541,-1.541,-1.541,-1.541,-1.541,-1.541,-1.541,-1.541,-1.541,-1.541,-1.541,-1.5264,-1.4805,-1.4726,-1.4569,-1.4115,-1.3765,-1.3524,-1.3524,-1.3213,-1.3009,-1.3009,-1.3009,-1.3009,-1.3009,-1.3009,-1.3009,-1.3009,-1.3756,-1.4213,-1.4213,-1.4991,-1.541,-1.541,-1.541,-1.541,-1.541,-1.541,-1.541,0.0,0.0,-0.8171,-0.938,0.0,0.0,0.0,0.0,0.0,0.0,0.0,0.0,0.0,0.0,0.0,0.0,0.0,0.0,0.0,0.0,0.0,0.0,0.0,0.0,0.0,0.0,0.0,0.0,0.0,0.0,-1.46,-1.4619,-1.4814,-1.5234,-1.5254,-1.5303,-1.541,-1.5196,-1.5108,-1.5108,-1.5108,-1.5108,-1.5108,-1.5323,-1.541,-1.541,-1.541,-1.541,-1.541,-1.541,-1.541,-1.541,-1.541,-1.541,-1.541,-1.541,-1.541,-1.541,-1.541,-1.541,-1.541,-1.541,-1.541,-1.541,-1.541,-1.541,-1.541,-1.541,-1.541,-1.541,-1.541,-1.541,-1.541,-1.541,-1.541,-1.541,-1.541,-1.541,-1.541,-1.541,-1.5225,-1.5108,-1.5108,-1.4932,-1.4599,-1.4004,-1.3906,-1.3666,-1.307,-1.2818,-1.2704,-1.2704,-1.252,-1.2397,-1.2397,-1.2397,-1.2397,-1.2397,-1.2573,-1.2704,-1.2704,-1.3666,-1.4213,-1.4213,-1.4991,-1.541,-1.541,-1.541,-1.541,-1.541,-1.541,-1.541,0.0,-0.5464,0.0,0.0,0.0,0.0,0.0,0.0,0.0,0.0,0.0,0.0,0.0,0.0,0.0,0.0,0.0,0.0,0.0,0.0,0.0,0.0,0.0,0.0,0.0,0.0,0.0,0.0,0.0,0.0,-1.4143,-1.4143,-1.4338,-1.4833,-1.4814,-1.501,-1.541,-1.4628,-1.4273,-1.4273,-1.4273,-1.4273,-1.4302,-1.505,-1.541,-1.541,-1.541,-1.541,-1.541,-1.541,-1.541,-1.541,-1.541,-1.541,-1.541,-1.541,-1.541,-1.541,-1.541,-1.541,-1.541,-1.541,-1.541,-1.541,-1.541,-1.541,-1.541,-1.541,-1.541,-1.541,-1.541,-1.541,-1.541,-1.541,-1.541,-1.541,-1.541,-1.541,-1.541,-1.541,-1.4776,-1.4273,-1.4273,-1.3644,-1.31,-1.307,-1.307,-1.3039,-1.3009,-1.2328,-1.1857,-1.1857,-1.117,-1.0713,-1.0713,-1.0713,-1.0713,-1.0713,-1.1437,-1.1857,-1.1857,-1.3386,-1.4213,-1.4213,-1.4991,-1.541,-1.541,-1.541,-1.541,-1.541,-1.541,-1.541,0.0,0.0,0.0,0.0,0.0,0.0,0.0,0.0,0.0,0.0,0.0,0.0,0.0,0.0,0.0,0.0,0.0,0.0,0.0,0.0,0.0,0.0,0.0,0.0,0.0,0.0,0.0,0.0,0.0,0.0,-1.3695,-1.3704,-1.3899,-1.4328,-1.4338,-1.4215,-1.3933,-1.4054,-1.3905,-1.3512,-1.3942,-1.4137,-1.4147,-1.4213,-1.4248,-1.4228,-1.3978,-1.4145,-1.4599,-1.4055,-1.3846,-1.3846,-1.3846,-1.3846,-1.3906,-1.4451,-1.4628,-1.4688,-1.5235,-1.541,-1.541,-1.541,-1.541,-1.541,-1.541,-1.541,-1.541,-1.541,-1.541,-1.5294,-1.4746,-1.4628,-1.451,-1.3965,-1.3597,-1.3438,-1.3786,-1.4273,-1.4481,-1.3965,-1.3644,-1.3433,-1.3433,-1.3183,-1.2818,-1.2297,-1.2235,-1.205,-1.1538,-1.1202,-1.1021,-1.1021,-1.0776,-1.0593,-1.0593,-1.0593,-1.0593,-1.0593,-1.0863,-1.1021,-1.1021,-1.2573,-1.3433,-1.3433,-1.4213,-1.4874,-1.541,-1.541,-1.541,-1.541,-1.541,-1.541,-0.3989,0.0,0.0,0.0,0.0,0.0,0.0,0.0,0.0,0.0,0.0,0.0,0.0,0.0,0.0,0.0,0.0,0.0,0.0,0.0,0.0,0.0,0.0,0.0,0.0,0.0,0.0,0.0,0.0,0.0,-1.2925,-1.2732,-1.2791,-1.3216,-1.3365,-1.3304,-1.3086,-1.3268,-1.3241,-1.3032,-1.3476,-1.3575,-1.3358,-1.3414,-1.3316,-1.3079,-1.2632,-1.2945,-1.3756,-1.3221,-1.3009,-1.3009,-1.3009,-1.3009,-1.307,-1.3606,-1.3786,-1.3906,-1.4717,-1.4991,-1.505,-1.5323,-1.541,-1.541,-1.541,-1.541,-1.541,-1.541,-1.541,-1.5294,-1.4746,-1.4392,-1.4064,-1.3524,-1.2931,-1.2504,-1.2573,-1.3243,-1.3636,-1.31,-1.2787,-1.2604,-1.2604,-1.2366,-1.1996,-1.1469,-1.1406,-1.1195,-1.0688,-1.0593,-1.0593,-1.0593,-1.0593,-1.0593,-1.0593,-1.0593,-1.0593,-1.0593,-1.0863,-1.0982,-1.0982,-1.2305,-1.3009,-1.3009,-1.3515,-1.4055,-1.4599,-1.4874,-1.5138,-1.541,-1.541,-1.541,0.0,0.0,0.0,0.0,0.0,0.0,0.0,0.0,0.0,0.0,0.0,0.0,0.0,0.0,0.0,0.0,0.0,0.0,0.0,0.0,0.0,0.0,0.0,0.0,0.0,0.0,0.0,0.0,0.0,-1.1765,-1.1765,-1.1166,-1.1029,-1.1492,-1.1923,-1.242,-1.305,-1.2312,-1.2257,-1.2859,-1.2887,-1.2568,-1.1945,-1.2723,-1.2685,-1.2039,-1.1494,-1.1864,-1.2931,-1.294,-1.2917,-1.2917,-1.2917,-1.2917,-1.2917,-1.2948,-1.2978,-1.307,-1.3885,-1.4154,-1.4293,-1.5079,-1.5352,-1.5352,-1.5352,-1.5352,-1.5381,-1.5381,-1.5381,-1.5352,-1.5352,-1.4717,-1.4085,-1.4085,-1.3485,-1.2734,-1.1927,-1.2389,-1.2917,-1.2917,-1.2297,-1.1772,-1.1772,-1.1108,-1.0593,-1.0593,-1.0593,-1.0593,-1.0593,-1.0593,-1.0593,-1.0593,-1.0593,-1.0593,-1.0593,-1.0593,-1.0593,-1.0593,-1.1313,-1.1772,-1.1772,-1.2543,-1.2978,-1.2978,-1.2978,-1.2978,-1.3009,-1.3786,-1.4569,-1.5323,-1.5352,-1.5381,-0.3566,0.0,0.0,0.0,0.0,0.0,0.0,0.0,0.0,0.0,0.0,0.0,0.0,0.0,0.0,0.0,0.0,0.0,0.0,0.0,0.0,0.0,0.0,0.0,0.0,0.0,0.0,0.0,0.0,-1.1091,-1.1091,-1.1366,-1.1585,-1.17,-1.2349,-1.2515,-1.2148,-1.2455,-1.2455,-1.2097,-1.2651,-1.2811,-1.2609,-1.2035,-1.1711,-1.1458,-1.0537,-1.0429,-1.0913,-1.1172,-1.1264,-1.1264,-1.1264,-1.1264,-1.1327,-1.1934,-1.2143,-1.2266,-1.3061,-1.3334,-1.3373,-1.3575,-1.4055,-1.454,-1.454,-1.454,-1.4658,-1.5235,-1.4991,-1.4392,-1.3816,-1.2634,-1.16,-1.16,-1.1413,-1.1202,-1.0989,-1.1115,-1.1264,-1.1264,-1.1076,-1.0926,-1.0926,-1.0744,-1.0593,-1.0593,-1.0593,-1.0593,-1.0593,-1.0593,-1.0593,-1.0593,-1.0593,-1.0593,-1.0593,-1.0593,-1.0593,-1.0593,-1.0807,-1.0926,-1.0926,-1.1686,-1.2143,-1.2143,-1.2143,-1.242,-1.3009,-1.3221,-1.3463,-1.3666,-1.4273,-1.4844,-0.3963,-0.4021,0.0,0.0,0.0,0.0,0.0,0.0,0.0,0.0,0.0,0.0,0.0,0.0,0.0,0.0,0.0,0.0,0.0,0.0,0.0,0.0,0.0,0.0,0.0,0.0,0.0,0.0,-1.0389,-1.0389,-1.0389,-1.1015,-1.1391,-1.1391,-1.1792,-1.1965,-1.1789,-1.2236,-1.2369,-1.2261,-1.2691,-1.2749,-1.2412,-1.1507,-1.0934,-1.0635,-0.9827,-0.9564,-0.9757,-1.02,-1.0479,-1.0593,-1.0593,-1.0593,-1.0649,-1.1139,-1.1288,-1.1413,-1.2235,-1.2512,-1.2543,-1.2887,-1.3312,-1.3696,-1.3696,-1.3696,-1.3786,-1.4273,-1.4055,-1.3575,-1.313,-1.2058,-1.1108,-1.1108,-1.0832,-1.0593,-1.0593,-1.0593,-1.0593,-1.0593,-1.0593,-1.0593,-1.0593,-1.0593,-1.0593,-1.0593,-1.0593,-1.0593,-1.0593,-1.0593,-1.0593,-1.0593,-1.0593,-1.0593,-1.0593,-1.0593,-1.0593,-1.0593,-1.0593,-1.0593,-1.0593,-1.1045,-1.1288,-1.1288,-1.1288,-1.1531,-1.2004,-1.2336,-1.2848,-1.3515,-1.3965,-1.4628,-0.4562,-0.4549,-0.4703,0.0,0.0,0.0,-0.5726,-0.5601,0.0,0.0,0.0,0.0,0.0,0.0,0.0,0.0,0.0,0.0,0.0,0.0,0.0,0.0,0.0,0.0,0.0,0.0,0.0,-0.9692,-0.9762,-0.9788,-0.9788,-1.0517,-1.0914,-1.0914,-1.0998,-1.1325,-1.1922,-1.1922,-1.2236,-1.2905,-1.2905,-1.2559,-1.1898,-1.1141,-1.0466,-0.988,-0.9363,-0.9184,-0.9251,-0.977,-1.0214,-1.0546,-1.0579,-1.0593,-1.0593,-1.0593,-1.0593,-1.0713,-1.1406,-1.1679,-1.1772,-1.2489,-1.2795,-1.2856,-1.2856,-1.2856,-1.2856,-1.2856,-1.2856,-1.2856,-1.2856,-1.2266,-1.1679,-1.1679,-1.1108,-1.0593,-1.0593,-1.0593,-1.0593,-1.0593,-1.0593,-1.0593,-1.0593,-1.0593,-1.0593,-1.0593,-1.0593,-1.0593,-1.0593,-1.0593,-1.0593,-1.0593,-1.0593,-1.0593,-1.0593,-1.0593,-1.0593,-1.0593,-1.0593,-1.0593,-1.0593,-1.0593,-1.0593,-1.0593,-1.0593,-1.0593,-1.0593,-1.132,-1.2504,-1.4064,-1.4064,-1.454,-0.5109,-0.5474,-0.5705,-0.5055,0.0,0.0,0.0,-0.4822,0.0,0.0,0.0,0.0,0.0,0.0,0.0,0.0,0.0,0.0,0.0,0.0,0.0,0.0,0.0,0.0,0.0,0.0,-0.8982,-0.8982,-0.9484,-0.9788,-0.9788,-1.0939,-1.1591,-1.1591,-1.2172,-1.2535,-1.2691,-1.2691,-1.2774,-1.2905,-1.2905,-1.2822,-1.2642,-1.1384,-1.0745,-1.0542,-0.9372,-0.8998,-0.9217,-0.9337,-0.969,-1.0227,-1.0499,-1.0593,-1.0593,-1.0593,-1.0593,-1.0624,-1.0776,-1.0832,-1.0863,-1.1021,-1.1507,-1.2012,-1.2012,-1.2012,-1.2012,-1.2012,-1.2012,-1.2012,-1.2012,-1.1445,-1.0832,-1.0832,-1.0713,-1.0593,-1.0593,-1.0593,-1.0593,-1.0593,-1.0593,-1.0593,-1.0593,-1.0593,-1.0593,-1.0593,-1.0593,-1.0593,-1.0593,-1.0593,-1.0593,-1.0593,-1.0593,-1.0593,-1.0593,-1.0593,-1.0593,-1.0593,-1.0593,-1.0593,-1.0593,-1.0593,-1.0593,-1.0593,-1.0593,-1.0593,-1.0593,-1.0776,-1.1663,-1.3213,-1.3213,-1.3995,-0.5713,-0.5967,-0.6122,-0.5785,0.0,0.0,0.0,0.0,0.0,0.0,0.0,0.0,0.0,0.0,0.0,0.0,0.0,0.0,0.0,0.0,0.0,0.0,0.0,0.0,0.0,0.0,-0.8936,-0.9283,-0.9614,-1.009,-1.0762,-1.1433,-1.1972,-1.2344,-1.2715,-1.2905,-1.2905,-1.2905,-1.2905,-1.2905,-1.2905,-1.2905,-1.2856,-1.1434,-1.0788,-1.0745,-0.9387,-0.8865,-0.9004,-0.9151,-0.9384,-0.9677,-1.0007,-1.0244,-1.0341,-1.0341,-1.0466,-1.0593,-1.0593,-1.0593,-1.0593,-1.0593,-1.0863,-1.1195,-1.1195,-1.1195,-1.1195,-1.1195,-1.1195,-1.1195,-1.1195,-1.0895,-1.0593,-1.0593,-1.0593,-1.0593,-1.0593,-1.0593,-1.0593,-1.0593,-1.0593,-1.0593,-1.0593,-1.0593,-1.0593,-1.0593,-1.0593,-1.0593,-1.0593,-1.0593,-1.0593,-1.0593,-1.0593,-1.0593,-1.0593,-1.0593,-1.0593,-1.0593,-1.0593,-1.0593,-1.0593,-1.0593,-1.0593,-1.0593,-1.0593,-1.0593,-1.0593,-1.0593,-1.1233,-1.2389,-1.2389,-1.3265,0.0,0.0,0.0,0.0,0.0,-0.5829,0.0,0.0,0.0,-0.5796,0.0,0.0,0.0,0.0,0.0,0.0,0.0,0.0,0.0,0.0,0.0,0.0,0.0,0.0,0.0,0.0,-0.8832,-0.9721,-0.9761,-1.035,-1.1731,-1.1922,-1.2286,-1.2881,-1.2905,-1.2905,-1.2905,-1.2905,-1.2905,-1.2905,-1.2905,-1.2905,-1.2856,-1.1434,-1.0788,-1.0745,-0.9387,-0.8804,-0.8824,-0.9031,-0.9131,-0.9164,-0.9546,-0.9826,-1.0033,-1.0033,-1.0187,-1.0425,-1.0425,-1.0425,-1.0432,-1.0486,-1.0506,-1.0519,-1.0573,-1.0553,-1.0519,-1.0579,-1.0593,-1.0593,-1.0593,-1.0593,-1.0593,-1.0593,-1.0593,-1.0593,-1.0593,-1.0593,-1.0593,-1.0593,-1.0593,-1.0593,-1.0593,-1.0593,-1.0593,-1.0593,-1.0593,-1.0593,-1.0593,-1.0593,-1.0593,-1.0593,-1.0593,-1.0593,-1.0593,-1.0593,-1.0593,-1.0593,-1.0593,-1.0593,-1.0593,-1.0593,-1.0593,-1.0593,-1.0593,-1.0593,-1.0593,-1.0593,-1.1014,-1.1803,-1.1803,-1.2565,0.0,0.0,0.0,0.0,-0.7114,0.0,0.0,0.0,-0.5475,-0.5046,0.0,0.0,0.0,0.0,0.0,0.0,0.0,0.0,0.0,0.0,0.0,0.0,0.0,0.0,0.0,0.0,0.0,-0.968,-0.9627,-1.0194,-1.1711,-1.2427,-1.2798,-1.2905,-1.2905,-1.2905,-1.2905,-1.2905,-1.2905,-1.2905,-1.2905,-1.2905,-1.2856,-1.1434,-1.0788,-1.0745,-0.9387,-0.8804,-0.8811,-0.8844,-0.8858,-0.8911,-0.9466,-0.9706,-0.9733,-0.9733,-0.9782,-0.9809,-0.9809,-0.9809,-0.9856,-1.008,-1.0167,-1.0214,-1.0512,-1.0374,-1.0221,-1.0519,-1.0593,-1.0593,-1.0593,-1.0593,-1.0593,-1.0593,-1.0593,-1.0593,-1.0593,-1.0593,-1.0593,-1.0593,-1.0593,-1.0593,-1.0593,-1.0593,-1.0593,-1.0593,-1.0593,-1.0593,-1.0593,-1.0593,-1.0593,-1.0593,-1.0593,-1.0593,-1.0593,-1.0593,-1.0593,-1.0593,-1.0593,-1.0593,-1.0593,-1.0593,-1.0593,-1.0593,-1.0593,-1.0593,-1.0593,-1.0593,-1.1014,-1.1803,-1.1803,-1.2297,0.0,0.0,0.0,0.0,0.0,0.0,0.0,0.0,-0.5171,0.0,0.0,0.0,0.0,0.0,0.0,0.0,0.0,0.0,0.0,0.0,0.0,0.0,0.0,0.0,0.0,0.0,0.0,0.0,0.0,-1.0237,-1.1931,-1.258,-1.2905,-1.2905,-1.2905,-1.2905,-1.2905,-1.2905,-1.2905,-1.2905,-1.2905,-1.2691,-1.2236,-1.125,-1.0593,-1.0167,-0.9211,-0.8804,-0.8804,-0.8804,-0.8804,-0.8831,-0.9078,-0.9279,-0.9397,-0.9397,-0.9532,-0.9715,-0.9715,-0.9715,-0.9733,-1.002,-1.0083,-1.0174,-1.0506,-1.0506,-1.0432,-1.0553,-1.0593,-1.0593,-1.0593,-1.0593,-1.0593,-1.0593,-1.0593,-1.0593,-1.0593,-1.0593,-1.0593,-1.0593,-1.0593,-1.0593,-1.0593,-1.0593,-1.0593,-1.0593,-1.0593,-1.0593,-1.0593,-1.0593,-1.0593,-1.0593,-1.0593,-1.0593,-1.0593,-1.0593,-1.0593,-1.0593,-1.0593,-1.0593,-1.0593,-1.0593,-1.0593,-1.0593,-1.0593,-1.0593,-1.0593,-1.0593,-1.0776,-1.1108,-1.1108,-1.1531,-0.5851,0.0,0.0,0.0,0.0,0.0,0.0,0.0,0.0,0.0,0.0,0.0,0.0,0.0,0.0,0.0,0.0,0.0,0.0,0.0,0.0,0.0,0.0,0.0,0.0,0.0,0.0,0.0,0.0,0.0,-1.1862,-1.2425,-1.2778,-1.2905,-1.2905,-1.2905,-1.2905,-1.2905,-1.2905,-1.2905,-1.2905,-1.2608,-1.208,-1.1191,-1.0542,-1.0038,-0.9159,-0.8804,-0.8804,-0.8804,-0.8804,-0.8804,-0.8804,-0.8911,-0.9091,-0.9091,-0.9259,-0.9446,-0.9446,-0.9499,-0.9599,-0.9777,-0.9903,-1.0053,-1.0378,-1.0472,-1.0486,-1.0566,-1.0593,-1.0593,-1.0593,-1.0593,-1.0593,-1.0593,-1.0593,-1.0593,-1.0593,-1.0593,-1.0593,-1.0593,-1.0593,-1.0593,-1.0593,-1.0593,-1.0593,-1.0593,-1.0593,-1.0593,-1.0593,-1.0593,-1.0593,-1.0593,-1.0593,-1.0593,-1.0593,-1.0593,-1.0593,-1.0593,-1.0593,-1.0593,-1.0593,-1.0593,-1.0593,-1.0593,-1.0593,-1.0593,-1.0593,-1.0593,-1.0593,-1.0593,-1.0593,-1.0926,0.0,0.0,0.0,-0.5535,0.0,0.0,0.0,0.0,-0.4625,0.0,0.0,0.0,0.0,0.0,-0.6291,-0.5447,0.0,0.0,0.0,0.0,0.0,0.0,0.0,0.0,0.0,0.0,0.0,0.0,0.0,0.0,-1.1297,-1.1915,-1.2418,-1.2895,-1.2905,-1.2905,-1.2905,-1.2905,-1.2905,-1.2905,-1.2905,-1.2881,-1.2822,-1.1434,-1.0788,-1.0686,-0.9361,-0.8804,-0.8804,-0.8804,-0.8804,-0.8804,-0.8804,-0.8811,-0.8824,-0.8824,-0.8824,-0.8838,-0.8838,-0.8991,-0.9224,-0.9237,-0.9459,-0.9753,-1.004,-1.0134,-1.0187,-1.0512,-1.0593,-1.0593,-1.0593,-1.0593,-1.0593,-1.0593,-1.0593,-1.0593,-1.0593,-1.0593,-1.0593,-1.0593,-1.0593,-1.0593,-1.0593,-1.0593,-1.0593,-1.0593,-1.0593,-1.0593,-1.0593,-1.0593,-1.0593,-1.0593,-1.0593,-1.0593,-1.0593,-1.0593,-1.0593,-1.0593,-1.0593,-1.0593,-1.0593,-1.0593,-1.0593,-1.0593,-1.0593,-1.0593,-1.0593,-1.0593,-1.0593,-1.0593,-1.0593,-1.0624,0.0,0.0,-0.5088,-0.4572,0.0,0.0,0.0,0.0,0.0,0.0,0.0,0.0,0.0,0.0,-0.5645,-0.5353,-0.5189,0.0,0.0,0.0,0.0,0.0,0.0,0.0,0.0,0.0,0.0,0.0,0.0,0.0,0.0,-1.1264,-1.1916,-1.2418,-1.2734,-1.2905,-1.2905,-1.2905,-1.2905,-1.2905,-1.2905,-1.2412,-1.1484,-1.1023,-1.0312,-0.9458,-0.9008,-0.8804,-0.8804,-0.8804,-0.8804,-0.8804,-0.8804,-0.8804,-0.8804,-0.8804,-0.8804,-0.8804,-0.8804,-0.8871,-0.8958,-0.9151,-0.9439,-0.974,-1.0027,-1.0254,-1.0459,-1.0566,-1.0593,-1.0593,-1.0593,-1.0593,-1.0593,-1.0593,-1.0593,-1.0593,-1.0593,-1.0593,-1.0593,-1.0593,-1.0593,-1.0593,-1.0593,-1.0593,-1.0593,-1.0593,-1.0593,-1.0593,-1.0593,-1.0593,-1.0593,-1.0593,-1.0593,-1.0593,-1.0593,-1.0593,-1.0593,-1.0593,-1.0593,-1.0593,-1.0593,-1.0593,-1.0593,-1.0593,-1.0593,-1.0593,-1.0593,-1.0593,-1.0593,-1.0593,-1.0593,-1.0593,-0.4464,-0.4491,0.0,0.0,-0.3877,0.0,-0.3631,0.0,0.0,0.0,0.0,0.0,0.0,0.0,-0.5222,-0.5233,-0.4951,-0.4614,0.0,0.0,0.0,0.0,0.0,0.0,0.0,0.0,-0.5306,-0.6447,0.0,0.0,0.0,0.0,-1.1505,-1.218,-1.2656,-1.2905,-1.2905,-1.2905,-1.2905,-1.2905,-1.2642,-1.2039,-1.1141,-1.0661,-0.9961,-0.9133,-0.891,-0.8804,-0.8804,-0.8804,-0.8804,-0.8804,-0.8804,-0.8804,-0.8804,-0.8804,-0.8804,-0.8804,-0.8804,-0.8804,-0.8838,-0.8998,-0.9359,-0.9719,-0.9907,-1.0271,-1.0593,-1.0593,-1.0593,-1.0593,-1.0593,-1.0593,-1.0593,-1.0593,-1.0593,-1.0593,-1.0593,-1.0593,-1.0593,-1.0593,-1.0593,-1.0593,-1.0593,-1.0593,-1.0593,-1.0593,-1.0593,-1.0593,-1.0593,-1.0593,-1.0593,-1.0593,-1.0593,-1.0593,-1.0593,-1.0593,-1.0593,-1.0593,-1.0593,-1.0593,-1.0593,-1.0593,-1.0593,-1.0593,-1.0593,-1.0593,-1.0593,-1.0593,-1.0593,-1.0593,-1.0593,-1.0593]}]]